<?xml version="1.0" encoding="UTF-8" standalone="no" ?>
<gpx xmlns="http://www.topografix.com/GPX/1/1" xmlns:xsi="http://www.w3.org/2001/XMLSchema-instance" xsi:schemaLocation="http://www.topografix.com/GPX/1/1 http://www.topografix.com/GPX/1/1/gpx.xsd" version="1.1" creator="VisuGPX - https://www.visugpx.com">
  <metadata>
    <name>Marche Nordique du 15/09/2012 de 8h à 10h groupe 1</name>
    <desc><![CDATA[Marche nordique avec le groupe 1.]]></desc>
  </metadata>
  <trk>
    <name><![CDATA[15/09/12 08:09]]></name>
    <desc><![CDATA[]]></desc>
    <trkseg>
      <trkpt lat="47.32075" lon="4.98137">
        <ele>341</ele>
        <time>2012-09-15T06:11:04Z</time>
      </trkpt>
      <trkpt lat="47.32077" lon="4.98128">
        <ele>345</ele>
        <time>2012-09-15T06:11:10Z</time>
      </trkpt>
      <trkpt lat="47.32077" lon="4.98128">
        <ele>345</ele>
        <time>2012-09-15T06:11:10Z</time>
      </trkpt>
      <trkpt lat="47.32077" lon="4.98128">
        <ele>346</ele>
        <time>2012-09-15T06:11:11Z</time>
      </trkpt>
      <trkpt lat="47.32076" lon="4.98122">
        <ele>342</ele>
        <time>2012-09-15T06:11:22Z</time>
      </trkpt>
      <trkpt lat="47.32075" lon="4.98114">
        <ele>342</ele>
        <time>2012-09-15T06:11:43Z</time>
      </trkpt>
      <trkpt lat="47.32073" lon="4.98104">
        <ele>342</ele>
        <time>2012-09-15T06:11:45Z</time>
      </trkpt>
      <trkpt lat="47.3207" lon="4.98093">
        <ele>341</ele>
        <time>2012-09-15T06:11:47Z</time>
      </trkpt>
      <trkpt lat="47.32066" lon="4.98086">
        <ele>341</ele>
        <time>2012-09-15T06:11:49Z</time>
      </trkpt>
      <trkpt lat="47.32063" lon="4.98077">
        <ele>339</ele>
        <time>2012-09-15T06:11:51Z</time>
      </trkpt>
      <trkpt lat="47.3206" lon="4.98067">
        <ele>338</ele>
        <time>2012-09-15T06:11:53Z</time>
      </trkpt>
      <trkpt lat="47.32057" lon="4.98059">
        <ele>338</ele>
        <time>2012-09-15T06:11:55Z</time>
      </trkpt>
      <trkpt lat="47.32052" lon="4.98051">
        <ele>337</ele>
        <time>2012-09-15T06:11:57Z</time>
      </trkpt>
      <trkpt lat="47.32049" lon="4.98043">
        <ele>338</ele>
        <time>2012-09-15T06:11:59Z</time>
      </trkpt>
      <trkpt lat="47.32048" lon="4.98035">
        <ele>337</ele>
        <time>2012-09-15T06:12:02Z</time>
      </trkpt>
      <trkpt lat="47.32047" lon="4.98028">
        <ele>337</ele>
        <time>2012-09-15T06:12:05Z</time>
      </trkpt>
      <trkpt lat="47.32045" lon="4.98021">
        <ele>338</ele>
        <time>2012-09-15T06:12:09Z</time>
      </trkpt>
      <trkpt lat="47.32044" lon="4.98015">
        <ele>338</ele>
        <time>2012-09-15T06:12:12Z</time>
      </trkpt>
      <trkpt lat="47.32041" lon="4.98009">
        <ele>339</ele>
        <time>2012-09-15T06:12:16Z</time>
      </trkpt>
      <trkpt lat="47.3204" lon="4.98002">
        <ele>338</ele>
        <time>2012-09-15T06:12:19Z</time>
      </trkpt>
      <trkpt lat="47.32037" lon="4.97994">
        <ele>336</ele>
        <time>2012-09-15T06:12:23Z</time>
      </trkpt>
      <trkpt lat="47.32034" lon="4.97988">
        <ele>336</ele>
        <time>2012-09-15T06:12:26Z</time>
      </trkpt>
      <trkpt lat="47.32031" lon="4.97984">
        <ele>336</ele>
        <time>2012-09-15T06:12:29Z</time>
      </trkpt>
      <trkpt lat="47.32028" lon="4.97978">
        <ele>335</ele>
        <time>2012-09-15T06:12:32Z</time>
      </trkpt>
      <trkpt lat="47.32023" lon="4.97972">
        <ele>336</ele>
        <time>2012-09-15T06:12:36Z</time>
      </trkpt>
      <trkpt lat="47.3202" lon="4.97966">
        <ele>336</ele>
        <time>2012-09-15T06:12:39Z</time>
      </trkpt>
      <trkpt lat="47.32017" lon="4.97961">
        <ele>336</ele>
        <time>2012-09-15T06:12:42Z</time>
      </trkpt>
      <trkpt lat="47.32014" lon="4.97955">
        <ele>336</ele>
        <time>2012-09-15T06:12:45Z</time>
      </trkpt>
      <trkpt lat="47.32011" lon="4.97949">
        <ele>336</ele>
        <time>2012-09-15T06:12:48Z</time>
      </trkpt>
      <trkpt lat="47.32008" lon="4.97943">
        <ele>335</ele>
        <time>2012-09-15T06:12:51Z</time>
      </trkpt>
      <trkpt lat="47.32005" lon="4.97938">
        <ele>336</ele>
        <time>2012-09-15T06:12:54Z</time>
      </trkpt>
      <trkpt lat="47.32001" lon="4.97933">
        <ele>336</ele>
        <time>2012-09-15T06:12:57Z</time>
      </trkpt>
      <trkpt lat="47.31997" lon="4.9793">
        <ele>336</ele>
        <time>2012-09-15T06:13:00Z</time>
      </trkpt>
      <trkpt lat="47.31994" lon="4.97925">
        <ele>336</ele>
        <time>2012-09-15T06:13:04Z</time>
      </trkpt>
      <trkpt lat="47.3199" lon="4.9793">
        <ele>336</ele>
        <time>2012-09-15T06:13:10Z</time>
      </trkpt>
      <trkpt lat="47.31991" lon="4.97939">
        <ele>337</ele>
        <time>2012-09-15T06:13:16Z</time>
      </trkpt>
      <trkpt lat="47.31988" lon="4.97946">
        <ele>337</ele>
        <time>2012-09-15T06:13:19Z</time>
      </trkpt>
      <trkpt lat="47.31982" lon="4.9795">
        <ele>337</ele>
        <time>2012-09-15T06:13:25Z</time>
      </trkpt>
      <trkpt lat="47.31977" lon="4.97955">
        <ele>338</ele>
        <time>2012-09-15T06:13:28Z</time>
      </trkpt>
      <trkpt lat="47.31976" lon="4.97962">
        <ele>338</ele>
        <time>2012-09-15T06:13:32Z</time>
      </trkpt>
      <trkpt lat="47.31976" lon="4.97962">
        <ele>338</ele>
        <time>2012-09-15T06:13:32Z</time>
      </trkpt>
      <trkpt lat="47.31976" lon="4.97962">
        <ele>338</ele>
        <time>2012-09-15T06:13:33Z</time>
      </trkpt>
      <trkpt lat="47.31974" lon="4.97968">
        <ele>338</ele>
        <time>2012-09-15T06:13:35Z</time>
      </trkpt>
      <trkpt lat="47.31969" lon="4.97973">
        <ele>339</ele>
        <time>2012-09-15T06:13:39Z</time>
      </trkpt>
      <trkpt lat="47.31968" lon="4.97981">
        <ele>340</ele>
        <time>2012-09-15T06:13:50Z</time>
      </trkpt>
      <trkpt lat="47.31967" lon="4.97988">
        <ele>344</ele>
        <time>2012-09-15T06:13:53Z</time>
      </trkpt>
      <trkpt lat="47.31963" lon="4.97993">
        <ele>345</ele>
        <time>2012-09-15T06:13:56Z</time>
      </trkpt>
      <trkpt lat="47.31959" lon="4.98">
        <ele>346</ele>
        <time>2012-09-15T06:13:59Z</time>
      </trkpt>
      <trkpt lat="47.31955" lon="4.98005">
        <ele>346</ele>
        <time>2012-09-15T06:14:02Z</time>
      </trkpt>
      <trkpt lat="47.31951" lon="4.98013">
        <ele>346</ele>
        <time>2012-09-15T06:14:06Z</time>
      </trkpt>
      <trkpt lat="47.31946" lon="4.98016">
        <ele>346</ele>
        <time>2012-09-15T06:14:09Z</time>
      </trkpt>
      <trkpt lat="47.31942" lon="4.9802">
        <ele>346</ele>
        <time>2012-09-15T06:14:11Z</time>
      </trkpt>
      <trkpt lat="47.31939" lon="4.98026">
        <ele>346</ele>
        <time>2012-09-15T06:14:14Z</time>
      </trkpt>
      <trkpt lat="47.31938" lon="4.98033">
        <ele>346</ele>
        <time>2012-09-15T06:14:19Z</time>
      </trkpt>
      <trkpt lat="47.31944" lon="4.98037">
        <ele>352</ele>
        <time>2012-09-15T06:14:21Z</time>
      </trkpt>
      <trkpt lat="47.31947" lon="4.98045">
        <ele>355</ele>
        <time>2012-09-15T06:14:28Z</time>
      </trkpt>
      <trkpt lat="47.3195" lon="4.98051">
        <ele>359</ele>
        <time>2012-09-15T06:14:33Z</time>
      </trkpt>
      <trkpt lat="47.31949" lon="4.98059">
        <ele>361</ele>
        <time>2012-09-15T06:14:37Z</time>
      </trkpt>
      <trkpt lat="47.31948" lon="4.98066">
        <ele>362</ele>
        <time>2012-09-15T06:14:42Z</time>
      </trkpt>
      <trkpt lat="47.31946" lon="4.98073">
        <ele>365</ele>
        <time>2012-09-15T06:14:49Z</time>
      </trkpt>
      <trkpt lat="47.31944" lon="4.9808">
        <ele>366</ele>
        <time>2012-09-15T06:14:54Z</time>
      </trkpt>
      <trkpt lat="47.31943" lon="4.98087">
        <ele>368</ele>
        <time>2012-09-15T06:15:00Z</time>
      </trkpt>
      <trkpt lat="47.31942" lon="4.98095">
        <ele>370</ele>
        <time>2012-09-15T06:15:05Z</time>
      </trkpt>
      <trkpt lat="47.31939" lon="4.98101">
        <ele>371</ele>
        <time>2012-09-15T06:15:10Z</time>
      </trkpt>
      <trkpt lat="47.31936" lon="4.98106">
        <ele>372</ele>
        <time>2012-09-15T06:15:15Z</time>
      </trkpt>
      <trkpt lat="47.31933" lon="4.98112">
        <ele>373</ele>
        <time>2012-09-15T06:15:19Z</time>
      </trkpt>
      <trkpt lat="47.3193" lon="4.98116">
        <ele>374</ele>
        <time>2012-09-15T06:15:25Z</time>
      </trkpt>
      <trkpt lat="47.31924" lon="4.98116">
        <ele>373</ele>
        <time>2012-09-15T06:15:46Z</time>
      </trkpt>
      <trkpt lat="47.31921" lon="4.98109">
        <ele>373</ele>
        <time>2012-09-15T06:15:52Z</time>
      </trkpt>
      <trkpt lat="47.31918" lon="4.98103">
        <ele>374</ele>
        <time>2012-09-15T06:15:57Z</time>
      </trkpt>
      <trkpt lat="47.31914" lon="4.981">
        <ele>376</ele>
        <time>2012-09-15T06:16:03Z</time>
      </trkpt>
      <trkpt lat="47.3191" lon="4.98095">
        <ele>377</ele>
        <time>2012-09-15T06:16:07Z</time>
      </trkpt>
      <trkpt lat="47.31906" lon="4.98091">
        <ele>377</ele>
        <time>2012-09-15T06:16:13Z</time>
      </trkpt>
      <trkpt lat="47.31902" lon="4.98086">
        <ele>378</ele>
        <time>2012-09-15T06:16:20Z</time>
      </trkpt>
      <trkpt lat="47.319" lon="4.9808">
        <ele>379</ele>
        <time>2012-09-15T06:16:29Z</time>
      </trkpt>
      <trkpt lat="47.31896" lon="4.98078">
        <ele>383</ele>
        <time>2012-09-15T06:16:36Z</time>
      </trkpt>
      <trkpt lat="47.3189" lon="4.98082">
        <ele>381</ele>
        <time>2012-09-15T06:16:40Z</time>
      </trkpt>
      <trkpt lat="47.31887" lon="4.98088">
        <ele>381</ele>
        <time>2012-09-15T06:16:43Z</time>
      </trkpt>
      <trkpt lat="47.31884" lon="4.98094">
        <ele>381</ele>
        <time>2012-09-15T06:16:46Z</time>
      </trkpt>
      <trkpt lat="47.31879" lon="4.98098">
        <ele>382</ele>
        <time>2012-09-15T06:16:50Z</time>
      </trkpt>
      <trkpt lat="47.31875" lon="4.98094">
        <ele>383</ele>
        <time>2012-09-15T06:16:53Z</time>
      </trkpt>
      <trkpt lat="47.31873" lon="4.98087">
        <ele>383</ele>
        <time>2012-09-15T06:16:57Z</time>
      </trkpt>
      <trkpt lat="47.31872" lon="4.9808">
        <ele>382</ele>
        <time>2012-09-15T06:17:00Z</time>
      </trkpt>
      <trkpt lat="47.31871" lon="4.98073">
        <ele>382</ele>
        <time>2012-09-15T06:17:03Z</time>
      </trkpt>
      <trkpt lat="47.31868" lon="4.98067">
        <ele>383</ele>
        <time>2012-09-15T06:17:07Z</time>
      </trkpt>
      <trkpt lat="47.31867" lon="4.9806">
        <ele>384</ele>
        <time>2012-09-15T06:17:11Z</time>
      </trkpt>
      <trkpt lat="47.31865" lon="4.98052">
        <ele>384</ele>
        <time>2012-09-15T06:17:15Z</time>
      </trkpt>
      <trkpt lat="47.31862" lon="4.98046">
        <ele>384</ele>
        <time>2012-09-15T06:17:18Z</time>
      </trkpt>
      <trkpt lat="47.31861" lon="4.9804">
        <ele>384</ele>
        <time>2012-09-15T06:17:21Z</time>
      </trkpt>
      <trkpt lat="47.31861" lon="4.98032">
        <ele>383</ele>
        <time>2012-09-15T06:17:23Z</time>
      </trkpt>
      <trkpt lat="47.31862" lon="4.98024">
        <ele>383</ele>
        <time>2012-09-15T06:17:26Z</time>
      </trkpt>
      <trkpt lat="47.31859" lon="4.98018">
        <ele>383</ele>
        <time>2012-09-15T06:17:32Z</time>
      </trkpt>
      <trkpt lat="47.31856" lon="4.98013">
        <ele>383</ele>
        <time>2012-09-15T06:17:37Z</time>
      </trkpt>
      <trkpt lat="47.31853" lon="4.98007">
        <ele>383</ele>
        <time>2012-09-15T06:17:40Z</time>
      </trkpt>
      <trkpt lat="47.31853" lon="4.97999">
        <ele>382</ele>
        <time>2012-09-15T06:17:43Z</time>
      </trkpt>
      <trkpt lat="47.3185" lon="4.97993">
        <ele>383</ele>
        <time>2012-09-15T06:17:46Z</time>
      </trkpt>
      <trkpt lat="47.3185" lon="4.97985">
        <ele>382</ele>
        <time>2012-09-15T06:17:49Z</time>
      </trkpt>
      <trkpt lat="47.3185" lon="4.97978">
        <ele>381</ele>
        <time>2012-09-15T06:17:52Z</time>
      </trkpt>
      <trkpt lat="47.31849" lon="4.97971">
        <ele>379</ele>
        <time>2012-09-15T06:17:54Z</time>
      </trkpt>
      <trkpt lat="47.31847" lon="4.97963">
        <ele>381</ele>
        <time>2012-09-15T06:17:59Z</time>
      </trkpt>
      <trkpt lat="47.31845" lon="4.97956">
        <ele>382</ele>
        <time>2012-09-15T06:18:02Z</time>
      </trkpt>
      <trkpt lat="47.31845" lon="4.97948">
        <ele>383</ele>
        <time>2012-09-15T06:18:05Z</time>
      </trkpt>
      <trkpt lat="47.31843" lon="4.97941">
        <ele>384</ele>
        <time>2012-09-15T06:18:09Z</time>
      </trkpt>
      <trkpt lat="47.31842" lon="4.97933">
        <ele>383</ele>
        <time>2012-09-15T06:18:13Z</time>
      </trkpt>
      <trkpt lat="47.31838" lon="4.97927">
        <ele>383</ele>
        <time>2012-09-15T06:18:18Z</time>
      </trkpt>
      <trkpt lat="47.31834" lon="4.97922">
        <ele>383</ele>
        <time>2012-09-15T06:18:21Z</time>
      </trkpt>
      <trkpt lat="47.31834" lon="4.97916">
        <ele>384</ele>
        <time>2012-09-15T06:18:24Z</time>
      </trkpt>
      <trkpt lat="47.31832" lon="4.97906">
        <ele>385</ele>
        <time>2012-09-15T06:18:28Z</time>
      </trkpt>
      <trkpt lat="47.3183" lon="4.979">
        <ele>385</ele>
        <time>2012-09-15T06:18:31Z</time>
      </trkpt>
      <trkpt lat="47.31827" lon="4.97891">
        <ele>385</ele>
        <time>2012-09-15T06:18:36Z</time>
      </trkpt>
      <trkpt lat="47.31826" lon="4.97883">
        <ele>385</ele>
        <time>2012-09-15T06:18:39Z</time>
      </trkpt>
      <trkpt lat="47.31823" lon="4.97876">
        <ele>386</ele>
        <time>2012-09-15T06:18:43Z</time>
      </trkpt>
      <trkpt lat="47.31821" lon="4.9787">
        <ele>388</ele>
        <time>2012-09-15T06:18:47Z</time>
      </trkpt>
      <trkpt lat="47.31818" lon="4.97864">
        <ele>388</ele>
        <time>2012-09-15T06:18:51Z</time>
      </trkpt>
      <trkpt lat="47.31815" lon="4.97856">
        <ele>390</ele>
        <time>2012-09-15T06:18:55Z</time>
      </trkpt>
      <trkpt lat="47.31812" lon="4.97849">
        <ele>390</ele>
        <time>2012-09-15T06:18:59Z</time>
      </trkpt>
      <trkpt lat="47.31809" lon="4.97843">
        <ele>388</ele>
        <time>2012-09-15T06:19:03Z</time>
      </trkpt>
      <trkpt lat="47.31805" lon="4.97837">
        <ele>388</ele>
        <time>2012-09-15T06:19:07Z</time>
      </trkpt>
      <trkpt lat="47.318" lon="4.97832">
        <ele>388</ele>
        <time>2012-09-15T06:19:11Z</time>
      </trkpt>
      <trkpt lat="47.31797" lon="4.97824">
        <ele>388</ele>
        <time>2012-09-15T06:19:15Z</time>
      </trkpt>
      <trkpt lat="47.31798" lon="4.97815">
        <ele>387</ele>
        <time>2012-09-15T06:19:18Z</time>
      </trkpt>
      <trkpt lat="47.31798" lon="4.97808">
        <ele>385</ele>
        <time>2012-09-15T06:19:21Z</time>
      </trkpt>
      <trkpt lat="47.31797" lon="4.97801">
        <ele>386</ele>
        <time>2012-09-15T06:19:25Z</time>
      </trkpt>
      <trkpt lat="47.31795" lon="4.97794">
        <ele>387</ele>
        <time>2012-09-15T06:19:29Z</time>
      </trkpt>
      <trkpt lat="47.31794" lon="4.97787">
        <ele>390</ele>
        <time>2012-09-15T06:19:33Z</time>
      </trkpt>
      <trkpt lat="47.31793" lon="4.97779">
        <ele>390</ele>
        <time>2012-09-15T06:19:36Z</time>
      </trkpt>
      <trkpt lat="47.31795" lon="4.97772">
        <ele>389</ele>
        <time>2012-09-15T06:19:38Z</time>
      </trkpt>
      <trkpt lat="47.31795" lon="4.97764">
        <ele>387</ele>
        <time>2012-09-15T06:19:42Z</time>
      </trkpt>
      <trkpt lat="47.31795" lon="4.97756">
        <ele>386</ele>
        <time>2012-09-15T06:19:46Z</time>
      </trkpt>
      <trkpt lat="47.31794" lon="4.97747">
        <ele>386</ele>
        <time>2012-09-15T06:19:50Z</time>
      </trkpt>
      <trkpt lat="47.31793" lon="4.97739">
        <ele>387</ele>
        <time>2012-09-15T06:19:53Z</time>
      </trkpt>
      <trkpt lat="47.3179" lon="4.97734">
        <ele>390</ele>
        <time>2012-09-15T06:19:57Z</time>
      </trkpt>
      <trkpt lat="47.31786" lon="4.97729">
        <ele>392</ele>
        <time>2012-09-15T06:20:01Z</time>
      </trkpt>
      <trkpt lat="47.31782" lon="4.97725">
        <ele>391</ele>
        <time>2012-09-15T06:20:04Z</time>
      </trkpt>
      <trkpt lat="47.31778" lon="4.9772">
        <ele>391</ele>
        <time>2012-09-15T06:20:08Z</time>
      </trkpt>
      <trkpt lat="47.31774" lon="4.97714">
        <ele>390</ele>
        <time>2012-09-15T06:20:11Z</time>
      </trkpt>
      <trkpt lat="47.31771" lon="4.97709">
        <ele>390</ele>
        <time>2012-09-15T06:20:14Z</time>
      </trkpt>
      <trkpt lat="47.3177" lon="4.97699">
        <ele>389</ele>
        <time>2012-09-15T06:20:18Z</time>
      </trkpt>
      <trkpt lat="47.3177" lon="4.97691">
        <ele>388</ele>
        <time>2012-09-15T06:20:21Z</time>
      </trkpt>
      <trkpt lat="47.31769" lon="4.97683">
        <ele>387</ele>
        <time>2012-09-15T06:20:24Z</time>
      </trkpt>
      <trkpt lat="47.31767" lon="4.97675">
        <ele>384</ele>
        <time>2012-09-15T06:20:28Z</time>
      </trkpt>
      <trkpt lat="47.31763" lon="4.97669">
        <ele>384</ele>
        <time>2012-09-15T06:20:31Z</time>
      </trkpt>
      <trkpt lat="47.31759" lon="4.97664">
        <ele>384</ele>
        <time>2012-09-15T06:20:35Z</time>
      </trkpt>
      <trkpt lat="47.31754" lon="4.97661">
        <ele>384</ele>
        <time>2012-09-15T06:20:38Z</time>
      </trkpt>
      <trkpt lat="47.31753" lon="4.97652">
        <ele>385</ele>
        <time>2012-09-15T06:20:42Z</time>
      </trkpt>
      <trkpt lat="47.31751" lon="4.97645">
        <ele>384</ele>
        <time>2012-09-15T06:20:45Z</time>
      </trkpt>
      <trkpt lat="47.31746" lon="4.97641">
        <ele>384</ele>
        <time>2012-09-15T06:20:49Z</time>
      </trkpt>
      <trkpt lat="47.31742" lon="4.97636">
        <ele>384</ele>
        <time>2012-09-15T06:20:53Z</time>
      </trkpt>
      <trkpt lat="47.31737" lon="4.97633">
        <ele>385</ele>
        <time>2012-09-15T06:20:57Z</time>
      </trkpt>
      <trkpt lat="47.31731" lon="4.97632">
        <ele>390</ele>
        <time>2012-09-15T06:21:02Z</time>
      </trkpt>
      <trkpt lat="47.31727" lon="4.97626">
        <ele>391</ele>
        <time>2012-09-15T06:21:06Z</time>
      </trkpt>
      <trkpt lat="47.31723" lon="4.97621">
        <ele>392</ele>
        <time>2012-09-15T06:21:09Z</time>
      </trkpt>
      <trkpt lat="47.3172" lon="4.97614">
        <ele>392</ele>
        <time>2012-09-15T06:21:13Z</time>
      </trkpt>
      <trkpt lat="47.31716" lon="4.97607">
        <ele>392</ele>
        <time>2012-09-15T06:21:16Z</time>
      </trkpt>
      <trkpt lat="47.31713" lon="4.976">
        <ele>393</ele>
        <time>2012-09-15T06:21:20Z</time>
      </trkpt>
      <trkpt lat="47.31712" lon="4.97592">
        <ele>391</ele>
        <time>2012-09-15T06:21:22Z</time>
      </trkpt>
      <trkpt lat="47.31709" lon="4.97584">
        <ele>391</ele>
        <time>2012-09-15T06:21:27Z</time>
      </trkpt>
      <trkpt lat="47.31705" lon="4.97578">
        <ele>392</ele>
        <time>2012-09-15T06:21:30Z</time>
      </trkpt>
      <trkpt lat="47.31701" lon="4.97571">
        <ele>391</ele>
        <time>2012-09-15T06:21:34Z</time>
      </trkpt>
      <trkpt lat="47.31696" lon="4.97568">
        <ele>391</ele>
        <time>2012-09-15T06:21:38Z</time>
      </trkpt>
      <trkpt lat="47.31692" lon="4.97562">
        <ele>395</ele>
        <time>2012-09-15T06:21:45Z</time>
      </trkpt>
      <trkpt lat="47.31687" lon="4.97561">
        <ele>395</ele>
        <time>2012-09-15T06:21:47Z</time>
      </trkpt>
      <trkpt lat="47.31682" lon="4.97556">
        <ele>394</ele>
        <time>2012-09-15T06:21:51Z</time>
      </trkpt>
      <trkpt lat="47.3168" lon="4.97548">
        <ele>394</ele>
        <time>2012-09-15T06:21:55Z</time>
      </trkpt>
      <trkpt lat="47.31674" lon="4.97546">
        <ele>394</ele>
        <time>2012-09-15T06:21:58Z</time>
      </trkpt>
      <trkpt lat="47.31668" lon="4.97546">
        <ele>398</ele>
        <time>2012-09-15T06:22:01Z</time>
      </trkpt>
      <trkpt lat="47.31664" lon="4.97541">
        <ele>397</ele>
        <time>2012-09-15T06:22:04Z</time>
      </trkpt>
      <trkpt lat="47.31661" lon="4.97535">
        <ele>397</ele>
        <time>2012-09-15T06:22:08Z</time>
      </trkpt>
      <trkpt lat="47.31659" lon="4.97528">
        <ele>399</ele>
        <time>2012-09-15T06:22:12Z</time>
      </trkpt>
      <trkpt lat="47.31655" lon="4.97521">
        <ele>400</ele>
        <time>2012-09-15T06:22:17Z</time>
      </trkpt>
      <trkpt lat="47.3165" lon="4.9752">
        <ele>400</ele>
        <time>2012-09-15T06:22:19Z</time>
      </trkpt>
      <trkpt lat="47.31647" lon="4.97513">
        <ele>401</ele>
        <time>2012-09-15T06:22:22Z</time>
      </trkpt>
      <trkpt lat="47.3164" lon="4.9751">
        <ele>401</ele>
        <time>2012-09-15T06:22:25Z</time>
      </trkpt>
      <trkpt lat="47.31637" lon="4.97502">
        <ele>401</ele>
        <time>2012-09-15T06:22:29Z</time>
      </trkpt>
      <trkpt lat="47.31636" lon="4.97494">
        <ele>401</ele>
        <time>2012-09-15T06:22:32Z</time>
      </trkpt>
      <trkpt lat="47.31633" lon="4.97487">
        <ele>402</ele>
        <time>2012-09-15T06:22:36Z</time>
      </trkpt>
      <trkpt lat="47.31629" lon="4.97483">
        <ele>401</ele>
        <time>2012-09-15T06:22:40Z</time>
      </trkpt>
      <trkpt lat="47.31622" lon="4.97482">
        <ele>399</ele>
        <time>2012-09-15T06:22:42Z</time>
      </trkpt>
      <trkpt lat="47.31618" lon="4.97473">
        <ele>399</ele>
        <time>2012-09-15T06:22:47Z</time>
      </trkpt>
      <trkpt lat="47.31618" lon="4.97465">
        <ele>398</ele>
        <time>2012-09-15T06:22:50Z</time>
      </trkpt>
      <trkpt lat="47.31615" lon="4.97458">
        <ele>399</ele>
        <time>2012-09-15T06:22:55Z</time>
      </trkpt>
      <trkpt lat="47.31615" lon="4.9745">
        <ele>400</ele>
        <time>2012-09-15T06:22:58Z</time>
      </trkpt>
      <trkpt lat="47.31609" lon="4.97452">
        <ele>400</ele>
        <time>2012-09-15T06:22:59Z</time>
      </trkpt>
      <trkpt lat="47.31605" lon="4.97449">
        <ele>401</ele>
        <time>2012-09-15T06:23:02Z</time>
      </trkpt>
      <trkpt lat="47.31599" lon="4.97446">
        <ele>402</ele>
        <time>2012-09-15T06:23:05Z</time>
      </trkpt>
      <trkpt lat="47.31594" lon="4.9744">
        <ele>399</ele>
        <time>2012-09-15T06:23:10Z</time>
      </trkpt>
      <trkpt lat="47.31588" lon="4.97436">
        <ele>399</ele>
        <time>2012-09-15T06:23:13Z</time>
      </trkpt>
      <trkpt lat="47.31586" lon="4.9743">
        <ele>399</ele>
        <time>2012-09-15T06:23:17Z</time>
      </trkpt>
      <trkpt lat="47.31581" lon="4.97427">
        <ele>399</ele>
        <time>2012-09-15T06:23:20Z</time>
      </trkpt>
      <trkpt lat="47.31577" lon="4.97423">
        <ele>399</ele>
        <time>2012-09-15T06:23:23Z</time>
      </trkpt>
      <trkpt lat="47.31572" lon="4.9742">
        <ele>399</ele>
        <time>2012-09-15T06:23:26Z</time>
      </trkpt>
      <trkpt lat="47.31566" lon="4.97422">
        <ele>400</ele>
        <time>2012-09-15T06:23:29Z</time>
      </trkpt>
      <trkpt lat="47.31566" lon="4.97422">
        <ele>400</ele>
        <time>2012-09-15T06:23:29Z</time>
      </trkpt>
      <trkpt lat="47.31566" lon="4.97422">
        <ele>400</ele>
        <time>2012-09-15T06:23:30Z</time>
      </trkpt>
      <trkpt lat="47.31563" lon="4.97417">
        <ele>400</ele>
        <time>2012-09-15T06:23:35Z</time>
      </trkpt>
      <trkpt lat="47.31563" lon="4.97417">
        <ele>400</ele>
        <time>2012-09-15T06:23:35Z</time>
      </trkpt>
      <trkpt lat="47.31563" lon="4.97417">
        <ele>399</ele>
        <time>2012-09-15T06:23:36Z</time>
      </trkpt>
      <trkpt lat="47.31556" lon="4.97411">
        <ele>400</ele>
        <time>2012-09-15T06:23:42Z</time>
      </trkpt>
      <trkpt lat="47.31551" lon="4.97411">
        <ele>399</ele>
        <time>2012-09-15T06:23:43Z</time>
      </trkpt>
      <trkpt lat="47.31547" lon="4.97406">
        <ele>398</ele>
        <time>2012-09-15T06:23:47Z</time>
      </trkpt>
      <trkpt lat="47.31544" lon="4.97401">
        <ele>398</ele>
        <time>2012-09-15T06:23:51Z</time>
      </trkpt>
      <trkpt lat="47.31543" lon="4.97392">
        <ele>397</ele>
        <time>2012-09-15T06:23:55Z</time>
      </trkpt>
      <trkpt lat="47.3154" lon="4.97384">
        <ele>400</ele>
        <time>2012-09-15T06:23:59Z</time>
      </trkpt>
      <trkpt lat="47.31535" lon="4.97384">
        <ele>400</ele>
        <time>2012-09-15T06:24:02Z</time>
      </trkpt>
      <trkpt lat="47.3153" lon="4.97382">
        <ele>401</ele>
        <time>2012-09-15T06:24:05Z</time>
      </trkpt>
      <trkpt lat="47.31525" lon="4.97378">
        <ele>401</ele>
        <time>2012-09-15T06:24:08Z</time>
      </trkpt>
      <trkpt lat="47.3152" lon="4.97374">
        <ele>401</ele>
        <time>2012-09-15T06:24:11Z</time>
      </trkpt>
      <trkpt lat="47.31514" lon="4.97371">
        <ele>402</ele>
        <time>2012-09-15T06:24:15Z</time>
      </trkpt>
      <trkpt lat="47.31509" lon="4.97371">
        <ele>402</ele>
        <time>2012-09-15T06:24:18Z</time>
      </trkpt>
      <trkpt lat="47.31505" lon="4.97365">
        <ele>402</ele>
        <time>2012-09-15T06:24:21Z</time>
      </trkpt>
      <trkpt lat="47.315" lon="4.9736">
        <ele>401</ele>
        <time>2012-09-15T06:24:24Z</time>
      </trkpt>
      <trkpt lat="47.31495" lon="4.97359">
        <ele>402</ele>
        <time>2012-09-15T06:24:27Z</time>
      </trkpt>
      <trkpt lat="47.31488" lon="4.97359">
        <ele>402</ele>
        <time>2012-09-15T06:24:30Z</time>
      </trkpt>
      <trkpt lat="47.31483" lon="4.97357">
        <ele>402</ele>
        <time>2012-09-15T06:24:32Z</time>
      </trkpt>
      <trkpt lat="47.31478" lon="4.97354">
        <ele>402</ele>
        <time>2012-09-15T06:24:35Z</time>
      </trkpt>
      <trkpt lat="47.31476" lon="4.97345">
        <ele>399</ele>
        <time>2012-09-15T06:24:38Z</time>
      </trkpt>
      <trkpt lat="47.31474" lon="4.97337">
        <ele>399</ele>
        <time>2012-09-15T06:24:42Z</time>
      </trkpt>
      <trkpt lat="47.31468" lon="4.97334">
        <ele>399</ele>
        <time>2012-09-15T06:24:45Z</time>
      </trkpt>
      <trkpt lat="47.31466" lon="4.97326">
        <ele>398</ele>
        <time>2012-09-15T06:24:48Z</time>
      </trkpt>
      <trkpt lat="47.31463" lon="4.9732">
        <ele>397</ele>
        <time>2012-09-15T06:24:51Z</time>
      </trkpt>
      <trkpt lat="47.31457" lon="4.97317">
        <ele>396</ele>
        <time>2012-09-15T06:24:54Z</time>
      </trkpt>
      <trkpt lat="47.31453" lon="4.97317">
        <ele>396</ele>
        <time>2012-09-15T06:24:57Z</time>
      </trkpt>
      <trkpt lat="47.31449" lon="4.97312">
        <ele>396</ele>
        <time>2012-09-15T06:25:00Z</time>
      </trkpt>
      <trkpt lat="47.31448" lon="4.97305">
        <ele>396</ele>
        <time>2012-09-15T06:25:04Z</time>
      </trkpt>
      <trkpt lat="47.31446" lon="4.97298">
        <ele>396</ele>
        <time>2012-09-15T06:25:08Z</time>
      </trkpt>
      <trkpt lat="47.31441" lon="4.97298">
        <ele>397</ele>
        <time>2012-09-15T06:25:11Z</time>
      </trkpt>
      <trkpt lat="47.31438" lon="4.97291">
        <ele>398</ele>
        <time>2012-09-15T06:25:17Z</time>
      </trkpt>
      <trkpt lat="47.31434" lon="4.97286">
        <ele>400</ele>
        <time>2012-09-15T06:25:21Z</time>
      </trkpt>
      <trkpt lat="47.3143" lon="4.97283">
        <ele>400</ele>
        <time>2012-09-15T06:25:24Z</time>
      </trkpt>
      <trkpt lat="47.31425" lon="4.97278">
        <ele>401</ele>
        <time>2012-09-15T06:25:28Z</time>
      </trkpt>
      <trkpt lat="47.31419" lon="4.97274">
        <ele>401</ele>
        <time>2012-09-15T06:25:32Z</time>
      </trkpt>
      <trkpt lat="47.31417" lon="4.97268">
        <ele>402</ele>
        <time>2012-09-15T06:25:35Z</time>
      </trkpt>
      <trkpt lat="47.31415" lon="4.97261">
        <ele>403</ele>
        <time>2012-09-15T06:25:39Z</time>
      </trkpt>
      <trkpt lat="47.3141" lon="4.97264">
        <ele>404</ele>
        <time>2012-09-15T06:25:40Z</time>
      </trkpt>
      <trkpt lat="47.31404" lon="4.97262">
        <ele>403</ele>
        <time>2012-09-15T06:25:43Z</time>
      </trkpt>
      <trkpt lat="47.314" lon="4.97257">
        <ele>400</ele>
        <time>2012-09-15T06:25:47Z</time>
      </trkpt>
      <trkpt lat="47.31397" lon="4.9725">
        <ele>400</ele>
        <time>2012-09-15T06:25:50Z</time>
      </trkpt>
      <trkpt lat="47.31393" lon="4.97246">
        <ele>402</ele>
        <time>2012-09-15T06:25:53Z</time>
      </trkpt>
      <trkpt lat="47.31391" lon="4.97239">
        <ele>401</ele>
        <time>2012-09-15T06:25:56Z</time>
      </trkpt>
      <trkpt lat="47.31388" lon="4.97231">
        <ele>402</ele>
        <time>2012-09-15T06:25:59Z</time>
      </trkpt>
      <trkpt lat="47.31384" lon="4.97228">
        <ele>401</ele>
        <time>2012-09-15T06:26:01Z</time>
      </trkpt>
      <trkpt lat="47.3138" lon="4.97222">
        <ele>402</ele>
        <time>2012-09-15T06:26:06Z</time>
      </trkpt>
      <trkpt lat="47.31375" lon="4.9722">
        <ele>401</ele>
        <time>2012-09-15T06:26:10Z</time>
      </trkpt>
      <trkpt lat="47.31371" lon="4.97214">
        <ele>401</ele>
        <time>2012-09-15T06:26:15Z</time>
      </trkpt>
      <trkpt lat="47.31366" lon="4.9721">
        <ele>399</ele>
        <time>2012-09-15T06:26:19Z</time>
      </trkpt>
      <trkpt lat="47.31361" lon="4.97209">
        <ele>399</ele>
        <time>2012-09-15T06:26:23Z</time>
      </trkpt>
      <trkpt lat="47.31357" lon="4.97204">
        <ele>397</ele>
        <time>2012-09-15T06:26:27Z</time>
      </trkpt>
      <trkpt lat="47.31352" lon="4.97201">
        <ele>397</ele>
        <time>2012-09-15T06:26:31Z</time>
      </trkpt>
      <trkpt lat="47.31346" lon="4.97199">
        <ele>397</ele>
        <time>2012-09-15T06:26:34Z</time>
      </trkpt>
      <trkpt lat="47.3134" lon="4.97198">
        <ele>396</ele>
        <time>2012-09-15T06:26:35Z</time>
      </trkpt>
      <trkpt lat="47.31335" lon="4.97198">
        <ele>395</ele>
        <time>2012-09-15T06:26:37Z</time>
      </trkpt>
      <trkpt lat="47.31329" lon="4.97197">
        <ele>396</ele>
        <time>2012-09-15T06:26:41Z</time>
      </trkpt>
      <trkpt lat="47.31323" lon="4.97198">
        <ele>395</ele>
        <time>2012-09-15T06:26:44Z</time>
      </trkpt>
      <trkpt lat="47.31318" lon="4.97198">
        <ele>396</ele>
        <time>2012-09-15T06:26:46Z</time>
      </trkpt>
      <trkpt lat="47.31313" lon="4.97192">
        <ele>396</ele>
        <time>2012-09-15T06:26:49Z</time>
      </trkpt>
      <trkpt lat="47.31308" lon="4.97193">
        <ele>397</ele>
        <time>2012-09-15T06:26:52Z</time>
      </trkpt>
      <trkpt lat="47.31302" lon="4.97197">
        <ele>397</ele>
        <time>2012-09-15T06:26:56Z</time>
      </trkpt>
      <trkpt lat="47.31296" lon="4.972">
        <ele>397</ele>
        <time>2012-09-15T06:27:00Z</time>
      </trkpt>
      <trkpt lat="47.31291" lon="4.972">
        <ele>398</ele>
        <time>2012-09-15T06:27:03Z</time>
      </trkpt>
      <trkpt lat="47.31286" lon="4.97202">
        <ele>397</ele>
        <time>2012-09-15T06:27:05Z</time>
      </trkpt>
      <trkpt lat="47.31281" lon="4.97199">
        <ele>395</ele>
        <time>2012-09-15T06:27:08Z</time>
      </trkpt>
      <trkpt lat="47.31276" lon="4.97198">
        <ele>395</ele>
        <time>2012-09-15T06:27:12Z</time>
      </trkpt>
      <trkpt lat="47.31271" lon="4.97196">
        <ele>394</ele>
        <time>2012-09-15T06:27:17Z</time>
      </trkpt>
      <trkpt lat="47.31268" lon="4.9719">
        <ele>395</ele>
        <time>2012-09-15T06:27:21Z</time>
      </trkpt>
      <trkpt lat="47.31266" lon="4.97182">
        <ele>396</ele>
        <time>2012-09-15T06:27:24Z</time>
      </trkpt>
      <trkpt lat="47.31262" lon="4.9718">
        <ele>395</ele>
        <time>2012-09-15T06:27:27Z</time>
      </trkpt>
      <trkpt lat="47.31256" lon="4.97183">
        <ele>396</ele>
        <time>2012-09-15T06:27:30Z</time>
      </trkpt>
      <trkpt lat="47.31254" lon="4.97177">
        <ele>397</ele>
        <time>2012-09-15T06:27:33Z</time>
      </trkpt>
      <trkpt lat="47.3125" lon="4.97172">
        <ele>395</ele>
        <time>2012-09-15T06:27:36Z</time>
      </trkpt>
      <trkpt lat="47.31247" lon="4.97164">
        <ele>394</ele>
        <time>2012-09-15T06:27:39Z</time>
      </trkpt>
      <trkpt lat="47.31243" lon="4.9716">
        <ele>395</ele>
        <time>2012-09-15T06:27:45Z</time>
      </trkpt>
      <trkpt lat="47.31239" lon="4.97153">
        <ele>396</ele>
        <time>2012-09-15T06:27:50Z</time>
      </trkpt>
      <trkpt lat="47.31234" lon="4.97154">
        <ele>397</ele>
        <time>2012-09-15T06:27:53Z</time>
      </trkpt>
      <trkpt lat="47.3123" lon="4.97156">
        <ele>398</ele>
        <time>2012-09-15T06:27:55Z</time>
      </trkpt>
      <trkpt lat="47.31224" lon="4.97156">
        <ele>398</ele>
        <time>2012-09-15T06:27:57Z</time>
      </trkpt>
      <trkpt lat="47.31219" lon="4.97155">
        <ele>400</ele>
        <time>2012-09-15T06:28:00Z</time>
      </trkpt>
      <trkpt lat="47.31216" lon="4.97151">
        <ele>401</ele>
        <time>2012-09-15T06:28:03Z</time>
      </trkpt>
      <trkpt lat="47.31211" lon="4.97146">
        <ele>401</ele>
        <time>2012-09-15T06:28:07Z</time>
      </trkpt>
      <trkpt lat="47.31211" lon="4.97138">
        <ele>401</ele>
        <time>2012-09-15T06:28:09Z</time>
      </trkpt>
      <trkpt lat="47.31211" lon="4.97131">
        <ele>401</ele>
        <time>2012-09-15T06:28:11Z</time>
      </trkpt>
      <trkpt lat="47.3121" lon="4.97124">
        <ele>401</ele>
        <time>2012-09-15T06:28:15Z</time>
      </trkpt>
      <trkpt lat="47.31206" lon="4.97118">
        <ele>405</ele>
        <time>2012-09-15T06:28:20Z</time>
      </trkpt>
      <trkpt lat="47.31205" lon="4.9711">
        <ele>405</ele>
        <time>2012-09-15T06:28:24Z</time>
      </trkpt>
      <trkpt lat="47.31204" lon="4.97102">
        <ele>405</ele>
        <time>2012-09-15T06:28:28Z</time>
      </trkpt>
      <trkpt lat="47.31203" lon="4.97093">
        <ele>406</ele>
        <time>2012-09-15T06:28:31Z</time>
      </trkpt>
      <trkpt lat="47.31203" lon="4.97081">
        <ele>405</ele>
        <time>2012-09-15T06:28:34Z</time>
      </trkpt>
      <trkpt lat="47.31199" lon="4.97076">
        <ele>406</ele>
        <time>2012-09-15T06:28:39Z</time>
      </trkpt>
      <trkpt lat="47.31196" lon="4.97071">
        <ele>407</ele>
        <time>2012-09-15T06:28:42Z</time>
      </trkpt>
      <trkpt lat="47.31194" lon="4.97064">
        <ele>408</ele>
        <time>2012-09-15T06:28:45Z</time>
      </trkpt>
      <trkpt lat="47.31192" lon="4.97057">
        <ele>408</ele>
        <time>2012-09-15T06:28:48Z</time>
      </trkpt>
      <trkpt lat="47.31191" lon="4.97049">
        <ele>408</ele>
        <time>2012-09-15T06:28:50Z</time>
      </trkpt>
      <trkpt lat="47.31186" lon="4.97049">
        <ele>409</ele>
        <time>2012-09-15T06:28:53Z</time>
      </trkpt>
      <trkpt lat="47.3118" lon="4.97047">
        <ele>410</ele>
        <time>2012-09-15T06:28:57Z</time>
      </trkpt>
      <trkpt lat="47.31179" lon="4.97039">
        <ele>410</ele>
        <time>2012-09-15T06:29:00Z</time>
      </trkpt>
      <trkpt lat="47.31177" lon="4.9703">
        <ele>410</ele>
        <time>2012-09-15T06:29:03Z</time>
      </trkpt>
      <trkpt lat="47.31173" lon="4.97028">
        <ele>409</ele>
        <time>2012-09-15T06:29:07Z</time>
      </trkpt>
      <trkpt lat="47.3117" lon="4.97021">
        <ele>406</ele>
        <time>2012-09-15T06:29:12Z</time>
      </trkpt>
      <trkpt lat="47.31166" lon="4.97017">
        <ele>407</ele>
        <time>2012-09-15T06:29:15Z</time>
      </trkpt>
      <trkpt lat="47.31162" lon="4.97007">
        <ele>407</ele>
        <time>2012-09-15T06:29:19Z</time>
      </trkpt>
      <trkpt lat="47.31159" lon="4.97002">
        <ele>406</ele>
        <time>2012-09-15T06:29:23Z</time>
      </trkpt>
      <trkpt lat="47.31154" lon="4.97">
        <ele>405</ele>
        <time>2012-09-15T06:29:28Z</time>
      </trkpt>
      <trkpt lat="47.31148" lon="4.97001">
        <ele>406</ele>
        <time>2012-09-15T06:29:31Z</time>
      </trkpt>
      <trkpt lat="47.31144" lon="4.96998">
        <ele>407</ele>
        <time>2012-09-15T06:29:35Z</time>
      </trkpt>
      <trkpt lat="47.31139" lon="4.96998">
        <ele>409</ele>
        <time>2012-09-15T06:29:39Z</time>
      </trkpt>
      <trkpt lat="47.31134" lon="4.96996">
        <ele>407</ele>
        <time>2012-09-15T06:29:43Z</time>
      </trkpt>
      <trkpt lat="47.31129" lon="4.96994">
        <ele>407</ele>
        <time>2012-09-15T06:29:49Z</time>
      </trkpt>
      <trkpt lat="47.31123" lon="4.96993">
        <ele>406</ele>
        <time>2012-09-15T06:29:54Z</time>
      </trkpt>
      <trkpt lat="47.31118" lon="4.96993">
        <ele>405</ele>
        <time>2012-09-15T06:29:57Z</time>
      </trkpt>
      <trkpt lat="47.31112" lon="4.96994">
        <ele>405</ele>
        <time>2012-09-15T06:30:04Z</time>
      </trkpt>
      <trkpt lat="47.31107" lon="4.96999">
        <ele>404</ele>
        <time>2012-09-15T06:30:07Z</time>
      </trkpt>
      <trkpt lat="47.31107" lon="4.96999">
        <ele>404</ele>
        <time>2012-09-15T06:30:07Z</time>
      </trkpt>
      <trkpt lat="47.31107" lon="4.96999">
        <ele>404</ele>
        <time>2012-09-15T06:30:08Z</time>
      </trkpt>
      <trkpt lat="47.31102" lon="4.97003">
        <ele>404</ele>
        <time>2012-09-15T06:30:10Z</time>
      </trkpt>
      <trkpt lat="47.31097" lon="4.97005">
        <ele>403</ele>
        <time>2012-09-15T06:30:12Z</time>
      </trkpt>
      <trkpt lat="47.31092" lon="4.9701">
        <ele>402</ele>
        <time>2012-09-15T06:30:19Z</time>
      </trkpt>
      <trkpt lat="47.31087" lon="4.97014">
        <ele>402</ele>
        <time>2012-09-15T06:30:22Z</time>
      </trkpt>
      <trkpt lat="47.31084" lon="4.97018">
        <ele>401</ele>
        <time>2012-09-15T06:30:25Z</time>
      </trkpt>
      <trkpt lat="47.31076" lon="4.97027">
        <ele>403</ele>
        <time>2012-09-15T06:30:30Z</time>
      </trkpt>
      <trkpt lat="47.31068" lon="4.97034">
        <ele>402</ele>
        <time>2012-09-15T06:30:36Z</time>
      </trkpt>
      <trkpt lat="47.31063" lon="4.97038">
        <ele>402</ele>
        <time>2012-09-15T06:30:37Z</time>
      </trkpt>
      <trkpt lat="47.31057" lon="4.97044">
        <ele>403</ele>
        <time>2012-09-15T06:30:39Z</time>
      </trkpt>
      <trkpt lat="47.3105" lon="4.97046">
        <ele>403</ele>
        <time>2012-09-15T06:30:43Z</time>
      </trkpt>
      <trkpt lat="47.31043" lon="4.97045">
        <ele>403</ele>
        <time>2012-09-15T06:30:47Z</time>
      </trkpt>
      <trkpt lat="47.31037" lon="4.97048">
        <ele>401</ele>
        <time>2012-09-15T06:30:49Z</time>
      </trkpt>
      <trkpt lat="47.31037" lon="4.97039">
        <ele>398</ele>
        <time>2012-09-15T06:30:57Z</time>
      </trkpt>
      <trkpt lat="47.31036" lon="4.97032">
        <ele>398</ele>
        <time>2012-09-15T06:31:01Z</time>
      </trkpt>
      <trkpt lat="47.31037" lon="4.97024">
        <ele>398</ele>
        <time>2012-09-15T06:31:05Z</time>
      </trkpt>
      <trkpt lat="47.3104" lon="4.97018">
        <ele>397</ele>
        <time>2012-09-15T06:31:07Z</time>
      </trkpt>
      <trkpt lat="47.31041" lon="4.97011">
        <ele>398</ele>
        <time>2012-09-15T06:31:12Z</time>
      </trkpt>
      <trkpt lat="47.31043" lon="4.97005">
        <ele>399</ele>
        <time>2012-09-15T06:31:16Z</time>
      </trkpt>
      <trkpt lat="47.31047" lon="4.96999">
        <ele>399</ele>
        <time>2012-09-15T06:31:18Z</time>
      </trkpt>
      <trkpt lat="47.31051" lon="4.96991">
        <ele>397</ele>
        <time>2012-09-15T06:31:21Z</time>
      </trkpt>
      <trkpt lat="47.31056" lon="4.96989">
        <ele>395</ele>
        <time>2012-09-15T06:31:23Z</time>
      </trkpt>
      <trkpt lat="47.31059" lon="4.96983">
        <ele>396</ele>
        <time>2012-09-15T06:31:26Z</time>
      </trkpt>
      <trkpt lat="47.31062" lon="4.96976">
        <ele>396</ele>
        <time>2012-09-15T06:31:29Z</time>
      </trkpt>
      <trkpt lat="47.31067" lon="4.96971">
        <ele>396</ele>
        <time>2012-09-15T06:31:32Z</time>
      </trkpt>
      <trkpt lat="47.31072" lon="4.96971">
        <ele>396</ele>
        <time>2012-09-15T06:31:35Z</time>
      </trkpt>
      <trkpt lat="47.31077" lon="4.9697">
        <ele>395</ele>
        <time>2012-09-15T06:31:38Z</time>
      </trkpt>
      <trkpt lat="47.3108" lon="4.96961">
        <ele>395</ele>
        <time>2012-09-15T06:31:44Z</time>
      </trkpt>
      <trkpt lat="47.31086" lon="4.96958">
        <ele>394</ele>
        <time>2012-09-15T06:31:48Z</time>
      </trkpt>
      <trkpt lat="47.3109" lon="4.96954">
        <ele>394</ele>
        <time>2012-09-15T06:31:50Z</time>
      </trkpt>
      <trkpt lat="47.31094" lon="4.9695">
        <ele>397</ele>
        <time>2012-09-15T06:31:55Z</time>
      </trkpt>
      <trkpt lat="47.31098" lon="4.96943">
        <ele>398</ele>
        <time>2012-09-15T06:31:59Z</time>
      </trkpt>
      <trkpt lat="47.31102" lon="4.96939">
        <ele>398</ele>
        <time>2012-09-15T06:32:03Z</time>
      </trkpt>
      <trkpt lat="47.31104" lon="4.96933">
        <ele>398</ele>
        <time>2012-09-15T06:32:06Z</time>
      </trkpt>
      <trkpt lat="47.31105" lon="4.96927">
        <ele>398</ele>
        <time>2012-09-15T06:32:09Z</time>
      </trkpt>
      <trkpt lat="47.3111" lon="4.96926">
        <ele>397</ele>
        <time>2012-09-15T06:32:10Z</time>
      </trkpt>
      <trkpt lat="47.31117" lon="4.96927">
        <ele>397</ele>
        <time>2012-09-15T06:32:11Z</time>
      </trkpt>
      <trkpt lat="47.31121" lon="4.96923">
        <ele>396</ele>
        <time>2012-09-15T06:32:15Z</time>
      </trkpt>
      <trkpt lat="47.31127" lon="4.96924">
        <ele>396</ele>
        <time>2012-09-15T06:32:18Z</time>
      </trkpt>
      <trkpt lat="47.31132" lon="4.96923">
        <ele>396</ele>
        <time>2012-09-15T06:32:22Z</time>
      </trkpt>
      <trkpt lat="47.31136" lon="4.96918">
        <ele>395</ele>
        <time>2012-09-15T06:32:28Z</time>
      </trkpt>
      <trkpt lat="47.31139" lon="4.96911">
        <ele>395</ele>
        <time>2012-09-15T06:32:30Z</time>
      </trkpt>
      <trkpt lat="47.31141" lon="4.96904">
        <ele>394</ele>
        <time>2012-09-15T06:32:33Z</time>
      </trkpt>
      <trkpt lat="47.31145" lon="4.96906">
        <ele>391</ele>
        <time>2012-09-15T06:32:35Z</time>
      </trkpt>
      <trkpt lat="47.3115" lon="4.96905">
        <ele>391</ele>
        <time>2012-09-15T06:32:38Z</time>
      </trkpt>
      <trkpt lat="47.31155" lon="4.96906">
        <ele>389</ele>
        <time>2012-09-15T06:32:41Z</time>
      </trkpt>
      <trkpt lat="47.3116" lon="4.96906">
        <ele>389</ele>
        <time>2012-09-15T06:32:44Z</time>
      </trkpt>
      <trkpt lat="47.31165" lon="4.96904">
        <ele>389</ele>
        <time>2012-09-15T06:32:48Z</time>
      </trkpt>
      <trkpt lat="47.31169" lon="4.969">
        <ele>388</ele>
        <time>2012-09-15T06:32:52Z</time>
      </trkpt>
      <trkpt lat="47.31178" lon="4.969">
        <ele>387</ele>
        <time>2012-09-15T06:32:57Z</time>
      </trkpt>
      <trkpt lat="47.31184" lon="4.969">
        <ele>387</ele>
        <time>2012-09-15T06:33:00Z</time>
      </trkpt>
      <trkpt lat="47.31189" lon="4.96897">
        <ele>386</ele>
        <time>2012-09-15T06:33:05Z</time>
      </trkpt>
      <trkpt lat="47.31194" lon="4.96898">
        <ele>385</ele>
        <time>2012-09-15T06:33:07Z</time>
      </trkpt>
      <trkpt lat="47.31199" lon="4.96898">
        <ele>384</ele>
        <time>2012-09-15T06:33:10Z</time>
      </trkpt>
      <trkpt lat="47.31204" lon="4.96901">
        <ele>383</ele>
        <time>2012-09-15T06:33:13Z</time>
      </trkpt>
      <trkpt lat="47.31209" lon="4.96901">
        <ele>383</ele>
        <time>2012-09-15T06:33:18Z</time>
      </trkpt>
      <trkpt lat="47.31216" lon="4.96902">
        <ele>380</ele>
        <time>2012-09-15T06:33:21Z</time>
      </trkpt>
      <trkpt lat="47.3122" lon="4.96904">
        <ele>379</ele>
        <time>2012-09-15T06:33:25Z</time>
      </trkpt>
      <trkpt lat="47.31225" lon="4.96907">
        <ele>378</ele>
        <time>2012-09-15T06:33:28Z</time>
      </trkpt>
      <trkpt lat="47.31229" lon="4.9691">
        <ele>377</ele>
        <time>2012-09-15T06:33:31Z</time>
      </trkpt>
      <trkpt lat="47.31234" lon="4.96913">
        <ele>377</ele>
        <time>2012-09-15T06:33:35Z</time>
      </trkpt>
      <trkpt lat="47.31239" lon="4.96917">
        <ele>377</ele>
        <time>2012-09-15T06:33:38Z</time>
      </trkpt>
      <trkpt lat="47.31243" lon="4.9692">
        <ele>377</ele>
        <time>2012-09-15T06:33:41Z</time>
      </trkpt>
      <trkpt lat="47.31247" lon="4.96917">
        <ele>377</ele>
        <time>2012-09-15T06:33:45Z</time>
      </trkpt>
      <trkpt lat="47.31251" lon="4.96915">
        <ele>376</ele>
        <time>2012-09-15T06:33:50Z</time>
      </trkpt>
      <trkpt lat="47.31257" lon="4.96914">
        <ele>377</ele>
        <time>2012-09-15T06:33:53Z</time>
      </trkpt>
      <trkpt lat="47.31262" lon="4.96918">
        <ele>376</ele>
        <time>2012-09-15T06:33:56Z</time>
      </trkpt>
      <trkpt lat="47.31265" lon="4.96925">
        <ele>375</ele>
        <time>2012-09-15T06:33:58Z</time>
      </trkpt>
      <trkpt lat="47.31267" lon="4.96932">
        <ele>374</ele>
        <time>2012-09-15T06:34:01Z</time>
      </trkpt>
      <trkpt lat="47.31271" lon="4.96938">
        <ele>375</ele>
        <time>2012-09-15T06:34:05Z</time>
      </trkpt>
      <trkpt lat="47.31275" lon="4.96944">
        <ele>375</ele>
        <time>2012-09-15T06:34:09Z</time>
      </trkpt>
      <trkpt lat="47.31279" lon="4.96948">
        <ele>375</ele>
        <time>2012-09-15T06:34:12Z</time>
      </trkpt>
      <trkpt lat="47.31282" lon="4.96953">
        <ele>375</ele>
        <time>2012-09-15T06:34:15Z</time>
      </trkpt>
      <trkpt lat="47.31287" lon="4.96957">
        <ele>374</ele>
        <time>2012-09-15T06:34:18Z</time>
      </trkpt>
      <trkpt lat="47.31291" lon="4.96959">
        <ele>373</ele>
        <time>2012-09-15T06:34:21Z</time>
      </trkpt>
      <trkpt lat="47.31295" lon="4.9696">
        <ele>373</ele>
        <time>2012-09-15T06:34:24Z</time>
      </trkpt>
      <trkpt lat="47.313" lon="4.96965">
        <ele>373</ele>
        <time>2012-09-15T06:34:28Z</time>
      </trkpt>
      <trkpt lat="47.31303" lon="4.9697">
        <ele>373</ele>
        <time>2012-09-15T06:34:31Z</time>
      </trkpt>
      <trkpt lat="47.31308" lon="4.96973">
        <ele>372</ele>
        <time>2012-09-15T06:34:35Z</time>
      </trkpt>
      <trkpt lat="47.31313" lon="4.96978">
        <ele>371</ele>
        <time>2012-09-15T06:34:39Z</time>
      </trkpt>
      <trkpt lat="47.31315" lon="4.96984">
        <ele>372</ele>
        <time>2012-09-15T06:34:42Z</time>
      </trkpt>
      <trkpt lat="47.31318" lon="4.9699">
        <ele>373</ele>
        <time>2012-09-15T06:34:45Z</time>
      </trkpt>
      <trkpt lat="47.31321" lon="4.96996">
        <ele>372</ele>
        <time>2012-09-15T06:34:48Z</time>
      </trkpt>
      <trkpt lat="47.31326" lon="4.96997">
        <ele>370</ele>
        <time>2012-09-15T06:34:51Z</time>
      </trkpt>
      <trkpt lat="47.3133" lon="4.97002">
        <ele>370</ele>
        <time>2012-09-15T06:34:55Z</time>
      </trkpt>
      <trkpt lat="47.31332" lon="4.97008">
        <ele>369</ele>
        <time>2012-09-15T06:34:59Z</time>
      </trkpt>
      <trkpt lat="47.31333" lon="4.97017">
        <ele>370</ele>
        <time>2012-09-15T06:35:02Z</time>
      </trkpt>
      <trkpt lat="47.31332" lon="4.97024">
        <ele>371</ele>
        <time>2012-09-15T06:35:07Z</time>
      </trkpt>
      <trkpt lat="47.31334" lon="4.9703">
        <ele>371</ele>
        <time>2012-09-15T06:35:12Z</time>
      </trkpt>
      <trkpt lat="47.31337" lon="4.97035">
        <ele>370</ele>
        <time>2012-09-15T06:35:17Z</time>
      </trkpt>
      <trkpt lat="47.31339" lon="4.97042">
        <ele>368</ele>
        <time>2012-09-15T06:35:26Z</time>
      </trkpt>
      <trkpt lat="47.31344" lon="4.97043">
        <ele>369</ele>
        <time>2012-09-15T06:35:33Z</time>
      </trkpt>
      <trkpt lat="47.31348" lon="4.97037">
        <ele>371</ele>
        <time>2012-09-15T06:35:37Z</time>
      </trkpt>
      <trkpt lat="47.31352" lon="4.97033">
        <ele>369</ele>
        <time>2012-09-15T06:35:41Z</time>
      </trkpt>
      <trkpt lat="47.31356" lon="4.97028">
        <ele>370</ele>
        <time>2012-09-15T06:35:44Z</time>
      </trkpt>
      <trkpt lat="47.31358" lon="4.97022">
        <ele>369</ele>
        <time>2012-09-15T06:35:47Z</time>
      </trkpt>
      <trkpt lat="47.31362" lon="4.97014">
        <ele>371</ele>
        <time>2012-09-15T06:35:51Z</time>
      </trkpt>
      <trkpt lat="47.31367" lon="4.97011">
        <ele>370</ele>
        <time>2012-09-15T06:35:55Z</time>
      </trkpt>
      <trkpt lat="47.3137" lon="4.97005">
        <ele>367</ele>
        <time>2012-09-15T06:35:58Z</time>
      </trkpt>
      <trkpt lat="47.31374" lon="4.97">
        <ele>364</ele>
        <time>2012-09-15T06:36:02Z</time>
      </trkpt>
      <trkpt lat="47.31374" lon="4.97">
        <ele>364</ele>
        <time>2012-09-15T06:36:02Z</time>
      </trkpt>
      <trkpt lat="47.31374" lon="4.97">
        <ele>364</ele>
        <time>2012-09-15T06:36:03Z</time>
      </trkpt>
      <trkpt lat="47.31379" lon="4.97005">
        <ele>361</ele>
        <time>2012-09-15T06:36:06Z</time>
      </trkpt>
      <trkpt lat="47.31383" lon="4.97005">
        <ele>362</ele>
        <time>2012-09-15T06:36:10Z</time>
      </trkpt>
      <trkpt lat="47.31389" lon="4.97004">
        <ele>362</ele>
        <time>2012-09-15T06:36:15Z</time>
      </trkpt>
      <trkpt lat="47.31394" lon="4.97003">
        <ele>362</ele>
        <time>2012-09-15T06:36:18Z</time>
      </trkpt>
      <trkpt lat="47.31399" lon="4.97">
        <ele>364</ele>
        <time>2012-09-15T06:36:22Z</time>
      </trkpt>
      <trkpt lat="47.31405" lon="4.97">
        <ele>364</ele>
        <time>2012-09-15T06:36:27Z</time>
      </trkpt>
      <trkpt lat="47.31409" lon="4.96996">
        <ele>365</ele>
        <time>2012-09-15T06:36:32Z</time>
      </trkpt>
      <trkpt lat="47.31412" lon="4.96991">
        <ele>368</ele>
        <time>2012-09-15T06:36:39Z</time>
      </trkpt>
      <trkpt lat="47.31417" lon="4.96986">
        <ele>371</ele>
        <time>2012-09-15T06:36:47Z</time>
      </trkpt>
      <trkpt lat="47.3142" lon="4.96982">
        <ele>373</ele>
        <time>2012-09-15T06:36:53Z</time>
      </trkpt>
      <trkpt lat="47.31425" lon="4.96979">
        <ele>376</ele>
        <time>2012-09-15T06:37:02Z</time>
      </trkpt>
      <trkpt lat="47.31428" lon="4.96975">
        <ele>378</ele>
        <time>2012-09-15T06:37:12Z</time>
      </trkpt>
      <trkpt lat="47.31433" lon="4.96973">
        <ele>382</ele>
        <time>2012-09-15T06:37:21Z</time>
      </trkpt>
      <trkpt lat="47.31436" lon="4.96968">
        <ele>384</ele>
        <time>2012-09-15T06:37:29Z</time>
      </trkpt>
      <trkpt lat="47.31441" lon="4.96963">
        <ele>387</ele>
        <time>2012-09-15T06:37:37Z</time>
      </trkpt>
      <trkpt lat="47.31444" lon="4.96959">
        <ele>390</ele>
        <time>2012-09-15T06:37:46Z</time>
      </trkpt>
      <trkpt lat="47.31449" lon="4.96958">
        <ele>391</ele>
        <time>2012-09-15T06:37:53Z</time>
      </trkpt>
      <trkpt lat="47.31453" lon="4.96955">
        <ele>391</ele>
        <time>2012-09-15T06:37:58Z</time>
      </trkpt>
      <trkpt lat="47.31455" lon="4.96948">
        <ele>393</ele>
        <time>2012-09-15T06:38:04Z</time>
      </trkpt>
      <trkpt lat="47.31459" lon="4.96945">
        <ele>396</ele>
        <time>2012-09-15T06:38:12Z</time>
      </trkpt>
      <trkpt lat="47.31463" lon="4.9694">
        <ele>398</ele>
        <time>2012-09-15T06:38:20Z</time>
      </trkpt>
      <trkpt lat="47.31466" lon="4.96936">
        <ele>402</ele>
        <time>2012-09-15T06:38:29Z</time>
      </trkpt>
      <trkpt lat="47.3147" lon="4.96931">
        <ele>402</ele>
        <time>2012-09-15T06:38:35Z</time>
      </trkpt>
      <trkpt lat="47.31472" lon="4.96925">
        <ele>401</ele>
        <time>2012-09-15T06:38:39Z</time>
      </trkpt>
      <trkpt lat="47.31475" lon="4.96919">
        <ele>401</ele>
        <time>2012-09-15T06:38:45Z</time>
      </trkpt>
      <trkpt lat="47.31475" lon="4.96919">
        <ele>401</ele>
        <time>2012-09-15T06:38:45Z</time>
      </trkpt>
      <trkpt lat="47.31475" lon="4.96919">
        <ele>401</ele>
        <time>2012-09-15T06:38:49Z</time>
      </trkpt>
      <trkpt lat="47.31479" lon="4.96919">
        <ele>400</ele>
        <time>2012-09-15T06:39:03Z</time>
      </trkpt>
      <trkpt lat="47.31479" lon="4.96919">
        <ele>400</ele>
        <time>2012-09-15T06:39:03Z</time>
      </trkpt>
      <trkpt lat="47.31479" lon="4.96919">
        <ele>400</ele>
        <time>2012-09-15T06:39:56Z</time>
      </trkpt>
      <trkpt lat="47.31483" lon="4.96923">
        <ele>400</ele>
        <time>2012-09-15T06:40:36Z</time>
      </trkpt>
      <trkpt lat="47.31486" lon="4.96917">
        <ele>400</ele>
        <time>2012-09-15T06:41:05Z</time>
      </trkpt>
      <trkpt lat="47.31482" lon="4.9692">
        <ele>398</ele>
        <time>2012-09-15T06:41:30Z</time>
      </trkpt>
      <trkpt lat="47.31482" lon="4.9692">
        <ele>398</ele>
        <time>2012-09-15T06:41:30Z</time>
      </trkpt>
      <trkpt lat="47.31482" lon="4.9692">
        <ele>398</ele>
        <time>2012-09-15T06:41:37Z</time>
      </trkpt>
      <trkpt lat="47.31482" lon="4.96928">
        <ele>403</ele>
        <time>2012-09-15T06:41:46Z</time>
      </trkpt>
      <trkpt lat="47.31479" lon="4.96933">
        <ele>402</ele>
        <time>2012-09-15T06:41:53Z</time>
      </trkpt>
      <trkpt lat="47.31477" lon="4.9694">
        <ele>401</ele>
        <time>2012-09-15T06:41:57Z</time>
      </trkpt>
      <trkpt lat="47.31479" lon="4.96947">
        <ele>399</ele>
        <time>2012-09-15T06:42:04Z</time>
      </trkpt>
      <trkpt lat="47.31483" lon="4.96953">
        <ele>396</ele>
        <time>2012-09-15T06:42:07Z</time>
      </trkpt>
      <trkpt lat="47.31488" lon="4.96955">
        <ele>394</ele>
        <time>2012-09-15T06:42:12Z</time>
      </trkpt>
      <trkpt lat="47.31493" lon="4.96954">
        <ele>395</ele>
        <time>2012-09-15T06:42:17Z</time>
      </trkpt>
      <trkpt lat="47.31497" lon="4.96949">
        <ele>396</ele>
        <time>2012-09-15T06:42:22Z</time>
      </trkpt>
      <trkpt lat="47.315" lon="4.96944">
        <ele>395</ele>
        <time>2012-09-15T06:42:28Z</time>
      </trkpt>
      <trkpt lat="47.31504" lon="4.96939">
        <ele>395</ele>
        <time>2012-09-15T06:42:33Z</time>
      </trkpt>
      <trkpt lat="47.31507" lon="4.96934">
        <ele>398</ele>
        <time>2012-09-15T06:42:38Z</time>
      </trkpt>
      <trkpt lat="47.3151" lon="4.96928">
        <ele>399</ele>
        <time>2012-09-15T06:42:42Z</time>
      </trkpt>
      <trkpt lat="47.31515" lon="4.96925">
        <ele>400</ele>
        <time>2012-09-15T06:42:46Z</time>
      </trkpt>
      <trkpt lat="47.31519" lon="4.9692">
        <ele>401</ele>
        <time>2012-09-15T06:42:50Z</time>
      </trkpt>
      <trkpt lat="47.31521" lon="4.96914">
        <ele>403</ele>
        <time>2012-09-15T06:42:57Z</time>
      </trkpt>
      <trkpt lat="47.31527" lon="4.96916">
        <ele>402</ele>
        <time>2012-09-15T06:43:03Z</time>
      </trkpt>
      <trkpt lat="47.31531" lon="4.96919">
        <ele>401</ele>
        <time>2012-09-15T06:43:07Z</time>
      </trkpt>
      <trkpt lat="47.31532" lon="4.96912">
        <ele>399</ele>
        <time>2012-09-15T06:43:11Z</time>
      </trkpt>
      <trkpt lat="47.31535" lon="4.96906">
        <ele>398</ele>
        <time>2012-09-15T06:43:15Z</time>
      </trkpt>
      <trkpt lat="47.31539" lon="4.96902">
        <ele>399</ele>
        <time>2012-09-15T06:43:19Z</time>
      </trkpt>
      <trkpt lat="47.31542" lon="4.96896">
        <ele>399</ele>
        <time>2012-09-15T06:43:23Z</time>
      </trkpt>
      <trkpt lat="47.31545" lon="4.96891">
        <ele>402</ele>
        <time>2012-09-15T06:43:34Z</time>
      </trkpt>
      <trkpt lat="47.31548" lon="4.96886">
        <ele>403</ele>
        <time>2012-09-15T06:43:40Z</time>
      </trkpt>
      <trkpt lat="47.31552" lon="4.96882">
        <ele>403</ele>
        <time>2012-09-15T06:43:44Z</time>
      </trkpt>
      <trkpt lat="47.31557" lon="4.96879">
        <ele>404</ele>
        <time>2012-09-15T06:43:51Z</time>
      </trkpt>
      <trkpt lat="47.3156" lon="4.96884">
        <ele>405</ele>
        <time>2012-09-15T06:44:25Z</time>
      </trkpt>
      <trkpt lat="47.3156" lon="4.96884">
        <ele>405</ele>
        <time>2012-09-15T06:44:25Z</time>
      </trkpt>
      <trkpt lat="47.3156" lon="4.96884">
        <ele>406</ele>
        <time>2012-09-15T06:44:31Z</time>
      </trkpt>
      <trkpt lat="47.31559" lon="4.9689">
        <ele>402</ele>
        <time>2012-09-15T06:44:41Z</time>
      </trkpt>
      <trkpt lat="47.31559" lon="4.9689">
        <ele>402</ele>
        <time>2012-09-15T06:44:41Z</time>
      </trkpt>
      <trkpt lat="47.31559" lon="4.9689">
        <ele>402</ele>
        <time>2012-09-15T06:44:44Z</time>
      </trkpt>
      <trkpt lat="47.31558" lon="4.96897">
        <ele>398</ele>
        <time>2012-09-15T06:44:55Z</time>
      </trkpt>
      <trkpt lat="47.31556" lon="4.96904">
        <ele>397</ele>
        <time>2012-09-15T06:44:59Z</time>
      </trkpt>
      <trkpt lat="47.31554" lon="4.96911">
        <ele>394</ele>
        <time>2012-09-15T06:45:03Z</time>
      </trkpt>
      <trkpt lat="47.31555" lon="4.96919">
        <ele>393</ele>
        <time>2012-09-15T06:45:07Z</time>
      </trkpt>
      <trkpt lat="47.31554" lon="4.96927">
        <ele>392</ele>
        <time>2012-09-15T06:45:10Z</time>
      </trkpt>
      <trkpt lat="47.31554" lon="4.96936">
        <ele>392</ele>
        <time>2012-09-15T06:45:15Z</time>
      </trkpt>
      <trkpt lat="47.31554" lon="4.96947">
        <ele>389</ele>
        <time>2012-09-15T06:45:23Z</time>
      </trkpt>
      <trkpt lat="47.31556" lon="4.96955">
        <ele>390</ele>
        <time>2012-09-15T06:45:29Z</time>
      </trkpt>
      <trkpt lat="47.31557" lon="4.96962">
        <ele>390</ele>
        <time>2012-09-15T06:45:31Z</time>
      </trkpt>
      <trkpt lat="47.31556" lon="4.96971">
        <ele>389</ele>
        <time>2012-09-15T06:45:34Z</time>
      </trkpt>
      <trkpt lat="47.31552" lon="4.96976">
        <ele>388</ele>
        <time>2012-09-15T06:45:39Z</time>
      </trkpt>
      <trkpt lat="47.31552" lon="4.96984">
        <ele>381</ele>
        <time>2012-09-15T06:45:45Z</time>
      </trkpt>
      <trkpt lat="47.3155" lon="4.96992">
        <ele>381</ele>
        <time>2012-09-15T06:45:49Z</time>
      </trkpt>
      <trkpt lat="47.31553" lon="4.96998">
        <ele>382</ele>
        <time>2012-09-15T06:45:53Z</time>
      </trkpt>
      <trkpt lat="47.31554" lon="4.97005">
        <ele>379</ele>
        <time>2012-09-15T06:45:56Z</time>
      </trkpt>
      <trkpt lat="47.31557" lon="4.97012">
        <ele>379</ele>
        <time>2012-09-15T06:45:59Z</time>
      </trkpt>
      <trkpt lat="47.31557" lon="4.97019">
        <ele>377</ele>
        <time>2012-09-15T06:46:03Z</time>
      </trkpt>
      <trkpt lat="47.31556" lon="4.97028">
        <ele>374</ele>
        <time>2012-09-15T06:46:10Z</time>
      </trkpt>
      <trkpt lat="47.31553" lon="4.97036">
        <ele>372</ele>
        <time>2012-09-15T06:46:14Z</time>
      </trkpt>
      <trkpt lat="47.31552" lon="4.97044">
        <ele>372</ele>
        <time>2012-09-15T06:46:17Z</time>
      </trkpt>
      <trkpt lat="47.3155" lon="4.9705">
        <ele>373</ele>
        <time>2012-09-15T06:46:19Z</time>
      </trkpt>
      <trkpt lat="47.31552" lon="4.97055">
        <ele>375</ele>
        <time>2012-09-15T06:46:22Z</time>
      </trkpt>
      <trkpt lat="47.31554" lon="4.97064">
        <ele>374</ele>
        <time>2012-09-15T06:46:26Z</time>
      </trkpt>
      <trkpt lat="47.31557" lon="4.97072">
        <ele>371</ele>
        <time>2012-09-15T06:46:29Z</time>
      </trkpt>
      <trkpt lat="47.31557" lon="4.97079">
        <ele>370</ele>
        <time>2012-09-15T06:46:32Z</time>
      </trkpt>
      <trkpt lat="47.31557" lon="4.97079">
        <ele>370</ele>
        <time>2012-09-15T06:46:32Z</time>
      </trkpt>
      <trkpt lat="47.31557" lon="4.97079">
        <ele>369</ele>
        <time>2012-09-15T06:46:33Z</time>
      </trkpt>
      <trkpt lat="47.31554" lon="4.97086">
        <ele>368</ele>
        <time>2012-09-15T06:46:36Z</time>
      </trkpt>
      <trkpt lat="47.31553" lon="4.97094">
        <ele>367</ele>
        <time>2012-09-15T06:46:41Z</time>
      </trkpt>
      <trkpt lat="47.3155" lon="4.971">
        <ele>366</ele>
        <time>2012-09-15T06:46:43Z</time>
      </trkpt>
      <trkpt lat="47.31548" lon="4.97105">
        <ele>366</ele>
        <time>2012-09-15T06:46:44Z</time>
      </trkpt>
      <trkpt lat="47.31544" lon="4.97112">
        <ele>365</ele>
        <time>2012-09-15T06:46:46Z</time>
      </trkpt>
      <trkpt lat="47.31541" lon="4.97118">
        <ele>365</ele>
        <time>2012-09-15T06:46:48Z</time>
      </trkpt>
      <trkpt lat="47.31538" lon="4.97126">
        <ele>365</ele>
        <time>2012-09-15T06:46:51Z</time>
      </trkpt>
      <trkpt lat="47.31538" lon="4.97133">
        <ele>363</ele>
        <time>2012-09-15T06:46:53Z</time>
      </trkpt>
      <trkpt lat="47.31537" lon="4.97143">
        <ele>363</ele>
        <time>2012-09-15T06:46:57Z</time>
      </trkpt>
      <trkpt lat="47.31524" lon="4.97143">
        <ele>360</ele>
        <time>2012-09-15T06:46:59Z</time>
      </trkpt>
      <trkpt lat="47.31519" lon="4.9714">
        <ele>359</ele>
        <time>2012-09-15T06:47:01Z</time>
      </trkpt>
      <trkpt lat="47.31513" lon="4.97143">
        <ele>359</ele>
        <time>2012-09-15T06:47:05Z</time>
      </trkpt>
      <trkpt lat="47.3151" lon="4.97147">
        <ele>360</ele>
        <time>2012-09-15T06:47:08Z</time>
      </trkpt>
      <trkpt lat="47.31502" lon="4.9715">
        <ele>360</ele>
        <time>2012-09-15T06:47:13Z</time>
      </trkpt>
      <trkpt lat="47.31498" lon="4.97154">
        <ele>360</ele>
        <time>2012-09-15T06:47:15Z</time>
      </trkpt>
      <trkpt lat="47.31492" lon="4.97157">
        <ele>361</ele>
        <time>2012-09-15T06:47:18Z</time>
      </trkpt>
      <trkpt lat="47.31488" lon="4.97165">
        <ele>360</ele>
        <time>2012-09-15T06:47:20Z</time>
      </trkpt>
      <trkpt lat="47.31488" lon="4.97153">
        <ele>355</ele>
        <time>2012-09-15T06:47:21Z</time>
      </trkpt>
      <trkpt lat="47.31485" lon="4.97159">
        <ele>353</ele>
        <time>2012-09-15T06:47:29Z</time>
      </trkpt>
      <trkpt lat="47.3148" lon="4.97156">
        <ele>354</ele>
        <time>2012-09-15T06:47:34Z</time>
      </trkpt>
      <trkpt lat="47.31477" lon="4.9715">
        <ele>355</ele>
        <time>2012-09-15T06:47:37Z</time>
      </trkpt>
      <trkpt lat="47.31473" lon="4.97145">
        <ele>355</ele>
        <time>2012-09-15T06:47:40Z</time>
      </trkpt>
      <trkpt lat="47.3147" lon="4.97138">
        <ele>356</ele>
        <time>2012-09-15T06:47:43Z</time>
      </trkpt>
      <trkpt lat="47.31466" lon="4.97133">
        <ele>356</ele>
        <time>2012-09-15T06:47:48Z</time>
      </trkpt>
      <trkpt lat="47.31462" lon="4.97127">
        <ele>357</ele>
        <time>2012-09-15T06:47:51Z</time>
      </trkpt>
      <trkpt lat="47.31461" lon="4.9712">
        <ele>357</ele>
        <time>2012-09-15T06:47:53Z</time>
      </trkpt>
      <trkpt lat="47.31456" lon="4.97122">
        <ele>357</ele>
        <time>2012-09-15T06:47:55Z</time>
      </trkpt>
      <trkpt lat="47.3145" lon="4.97121">
        <ele>357</ele>
        <time>2012-09-15T06:47:58Z</time>
      </trkpt>
      <trkpt lat="47.31444" lon="4.97123">
        <ele>357</ele>
        <time>2012-09-15T06:48:01Z</time>
      </trkpt>
      <trkpt lat="47.31441" lon="4.97118">
        <ele>357</ele>
        <time>2012-09-15T06:48:04Z</time>
      </trkpt>
      <trkpt lat="47.3144" lon="4.97111">
        <ele>354</ele>
        <time>2012-09-15T06:48:06Z</time>
      </trkpt>
      <trkpt lat="47.31436" lon="4.97104">
        <ele>355</ele>
        <time>2012-09-15T06:48:09Z</time>
      </trkpt>
      <trkpt lat="47.31433" lon="4.97097">
        <ele>357</ele>
        <time>2012-09-15T06:48:12Z</time>
      </trkpt>
      <trkpt lat="47.31428" lon="4.97093">
        <ele>356</ele>
        <time>2012-09-15T06:48:15Z</time>
      </trkpt>
      <trkpt lat="47.31423" lon="4.97088">
        <ele>357</ele>
        <time>2012-09-15T06:48:18Z</time>
      </trkpt>
      <trkpt lat="47.31418" lon="4.97086">
        <ele>359</ele>
        <time>2012-09-15T06:48:22Z</time>
      </trkpt>
      <trkpt lat="47.31414" lon="4.9708">
        <ele>359</ele>
        <time>2012-09-15T06:48:26Z</time>
      </trkpt>
      <trkpt lat="47.31411" lon="4.97072">
        <ele>358</ele>
        <time>2012-09-15T06:48:29Z</time>
      </trkpt>
      <trkpt lat="47.31406" lon="4.97071">
        <ele>357</ele>
        <time>2012-09-15T06:48:31Z</time>
      </trkpt>
      <trkpt lat="47.31402" lon="4.97064">
        <ele>359</ele>
        <time>2012-09-15T06:48:35Z</time>
      </trkpt>
      <trkpt lat="47.31398" lon="4.9706">
        <ele>359</ele>
        <time>2012-09-15T06:48:38Z</time>
      </trkpt>
      <trkpt lat="47.31394" lon="4.97056">
        <ele>361</ele>
        <time>2012-09-15T06:48:42Z</time>
      </trkpt>
      <trkpt lat="47.31389" lon="4.97049">
        <ele>360</ele>
        <time>2012-09-15T06:48:45Z</time>
      </trkpt>
      <trkpt lat="47.31387" lon="4.97042">
        <ele>361</ele>
        <time>2012-09-15T06:48:48Z</time>
      </trkpt>
      <trkpt lat="47.31384" lon="4.97035">
        <ele>364</ele>
        <time>2012-09-15T06:48:52Z</time>
      </trkpt>
      <trkpt lat="47.31382" lon="4.97029">
        <ele>364</ele>
        <time>2012-09-15T06:48:55Z</time>
      </trkpt>
      <trkpt lat="47.31379" lon="4.97021">
        <ele>364</ele>
        <time>2012-09-15T06:48:59Z</time>
      </trkpt>
      <trkpt lat="47.31375" lon="4.97014">
        <ele>366</ele>
        <time>2012-09-15T06:49:03Z</time>
      </trkpt>
      <trkpt lat="47.31372" lon="4.97008">
        <ele>367</ele>
        <time>2012-09-15T06:49:06Z</time>
      </trkpt>
      <trkpt lat="47.31368" lon="4.97005">
        <ele>366</ele>
        <time>2012-09-15T06:49:08Z</time>
      </trkpt>
      <trkpt lat="47.31366" lon="4.96999">
        <ele>367</ele>
        <time>2012-09-15T06:49:11Z</time>
      </trkpt>
      <trkpt lat="47.31361" lon="4.96993">
        <ele>366</ele>
        <time>2012-09-15T06:49:14Z</time>
      </trkpt>
      <trkpt lat="47.31358" lon="4.96988">
        <ele>367</ele>
        <time>2012-09-15T06:49:17Z</time>
      </trkpt>
      <trkpt lat="47.31352" lon="4.96982">
        <ele>366</ele>
        <time>2012-09-15T06:49:20Z</time>
      </trkpt>
      <trkpt lat="47.31349" lon="4.96976">
        <ele>365</ele>
        <time>2012-09-15T06:49:23Z</time>
      </trkpt>
      <trkpt lat="47.31346" lon="4.96971">
        <ele>366</ele>
        <time>2012-09-15T06:49:26Z</time>
      </trkpt>
      <trkpt lat="47.31343" lon="4.96966">
        <ele>366</ele>
        <time>2012-09-15T06:49:29Z</time>
      </trkpt>
      <trkpt lat="47.31339" lon="4.96961">
        <ele>366</ele>
        <time>2012-09-15T06:49:32Z</time>
      </trkpt>
      <trkpt lat="47.31335" lon="4.96955">
        <ele>365</ele>
        <time>2012-09-15T06:49:35Z</time>
      </trkpt>
      <trkpt lat="47.3133" lon="4.9695">
        <ele>365</ele>
        <time>2012-09-15T06:49:38Z</time>
      </trkpt>
      <trkpt lat="47.31326" lon="4.96945">
        <ele>364</ele>
        <time>2012-09-15T06:49:41Z</time>
      </trkpt>
      <trkpt lat="47.31322" lon="4.96939">
        <ele>364</ele>
        <time>2012-09-15T06:49:44Z</time>
      </trkpt>
      <trkpt lat="47.31317" lon="4.96934">
        <ele>363</ele>
        <time>2012-09-15T06:49:48Z</time>
      </trkpt>
      <trkpt lat="47.31312" lon="4.9693">
        <ele>363</ele>
        <time>2012-09-15T06:49:52Z</time>
      </trkpt>
      <trkpt lat="47.31308" lon="4.96926">
        <ele>362</ele>
        <time>2012-09-15T06:49:55Z</time>
      </trkpt>
      <trkpt lat="47.31304" lon="4.96922">
        <ele>362</ele>
        <time>2012-09-15T06:49:58Z</time>
      </trkpt>
      <trkpt lat="47.31298" lon="4.96918">
        <ele>363</ele>
        <time>2012-09-15T06:50:02Z</time>
      </trkpt>
      <trkpt lat="47.31293" lon="4.96914">
        <ele>363</ele>
        <time>2012-09-15T06:50:06Z</time>
      </trkpt>
      <trkpt lat="47.31288" lon="4.9691">
        <ele>362</ele>
        <time>2012-09-15T06:50:10Z</time>
      </trkpt>
      <trkpt lat="47.31284" lon="4.96906">
        <ele>362</ele>
        <time>2012-09-15T06:50:13Z</time>
      </trkpt>
      <trkpt lat="47.31279" lon="4.96902">
        <ele>362</ele>
        <time>2012-09-15T06:50:17Z</time>
      </trkpt>
      <trkpt lat="47.31274" lon="4.96897">
        <ele>362</ele>
        <time>2012-09-15T06:50:21Z</time>
      </trkpt>
      <trkpt lat="47.31269" lon="4.96893">
        <ele>362</ele>
        <time>2012-09-15T06:50:25Z</time>
      </trkpt>
      <trkpt lat="47.31263" lon="4.96888">
        <ele>363</ele>
        <time>2012-09-15T06:50:29Z</time>
      </trkpt>
      <trkpt lat="47.31258" lon="4.96882">
        <ele>362</ele>
        <time>2012-09-15T06:50:33Z</time>
      </trkpt>
      <trkpt lat="47.31254" lon="4.96879">
        <ele>362</ele>
        <time>2012-09-15T06:50:36Z</time>
      </trkpt>
      <trkpt lat="47.3125" lon="4.96875">
        <ele>362</ele>
        <time>2012-09-15T06:50:39Z</time>
      </trkpt>
      <trkpt lat="47.31247" lon="4.96869">
        <ele>362</ele>
        <time>2012-09-15T06:50:42Z</time>
      </trkpt>
      <trkpt lat="47.31244" lon="4.96862">
        <ele>361</ele>
        <time>2012-09-15T06:50:46Z</time>
      </trkpt>
      <trkpt lat="47.3124" lon="4.96855">
        <ele>361</ele>
        <time>2012-09-15T06:50:49Z</time>
      </trkpt>
      <trkpt lat="47.31235" lon="4.96851">
        <ele>360</ele>
        <time>2012-09-15T06:50:53Z</time>
      </trkpt>
      <trkpt lat="47.3123" lon="4.96846">
        <ele>360</ele>
        <time>2012-09-15T06:50:57Z</time>
      </trkpt>
      <trkpt lat="47.31229" lon="4.96839">
        <ele>360</ele>
        <time>2012-09-15T06:50:59Z</time>
      </trkpt>
      <trkpt lat="47.31228" lon="4.96832">
        <ele>360</ele>
        <time>2012-09-15T06:51:01Z</time>
      </trkpt>
      <trkpt lat="47.31225" lon="4.96823">
        <ele>360</ele>
        <time>2012-09-15T06:51:04Z</time>
      </trkpt>
      <trkpt lat="47.3122" lon="4.96821">
        <ele>361</ele>
        <time>2012-09-15T06:51:08Z</time>
      </trkpt>
      <trkpt lat="47.31215" lon="4.96821">
        <ele>361</ele>
        <time>2012-09-15T06:51:11Z</time>
      </trkpt>
      <trkpt lat="47.31211" lon="4.96819">
        <ele>361</ele>
        <time>2012-09-15T06:51:15Z</time>
      </trkpt>
      <trkpt lat="47.31208" lon="4.96814">
        <ele>362</ele>
        <time>2012-09-15T06:51:18Z</time>
      </trkpt>
      <trkpt lat="47.31204" lon="4.96819">
        <ele>362</ele>
        <time>2012-09-15T06:51:24Z</time>
      </trkpt>
      <trkpt lat="47.31202" lon="4.96812">
        <ele>363</ele>
        <time>2012-09-15T06:51:28Z</time>
      </trkpt>
      <trkpt lat="47.31202" lon="4.96805">
        <ele>362</ele>
        <time>2012-09-15T06:51:31Z</time>
      </trkpt>
      <trkpt lat="47.31197" lon="4.96802">
        <ele>363</ele>
        <time>2012-09-15T06:51:35Z</time>
      </trkpt>
      <trkpt lat="47.31193" lon="4.96799">
        <ele>363</ele>
        <time>2012-09-15T06:51:38Z</time>
      </trkpt>
      <trkpt lat="47.3119" lon="4.96793">
        <ele>364</ele>
        <time>2012-09-15T06:51:42Z</time>
      </trkpt>
      <trkpt lat="47.31186" lon="4.9679">
        <ele>365</ele>
        <time>2012-09-15T06:51:46Z</time>
      </trkpt>
      <trkpt lat="47.31186" lon="4.9678">
        <ele>365</ele>
        <time>2012-09-15T06:51:48Z</time>
      </trkpt>
      <trkpt lat="47.31184" lon="4.96773">
        <ele>366</ele>
        <time>2012-09-15T06:51:52Z</time>
      </trkpt>
      <trkpt lat="47.31179" lon="4.96771">
        <ele>365</ele>
        <time>2012-09-15T06:51:56Z</time>
      </trkpt>
      <trkpt lat="47.31176" lon="4.96762">
        <ele>364</ele>
        <time>2012-09-15T06:51:59Z</time>
      </trkpt>
      <trkpt lat="47.31175" lon="4.96752">
        <ele>364</ele>
        <time>2012-09-15T06:52:02Z</time>
      </trkpt>
      <trkpt lat="47.31172" lon="4.96747">
        <ele>364</ele>
        <time>2012-09-15T06:52:05Z</time>
      </trkpt>
      <trkpt lat="47.31169" lon="4.9674">
        <ele>364</ele>
        <time>2012-09-15T06:52:08Z</time>
      </trkpt>
      <trkpt lat="47.31168" lon="4.96732">
        <ele>365</ele>
        <time>2012-09-15T06:52:11Z</time>
      </trkpt>
      <trkpt lat="47.31167" lon="4.96724">
        <ele>364</ele>
        <time>2012-09-15T06:52:14Z</time>
      </trkpt>
      <trkpt lat="47.31164" lon="4.96717">
        <ele>364</ele>
        <time>2012-09-15T06:52:17Z</time>
      </trkpt>
      <trkpt lat="47.31163" lon="4.96709">
        <ele>364</ele>
        <time>2012-09-15T06:52:20Z</time>
      </trkpt>
      <trkpt lat="47.31162" lon="4.967">
        <ele>365</ele>
        <time>2012-09-15T06:52:24Z</time>
      </trkpt>
      <trkpt lat="47.31162" lon="4.96688">
        <ele>365</ele>
        <time>2012-09-15T06:52:26Z</time>
      </trkpt>
      <trkpt lat="47.31163" lon="4.96678">
        <ele>365</ele>
        <time>2012-09-15T06:52:28Z</time>
      </trkpt>
      <trkpt lat="47.31162" lon="4.96671">
        <ele>365</ele>
        <time>2012-09-15T06:52:31Z</time>
      </trkpt>
      <trkpt lat="47.31164" lon="4.96664">
        <ele>365</ele>
        <time>2012-09-15T06:52:33Z</time>
      </trkpt>
      <trkpt lat="47.31166" lon="4.96654">
        <ele>365</ele>
        <time>2012-09-15T06:52:36Z</time>
      </trkpt>
      <trkpt lat="47.31166" lon="4.96646">
        <ele>369</ele>
        <time>2012-09-15T06:52:40Z</time>
      </trkpt>
      <trkpt lat="47.31166" lon="4.96639">
        <ele>370</ele>
        <time>2012-09-15T06:52:46Z</time>
      </trkpt>
      <trkpt lat="47.31168" lon="4.96629">
        <ele>372</ele>
        <time>2012-09-15T06:52:49Z</time>
      </trkpt>
      <trkpt lat="47.31168" lon="4.96622">
        <ele>373</ele>
        <time>2012-09-15T06:52:52Z</time>
      </trkpt>
      <trkpt lat="47.31169" lon="4.96614">
        <ele>372</ele>
        <time>2012-09-15T06:52:55Z</time>
      </trkpt>
      <trkpt lat="47.3117" lon="4.96606">
        <ele>372</ele>
        <time>2012-09-15T06:52:58Z</time>
      </trkpt>
      <trkpt lat="47.3117" lon="4.96599">
        <ele>372</ele>
        <time>2012-09-15T06:53:01Z</time>
      </trkpt>
      <trkpt lat="47.31167" lon="4.96591">
        <ele>372</ele>
        <time>2012-09-15T06:53:06Z</time>
      </trkpt>
      <trkpt lat="47.31161" lon="4.96587">
        <ele>373</ele>
        <time>2012-09-15T06:53:10Z</time>
      </trkpt>
      <trkpt lat="47.31164" lon="4.96579">
        <ele>373</ele>
        <time>2012-09-15T06:53:12Z</time>
      </trkpt>
      <trkpt lat="47.31165" lon="4.96572">
        <ele>373</ele>
        <time>2012-09-15T06:53:14Z</time>
      </trkpt>
      <trkpt lat="47.31166" lon="4.96564">
        <ele>373</ele>
        <time>2012-09-15T06:53:15Z</time>
      </trkpt>
      <trkpt lat="47.31168" lon="4.96557">
        <ele>373</ele>
        <time>2012-09-15T06:53:17Z</time>
      </trkpt>
      <trkpt lat="47.31167" lon="4.96549">
        <ele>374</ele>
        <time>2012-09-15T06:53:20Z</time>
      </trkpt>
      <trkpt lat="47.31167" lon="4.96542">
        <ele>377</ele>
        <time>2012-09-15T06:53:24Z</time>
      </trkpt>
      <trkpt lat="47.31167" lon="4.96542">
        <ele>377</ele>
        <time>2012-09-15T06:53:24Z</time>
      </trkpt>
      <trkpt lat="47.31167" lon="4.96542">
        <ele>377</ele>
        <time>2012-09-15T06:53:25Z</time>
      </trkpt>
      <trkpt lat="47.31164" lon="4.96536">
        <ele>375</ele>
        <time>2012-09-15T06:53:29Z</time>
      </trkpt>
      <trkpt lat="47.31164" lon="4.96529">
        <ele>375</ele>
        <time>2012-09-15T06:53:32Z</time>
      </trkpt>
      <trkpt lat="47.31164" lon="4.96519">
        <ele>375</ele>
        <time>2012-09-15T06:53:35Z</time>
      </trkpt>
      <trkpt lat="47.31164" lon="4.96509">
        <ele>375</ele>
        <time>2012-09-15T06:53:38Z</time>
      </trkpt>
      <trkpt lat="47.31161" lon="4.96501">
        <ele>375</ele>
        <time>2012-09-15T06:53:41Z</time>
      </trkpt>
      <trkpt lat="47.3116" lon="4.96492">
        <ele>373</ele>
        <time>2012-09-15T06:53:45Z</time>
      </trkpt>
      <trkpt lat="47.31159" lon="4.96485">
        <ele>371</ele>
        <time>2012-09-15T06:53:48Z</time>
      </trkpt>
      <trkpt lat="47.31157" lon="4.96477">
        <ele>372</ele>
        <time>2012-09-15T06:53:52Z</time>
      </trkpt>
      <trkpt lat="47.31153" lon="4.96474">
        <ele>373</ele>
        <time>2012-09-15T06:53:55Z</time>
      </trkpt>
      <trkpt lat="47.31152" lon="4.96467">
        <ele>372</ele>
        <time>2012-09-15T06:53:58Z</time>
      </trkpt>
      <trkpt lat="47.3115" lon="4.9646">
        <ele>373</ele>
        <time>2012-09-15T06:54:01Z</time>
      </trkpt>
      <trkpt lat="47.31149" lon="4.96453">
        <ele>372</ele>
        <time>2012-09-15T06:54:11Z</time>
      </trkpt>
      <trkpt lat="47.31147" lon="4.96445">
        <ele>370</ele>
        <time>2012-09-15T06:54:15Z</time>
      </trkpt>
      <trkpt lat="47.31145" lon="4.96437">
        <ele>370</ele>
        <time>2012-09-15T06:54:18Z</time>
      </trkpt>
      <trkpt lat="47.31141" lon="4.96432">
        <ele>370</ele>
        <time>2012-09-15T06:54:21Z</time>
      </trkpt>
      <trkpt lat="47.31136" lon="4.96428">
        <ele>370</ele>
        <time>2012-09-15T06:54:25Z</time>
      </trkpt>
      <trkpt lat="47.31133" lon="4.96418">
        <ele>372</ele>
        <time>2012-09-15T06:54:28Z</time>
      </trkpt>
      <trkpt lat="47.31132" lon="4.96412">
        <ele>372</ele>
        <time>2012-09-15T06:54:31Z</time>
      </trkpt>
      <trkpt lat="47.3113" lon="4.96403">
        <ele>374</ele>
        <time>2012-09-15T06:54:35Z</time>
      </trkpt>
      <trkpt lat="47.31127" lon="4.96396">
        <ele>373</ele>
        <time>2012-09-15T06:54:38Z</time>
      </trkpt>
      <trkpt lat="47.31123" lon="4.96391">
        <ele>374</ele>
        <time>2012-09-15T06:54:41Z</time>
      </trkpt>
      <trkpt lat="47.3112" lon="4.96385">
        <ele>378</ele>
        <time>2012-09-15T06:54:46Z</time>
      </trkpt>
      <trkpt lat="47.31116" lon="4.96379">
        <ele>378</ele>
        <time>2012-09-15T06:54:49Z</time>
      </trkpt>
      <trkpt lat="47.31115" lon="4.96371">
        <ele>379</ele>
        <time>2012-09-15T06:54:52Z</time>
      </trkpt>
      <trkpt lat="47.31111" lon="4.96363">
        <ele>379</ele>
        <time>2012-09-15T06:54:55Z</time>
      </trkpt>
      <trkpt lat="47.31106" lon="4.96359">
        <ele>378</ele>
        <time>2012-09-15T06:54:58Z</time>
      </trkpt>
      <trkpt lat="47.31103" lon="4.96353">
        <ele>376</ele>
        <time>2012-09-15T06:55:01Z</time>
      </trkpt>
      <trkpt lat="47.311" lon="4.96348">
        <ele>376</ele>
        <time>2012-09-15T06:55:04Z</time>
      </trkpt>
      <trkpt lat="47.31095" lon="4.96342">
        <ele>378</ele>
        <time>2012-09-15T06:55:08Z</time>
      </trkpt>
      <trkpt lat="47.31093" lon="4.96335">
        <ele>377</ele>
        <time>2012-09-15T06:55:11Z</time>
      </trkpt>
      <trkpt lat="47.31089" lon="4.96331">
        <ele>375</ele>
        <time>2012-09-15T06:55:14Z</time>
      </trkpt>
      <trkpt lat="47.31083" lon="4.96329">
        <ele>375</ele>
        <time>2012-09-15T06:55:17Z</time>
      </trkpt>
      <trkpt lat="47.31078" lon="4.96327">
        <ele>377</ele>
        <time>2012-09-15T06:55:20Z</time>
      </trkpt>
      <trkpt lat="47.31074" lon="4.96324">
        <ele>377</ele>
        <time>2012-09-15T06:55:23Z</time>
      </trkpt>
      <trkpt lat="47.31069" lon="4.96322">
        <ele>377</ele>
        <time>2012-09-15T06:55:26Z</time>
      </trkpt>
      <trkpt lat="47.31067" lon="4.96314">
        <ele>377</ele>
        <time>2012-09-15T06:55:29Z</time>
      </trkpt>
      <trkpt lat="47.31065" lon="4.96307">
        <ele>378</ele>
        <time>2012-09-15T06:55:32Z</time>
      </trkpt>
      <trkpt lat="47.31064" lon="4.96297">
        <ele>378</ele>
        <time>2012-09-15T06:55:34Z</time>
      </trkpt>
      <trkpt lat="47.31063" lon="4.96288">
        <ele>379</ele>
        <time>2012-09-15T06:55:37Z</time>
      </trkpt>
      <trkpt lat="47.3106" lon="4.96282">
        <ele>379</ele>
        <time>2012-09-15T06:55:40Z</time>
      </trkpt>
      <trkpt lat="47.31058" lon="4.96271">
        <ele>378</ele>
        <time>2012-09-15T06:55:43Z</time>
      </trkpt>
      <trkpt lat="47.31058" lon="4.96263">
        <ele>378</ele>
        <time>2012-09-15T06:55:45Z</time>
      </trkpt>
      <trkpt lat="47.31058" lon="4.96254">
        <ele>377</ele>
        <time>2012-09-15T06:55:48Z</time>
      </trkpt>
      <trkpt lat="47.31057" lon="4.96247">
        <ele>378</ele>
        <time>2012-09-15T06:55:51Z</time>
      </trkpt>
      <trkpt lat="47.31054" lon="4.9624">
        <ele>378</ele>
        <time>2012-09-15T06:55:54Z</time>
      </trkpt>
      <trkpt lat="47.31052" lon="4.96234">
        <ele>379</ele>
        <time>2012-09-15T06:55:57Z</time>
      </trkpt>
      <trkpt lat="47.3105" lon="4.96227">
        <ele>378</ele>
        <time>2012-09-15T06:56:00Z</time>
      </trkpt>
      <trkpt lat="47.3105" lon="4.96217">
        <ele>377</ele>
        <time>2012-09-15T06:56:03Z</time>
      </trkpt>
      <trkpt lat="47.31051" lon="4.9621">
        <ele>378</ele>
        <time>2012-09-15T06:56:09Z</time>
      </trkpt>
      <trkpt lat="47.31049" lon="4.96202">
        <ele>382</ele>
        <time>2012-09-15T06:56:14Z</time>
      </trkpt>
      <trkpt lat="47.31049" lon="4.96195">
        <ele>382</ele>
        <time>2012-09-15T06:56:17Z</time>
      </trkpt>
      <trkpt lat="47.31049" lon="4.96186">
        <ele>383</ele>
        <time>2012-09-15T06:56:21Z</time>
      </trkpt>
      <trkpt lat="47.31048" lon="4.96176">
        <ele>384</ele>
        <time>2012-09-15T06:56:25Z</time>
      </trkpt>
      <trkpt lat="47.31049" lon="4.96168">
        <ele>382</ele>
        <time>2012-09-15T06:56:29Z</time>
      </trkpt>
      <trkpt lat="47.31049" lon="4.96159">
        <ele>382</ele>
        <time>2012-09-15T06:56:33Z</time>
      </trkpt>
      <trkpt lat="47.3105" lon="4.96152">
        <ele>382</ele>
        <time>2012-09-15T06:56:36Z</time>
      </trkpt>
      <trkpt lat="47.31052" lon="4.96145">
        <ele>381</ele>
        <time>2012-09-15T06:56:39Z</time>
      </trkpt>
      <trkpt lat="47.31054" lon="4.96137">
        <ele>381</ele>
        <time>2012-09-15T06:56:42Z</time>
      </trkpt>
      <trkpt lat="47.31055" lon="4.9613">
        <ele>381</ele>
        <time>2012-09-15T06:56:46Z</time>
      </trkpt>
      <trkpt lat="47.31056" lon="4.96122">
        <ele>382</ele>
        <time>2012-09-15T06:56:49Z</time>
      </trkpt>
      <trkpt lat="47.31058" lon="4.96115">
        <ele>380</ele>
        <time>2012-09-15T06:56:52Z</time>
      </trkpt>
      <trkpt lat="47.31059" lon="4.96108">
        <ele>379</ele>
        <time>2012-09-15T06:56:55Z</time>
      </trkpt>
      <trkpt lat="47.3106" lon="4.96101">
        <ele>378</ele>
        <time>2012-09-15T06:56:58Z</time>
      </trkpt>
      <trkpt lat="47.31062" lon="4.96092">
        <ele>377</ele>
        <time>2012-09-15T06:57:02Z</time>
      </trkpt>
      <trkpt lat="47.31063" lon="4.96085">
        <ele>377</ele>
        <time>2012-09-15T06:57:05Z</time>
      </trkpt>
      <trkpt lat="47.31064" lon="4.96078">
        <ele>378</ele>
        <time>2012-09-15T06:57:09Z</time>
      </trkpt>
      <trkpt lat="47.31064" lon="4.96071">
        <ele>378</ele>
        <time>2012-09-15T06:57:12Z</time>
      </trkpt>
      <trkpt lat="47.31065" lon="4.96064">
        <ele>377</ele>
        <time>2012-09-15T06:57:16Z</time>
      </trkpt>
      <trkpt lat="47.31066" lon="4.96057">
        <ele>376</ele>
        <time>2012-09-15T06:57:19Z</time>
      </trkpt>
      <trkpt lat="47.31066" lon="4.96049">
        <ele>377</ele>
        <time>2012-09-15T06:57:22Z</time>
      </trkpt>
      <trkpt lat="47.31066" lon="4.96041">
        <ele>379</ele>
        <time>2012-09-15T06:57:26Z</time>
      </trkpt>
      <trkpt lat="47.31067" lon="4.96032">
        <ele>379</ele>
        <time>2012-09-15T06:57:31Z</time>
      </trkpt>
      <trkpt lat="47.31067" lon="4.96022">
        <ele>380</ele>
        <time>2012-09-15T06:57:35Z</time>
      </trkpt>
      <trkpt lat="47.31068" lon="4.96012">
        <ele>380</ele>
        <time>2012-09-15T06:57:37Z</time>
      </trkpt>
      <trkpt lat="47.31067" lon="4.96003">
        <ele>381</ele>
        <time>2012-09-15T06:57:40Z</time>
      </trkpt>
      <trkpt lat="47.31067" lon="4.95996">
        <ele>382</ele>
        <time>2012-09-15T06:57:43Z</time>
      </trkpt>
      <trkpt lat="47.31067" lon="4.95988">
        <ele>383</ele>
        <time>2012-09-15T06:57:46Z</time>
      </trkpt>
      <trkpt lat="47.31068" lon="4.95981">
        <ele>384</ele>
        <time>2012-09-15T06:57:48Z</time>
      </trkpt>
      <trkpt lat="47.31068" lon="4.95973">
        <ele>384</ele>
        <time>2012-09-15T06:57:51Z</time>
      </trkpt>
      <trkpt lat="47.31068" lon="4.95966">
        <ele>385</ele>
        <time>2012-09-15T06:57:54Z</time>
      </trkpt>
      <trkpt lat="47.31068" lon="4.95966">
        <ele>385</ele>
        <time>2012-09-15T06:57:54Z</time>
      </trkpt>
      <trkpt lat="47.31068" lon="4.95966">
        <ele>385</ele>
        <time>2012-09-15T06:57:55Z</time>
      </trkpt>
      <trkpt lat="47.31067" lon="4.95958">
        <ele>385</ele>
        <time>2012-09-15T06:57:58Z</time>
      </trkpt>
      <trkpt lat="47.31064" lon="4.95951">
        <ele>385</ele>
        <time>2012-09-15T06:58:01Z</time>
      </trkpt>
      <trkpt lat="47.31063" lon="4.95942">
        <ele>386</ele>
        <time>2012-09-15T06:58:04Z</time>
      </trkpt>
      <trkpt lat="47.31062" lon="4.95934">
        <ele>386</ele>
        <time>2012-09-15T06:58:07Z</time>
      </trkpt>
      <trkpt lat="47.31059" lon="4.95926">
        <ele>386</ele>
        <time>2012-09-15T06:58:10Z</time>
      </trkpt>
      <trkpt lat="47.31055" lon="4.95926">
        <ele>385</ele>
        <time>2012-09-15T06:58:12Z</time>
      </trkpt>
      <trkpt lat="47.31055" lon="4.95918">
        <ele>387</ele>
        <time>2012-09-15T06:58:15Z</time>
      </trkpt>
      <trkpt lat="47.31056" lon="4.95909">
        <ele>387</ele>
        <time>2012-09-15T06:58:18Z</time>
      </trkpt>
      <trkpt lat="47.31051" lon="4.95904">
        <ele>390</ele>
        <time>2012-09-15T06:58:24Z</time>
      </trkpt>
      <trkpt lat="47.31049" lon="4.95896">
        <ele>393</ele>
        <time>2012-09-15T06:58:29Z</time>
      </trkpt>
      <trkpt lat="47.31048" lon="4.95888">
        <ele>393</ele>
        <time>2012-09-15T06:58:31Z</time>
      </trkpt>
      <trkpt lat="47.31045" lon="4.95882">
        <ele>394</ele>
        <time>2012-09-15T06:58:35Z</time>
      </trkpt>
      <trkpt lat="47.31043" lon="4.95875">
        <ele>395</ele>
        <time>2012-09-15T06:58:38Z</time>
      </trkpt>
      <trkpt lat="47.31042" lon="4.95867">
        <ele>395</ele>
        <time>2012-09-15T06:58:41Z</time>
      </trkpt>
      <trkpt lat="47.31041" lon="4.95859">
        <ele>396</ele>
        <time>2012-09-15T06:58:44Z</time>
      </trkpt>
      <trkpt lat="47.31041" lon="4.95852">
        <ele>397</ele>
        <time>2012-09-15T06:58:47Z</time>
      </trkpt>
      <trkpt lat="47.31042" lon="4.95843">
        <ele>402</ele>
        <time>2012-09-15T06:58:50Z</time>
      </trkpt>
      <trkpt lat="47.31041" lon="4.95834">
        <ele>405</ele>
        <time>2012-09-15T06:58:55Z</time>
      </trkpt>
      <trkpt lat="47.3104" lon="4.95827">
        <ele>406</ele>
        <time>2012-09-15T06:58:57Z</time>
      </trkpt>
      <trkpt lat="47.31041" lon="4.9582">
        <ele>406</ele>
        <time>2012-09-15T06:59:00Z</time>
      </trkpt>
      <trkpt lat="47.31039" lon="4.95812">
        <ele>407</ele>
        <time>2012-09-15T06:59:05Z</time>
      </trkpt>
      <trkpt lat="47.31037" lon="4.95803">
        <ele>407</ele>
        <time>2012-09-15T06:59:09Z</time>
      </trkpt>
      <trkpt lat="47.31036" lon="4.95794">
        <ele>407</ele>
        <time>2012-09-15T06:59:11Z</time>
      </trkpt>
      <trkpt lat="47.31035" lon="4.95786">
        <ele>406</ele>
        <time>2012-09-15T06:59:13Z</time>
      </trkpt>
      <trkpt lat="47.31037" lon="4.95778">
        <ele>405</ele>
        <time>2012-09-15T06:59:16Z</time>
      </trkpt>
      <trkpt lat="47.3104" lon="4.95771">
        <ele>406</ele>
        <time>2012-09-15T06:59:22Z</time>
      </trkpt>
      <trkpt lat="47.31044" lon="4.95766">
        <ele>407</ele>
        <time>2012-09-15T06:59:27Z</time>
      </trkpt>
      <trkpt lat="47.31047" lon="4.95761">
        <ele>406</ele>
        <time>2012-09-15T06:59:29Z</time>
      </trkpt>
      <trkpt lat="47.31051" lon="4.95755">
        <ele>406</ele>
        <time>2012-09-15T06:59:34Z</time>
      </trkpt>
      <trkpt lat="47.31054" lon="4.95749">
        <ele>407</ele>
        <time>2012-09-15T06:59:38Z</time>
      </trkpt>
      <trkpt lat="47.31057" lon="4.95742">
        <ele>409</ele>
        <time>2012-09-15T06:59:42Z</time>
      </trkpt>
      <trkpt lat="47.31059" lon="4.95736">
        <ele>412</ele>
        <time>2012-09-15T06:59:46Z</time>
      </trkpt>
      <trkpt lat="47.31063" lon="4.95732">
        <ele>415</ele>
        <time>2012-09-15T06:59:51Z</time>
      </trkpt>
      <trkpt lat="47.31067" lon="4.95734">
        <ele>418</ele>
        <time>2012-09-15T06:59:57Z</time>
      </trkpt>
      <trkpt lat="47.31071" lon="4.9574">
        <ele>419</ele>
        <time>2012-09-15T07:00:00Z</time>
      </trkpt>
      <trkpt lat="47.31073" lon="4.95746">
        <ele>419</ele>
        <time>2012-09-15T07:00:02Z</time>
      </trkpt>
      <trkpt lat="47.31079" lon="4.9575">
        <ele>417</ele>
        <time>2012-09-15T07:00:04Z</time>
      </trkpt>
      <trkpt lat="47.31081" lon="4.95756">
        <ele>417</ele>
        <time>2012-09-15T07:00:09Z</time>
      </trkpt>
      <trkpt lat="47.31082" lon="4.95763">
        <ele>417</ele>
        <time>2012-09-15T07:00:12Z</time>
      </trkpt>
      <trkpt lat="47.31082" lon="4.95771">
        <ele>415</ele>
        <time>2012-09-15T07:00:15Z</time>
      </trkpt>
      <trkpt lat="47.31082" lon="4.95778">
        <ele>414</ele>
        <time>2012-09-15T07:00:18Z</time>
      </trkpt>
      <trkpt lat="47.31082" lon="4.95785">
        <ele>414</ele>
        <time>2012-09-15T07:00:22Z</time>
      </trkpt>
      <trkpt lat="47.31084" lon="4.95792">
        <ele>414</ele>
        <time>2012-09-15T07:00:25Z</time>
      </trkpt>
      <trkpt lat="47.31085" lon="4.958">
        <ele>412</ele>
        <time>2012-09-15T07:00:28Z</time>
      </trkpt>
      <trkpt lat="47.31083" lon="4.95807">
        <ele>413</ele>
        <time>2012-09-15T07:00:31Z</time>
      </trkpt>
      <trkpt lat="47.31084" lon="4.95814">
        <ele>414</ele>
        <time>2012-09-15T07:00:34Z</time>
      </trkpt>
      <trkpt lat="47.31085" lon="4.95822">
        <ele>415</ele>
        <time>2012-09-15T07:00:38Z</time>
      </trkpt>
      <trkpt lat="47.31086" lon="4.95829">
        <ele>414</ele>
        <time>2012-09-15T07:00:41Z</time>
      </trkpt>
      <trkpt lat="47.31088" lon="4.95837">
        <ele>413</ele>
        <time>2012-09-15T07:00:45Z</time>
      </trkpt>
      <trkpt lat="47.3109" lon="4.95843">
        <ele>413</ele>
        <time>2012-09-15T07:00:48Z</time>
      </trkpt>
      <trkpt lat="47.31092" lon="4.95851">
        <ele>413</ele>
        <time>2012-09-15T07:00:52Z</time>
      </trkpt>
      <trkpt lat="47.31093" lon="4.95858">
        <ele>413</ele>
        <time>2012-09-15T07:00:55Z</time>
      </trkpt>
      <trkpt lat="47.31095" lon="4.95865">
        <ele>413</ele>
        <time>2012-09-15T07:00:59Z</time>
      </trkpt>
      <trkpt lat="47.31098" lon="4.9587">
        <ele>413</ele>
        <time>2012-09-15T07:01:02Z</time>
      </trkpt>
      <trkpt lat="47.311" lon="4.95876">
        <ele>413</ele>
        <time>2012-09-15T07:01:05Z</time>
      </trkpt>
      <trkpt lat="47.31103" lon="4.95884">
        <ele>413</ele>
        <time>2012-09-15T07:01:09Z</time>
      </trkpt>
      <trkpt lat="47.31106" lon="4.9589">
        <ele>413</ele>
        <time>2012-09-15T07:01:13Z</time>
      </trkpt>
      <trkpt lat="47.31104" lon="4.95896">
        <ele>413</ele>
        <time>2012-09-15T07:01:15Z</time>
      </trkpt>
      <trkpt lat="47.31109" lon="4.95898">
        <ele>414</ele>
        <time>2012-09-15T07:01:18Z</time>
      </trkpt>
      <trkpt lat="47.31112" lon="4.95904">
        <ele>415</ele>
        <time>2012-09-15T07:01:23Z</time>
      </trkpt>
      <trkpt lat="47.31117" lon="4.95907">
        <ele>415</ele>
        <time>2012-09-15T07:01:25Z</time>
      </trkpt>
      <trkpt lat="47.31112" lon="4.95912">
        <ele>416</ele>
        <time>2012-09-15T07:01:27Z</time>
      </trkpt>
      <trkpt lat="47.31112" lon="4.95912">
        <ele>416</ele>
        <time>2012-09-15T07:01:27Z</time>
      </trkpt>
      <trkpt lat="47.31112" lon="4.95912">
        <ele>416</ele>
        <time>2012-09-15T07:01:33Z</time>
      </trkpt>
      <trkpt lat="47.31115" lon="4.95919">
        <ele>417</ele>
        <time>2012-09-15T07:01:37Z</time>
      </trkpt>
      <trkpt lat="47.31118" lon="4.95923">
        <ele>417</ele>
        <time>2012-09-15T07:01:39Z</time>
      </trkpt>
      <trkpt lat="47.31123" lon="4.95925">
        <ele>418</ele>
        <time>2012-09-15T07:01:42Z</time>
      </trkpt>
      <trkpt lat="47.31129" lon="4.95928">
        <ele>418</ele>
        <time>2012-09-15T07:01:45Z</time>
      </trkpt>
      <trkpt lat="47.31134" lon="4.95932">
        <ele>418</ele>
        <time>2012-09-15T07:01:51Z</time>
      </trkpt>
      <trkpt lat="47.31138" lon="4.95936">
        <ele>418</ele>
        <time>2012-09-15T07:01:57Z</time>
      </trkpt>
      <trkpt lat="47.31142" lon="4.9594">
        <ele>418</ele>
        <time>2012-09-15T07:02:00Z</time>
      </trkpt>
      <trkpt lat="47.31136" lon="4.95944">
        <ele>419</ele>
        <time>2012-09-15T07:02:01Z</time>
      </trkpt>
      <trkpt lat="47.31131" lon="4.95941">
        <ele>422</ele>
        <time>2012-09-15T07:02:11Z</time>
      </trkpt>
      <trkpt lat="47.31131" lon="4.95934">
        <ele>422</ele>
        <time>2012-09-15T07:02:14Z</time>
      </trkpt>
      <trkpt lat="47.31129" lon="4.95926">
        <ele>425</ele>
        <time>2012-09-15T07:02:17Z</time>
      </trkpt>
      <trkpt lat="47.3113" lon="4.95919">
        <ele>427</ele>
        <time>2012-09-15T07:02:23Z</time>
      </trkpt>
      <trkpt lat="47.31128" lon="4.95912">
        <ele>429</ele>
        <time>2012-09-15T07:02:27Z</time>
      </trkpt>
      <trkpt lat="47.31125" lon="4.95906">
        <ele>429</ele>
        <time>2012-09-15T07:02:31Z</time>
      </trkpt>
      <trkpt lat="47.31124" lon="4.95899">
        <ele>429</ele>
        <time>2012-09-15T07:02:35Z</time>
      </trkpt>
      <trkpt lat="47.31122" lon="4.95892">
        <ele>429</ele>
        <time>2012-09-15T07:02:38Z</time>
      </trkpt>
      <trkpt lat="47.31121" lon="4.95885">
        <ele>428</ele>
        <time>2012-09-15T07:02:42Z</time>
      </trkpt>
      <trkpt lat="47.31119" lon="4.95878">
        <ele>428</ele>
        <time>2012-09-15T07:02:47Z</time>
      </trkpt>
      <trkpt lat="47.3112" lon="4.95867">
        <ele>427</ele>
        <time>2012-09-15T07:02:50Z</time>
      </trkpt>
      <trkpt lat="47.31122" lon="4.9586">
        <ele>426</ele>
        <time>2012-09-15T07:02:52Z</time>
      </trkpt>
      <trkpt lat="47.31124" lon="4.95855">
        <ele>428</ele>
        <time>2012-09-15T07:02:56Z</time>
      </trkpt>
      <trkpt lat="47.31127" lon="4.9585">
        <ele>430</ele>
        <time>2012-09-15T07:03:01Z</time>
      </trkpt>
      <trkpt lat="47.31127" lon="4.95842">
        <ele>435</ele>
        <time>2012-09-15T07:03:08Z</time>
      </trkpt>
      <trkpt lat="47.31127" lon="4.95834">
        <ele>437</ele>
        <time>2012-09-15T07:03:12Z</time>
      </trkpt>
      <trkpt lat="47.31128" lon="4.95827">
        <ele>438</ele>
        <time>2012-09-15T07:03:15Z</time>
      </trkpt>
      <trkpt lat="47.3113" lon="4.9582">
        <ele>440</ele>
        <time>2012-09-15T07:03:19Z</time>
      </trkpt>
      <trkpt lat="47.31133" lon="4.95814">
        <ele>441</ele>
        <time>2012-09-15T07:03:23Z</time>
      </trkpt>
      <trkpt lat="47.31136" lon="4.95808">
        <ele>442</ele>
        <time>2012-09-15T07:03:27Z</time>
      </trkpt>
      <trkpt lat="47.31139" lon="4.95802">
        <ele>443</ele>
        <time>2012-09-15T07:03:31Z</time>
      </trkpt>
      <trkpt lat="47.31143" lon="4.95797">
        <ele>443</ele>
        <time>2012-09-15T07:03:35Z</time>
      </trkpt>
      <trkpt lat="47.31147" lon="4.95793">
        <ele>444</ele>
        <time>2012-09-15T07:03:39Z</time>
      </trkpt>
      <trkpt lat="47.31153" lon="4.95792">
        <ele>444</ele>
        <time>2012-09-15T07:03:43Z</time>
      </trkpt>
      <trkpt lat="47.31157" lon="4.95796">
        <ele>443</ele>
        <time>2012-09-15T07:03:46Z</time>
      </trkpt>
      <trkpt lat="47.3116" lon="4.95801">
        <ele>443</ele>
        <time>2012-09-15T07:03:49Z</time>
      </trkpt>
      <trkpt lat="47.31162" lon="4.95806">
        <ele>443</ele>
        <time>2012-09-15T07:03:52Z</time>
      </trkpt>
      <trkpt lat="47.31165" lon="4.95813">
        <ele>447</ele>
        <time>2012-09-15T07:03:57Z</time>
      </trkpt>
      <trkpt lat="47.31169" lon="4.95816">
        <ele>446</ele>
        <time>2012-09-15T07:04:00Z</time>
      </trkpt>
      <trkpt lat="47.31173" lon="4.95821">
        <ele>446</ele>
        <time>2012-09-15T07:04:03Z</time>
      </trkpt>
      <trkpt lat="47.31176" lon="4.95827">
        <ele>446</ele>
        <time>2012-09-15T07:04:06Z</time>
      </trkpt>
      <trkpt lat="47.31177" lon="4.95834">
        <ele>446</ele>
        <time>2012-09-15T07:04:10Z</time>
      </trkpt>
      <trkpt lat="47.31176" lon="4.95841">
        <ele>447</ele>
        <time>2012-09-15T07:04:14Z</time>
      </trkpt>
      <trkpt lat="47.31177" lon="4.95848">
        <ele>447</ele>
        <time>2012-09-15T07:04:17Z</time>
      </trkpt>
      <trkpt lat="47.31179" lon="4.95856">
        <ele>447</ele>
        <time>2012-09-15T07:04:19Z</time>
      </trkpt>
      <trkpt lat="47.31183" lon="4.95858">
        <ele>447</ele>
        <time>2012-09-15T07:04:22Z</time>
      </trkpt>
      <trkpt lat="47.31188" lon="4.95862">
        <ele>448</ele>
        <time>2012-09-15T07:04:28Z</time>
      </trkpt>
      <trkpt lat="47.3119" lon="4.95856">
        <ele>451</ele>
        <time>2012-09-15T07:04:34Z</time>
      </trkpt>
      <trkpt lat="47.3119" lon="4.95848">
        <ele>452</ele>
        <time>2012-09-15T07:04:40Z</time>
      </trkpt>
      <trkpt lat="47.31191" lon="4.95841">
        <ele>452</ele>
        <time>2012-09-15T07:04:44Z</time>
      </trkpt>
      <trkpt lat="47.31193" lon="4.95833">
        <ele>452</ele>
        <time>2012-09-15T07:04:47Z</time>
      </trkpt>
      <trkpt lat="47.31195" lon="4.95827">
        <ele>452</ele>
        <time>2012-09-15T07:04:49Z</time>
      </trkpt>
      <trkpt lat="47.31198" lon="4.95821">
        <ele>452</ele>
        <time>2012-09-15T07:04:52Z</time>
      </trkpt>
      <trkpt lat="47.31203" lon="4.9582">
        <ele>455</ele>
        <time>2012-09-15T07:04:57Z</time>
      </trkpt>
      <trkpt lat="47.31208" lon="4.9582">
        <ele>457</ele>
        <time>2012-09-15T07:05:02Z</time>
      </trkpt>
      <trkpt lat="47.31214" lon="4.95822">
        <ele>457</ele>
        <time>2012-09-15T07:05:06Z</time>
      </trkpt>
      <trkpt lat="47.31218" lon="4.95824">
        <ele>456</ele>
        <time>2012-09-15T07:05:08Z</time>
      </trkpt>
      <trkpt lat="47.31223" lon="4.95824">
        <ele>456</ele>
        <time>2012-09-15T07:05:11Z</time>
      </trkpt>
      <trkpt lat="47.31227" lon="4.95821">
        <ele>457</ele>
        <time>2012-09-15T07:05:15Z</time>
      </trkpt>
      <trkpt lat="47.31232" lon="4.95816">
        <ele>458</ele>
        <time>2012-09-15T07:05:20Z</time>
      </trkpt>
      <trkpt lat="47.31236" lon="4.95811">
        <ele>459</ele>
        <time>2012-09-15T07:05:25Z</time>
      </trkpt>
      <trkpt lat="47.31238" lon="4.95804">
        <ele>461</ele>
        <time>2012-09-15T07:05:29Z</time>
      </trkpt>
      <trkpt lat="47.3124" lon="4.95797">
        <ele>460</ele>
        <time>2012-09-15T07:05:33Z</time>
      </trkpt>
      <trkpt lat="47.31241" lon="4.9579">
        <ele>460</ele>
        <time>2012-09-15T07:05:37Z</time>
      </trkpt>
      <trkpt lat="47.31241" lon="4.95782">
        <ele>461</ele>
        <time>2012-09-15T07:05:41Z</time>
      </trkpt>
      <trkpt lat="47.3124" lon="4.95772">
        <ele>460</ele>
        <time>2012-09-15T07:05:46Z</time>
      </trkpt>
      <trkpt lat="47.3124" lon="4.95764">
        <ele>460</ele>
        <time>2012-09-15T07:05:50Z</time>
      </trkpt>
      <trkpt lat="47.31239" lon="4.95756">
        <ele>460</ele>
        <time>2012-09-15T07:05:54Z</time>
      </trkpt>
      <trkpt lat="47.31236" lon="4.95748">
        <ele>464</ele>
        <time>2012-09-15T07:05:58Z</time>
      </trkpt>
      <trkpt lat="47.31235" lon="4.95741">
        <ele>464</ele>
        <time>2012-09-15T07:06:01Z</time>
      </trkpt>
      <trkpt lat="47.31234" lon="4.95733">
        <ele>465</ele>
        <time>2012-09-15T07:06:04Z</time>
      </trkpt>
      <trkpt lat="47.31234" lon="4.95726">
        <ele>465</ele>
        <time>2012-09-15T07:06:08Z</time>
      </trkpt>
      <trkpt lat="47.31233" lon="4.95718">
        <ele>465</ele>
        <time>2012-09-15T07:06:12Z</time>
      </trkpt>
      <trkpt lat="47.31235" lon="4.95671">
        <ele>466</ele>
        <time>2012-09-15T07:06:35Z</time>
      </trkpt>
      <trkpt lat="47.31235" lon="4.95661">
        <ele>466</ele>
        <time>2012-09-15T07:06:37Z</time>
      </trkpt>
      <trkpt lat="47.31233" lon="4.95655">
        <ele>472</ele>
        <time>2012-09-15T07:06:40Z</time>
      </trkpt>
      <trkpt lat="47.31232" lon="4.95647">
        <ele>475</ele>
        <time>2012-09-15T07:06:42Z</time>
      </trkpt>
      <trkpt lat="47.31232" lon="4.95638">
        <ele>475</ele>
        <time>2012-09-15T07:06:45Z</time>
      </trkpt>
      <trkpt lat="47.31232" lon="4.95631">
        <ele>470</ele>
        <time>2012-09-15T07:06:51Z</time>
      </trkpt>
      <trkpt lat="47.3123" lon="4.9562">
        <ele>471</ele>
        <time>2012-09-15T07:06:55Z</time>
      </trkpt>
      <trkpt lat="47.3123" lon="4.95613">
        <ele>472</ele>
        <time>2012-09-15T07:06:59Z</time>
      </trkpt>
      <trkpt lat="47.31231" lon="4.95606">
        <ele>472</ele>
        <time>2012-09-15T07:07:01Z</time>
      </trkpt>
      <trkpt lat="47.31232" lon="4.95599">
        <ele>472</ele>
        <time>2012-09-15T07:07:05Z</time>
      </trkpt>
      <trkpt lat="47.31234" lon="4.95586">
        <ele>472</ele>
        <time>2012-09-15T07:07:07Z</time>
      </trkpt>
      <trkpt lat="47.31235" lon="4.95578">
        <ele>472</ele>
        <time>2012-09-15T07:07:12Z</time>
      </trkpt>
      <trkpt lat="47.31235" lon="4.95568">
        <ele>472</ele>
        <time>2012-09-15T07:07:17Z</time>
      </trkpt>
      <trkpt lat="47.31234" lon="4.9556">
        <ele>472</ele>
        <time>2012-09-15T07:07:20Z</time>
      </trkpt>
      <trkpt lat="47.31234" lon="4.9556">
        <ele>472</ele>
        <time>2012-09-15T07:07:20Z</time>
      </trkpt>
      <trkpt lat="47.31234" lon="4.9556">
        <ele>472</ele>
        <time>2012-09-15T07:07:21Z</time>
      </trkpt>
      <trkpt lat="47.31234" lon="4.95552">
        <ele>473</ele>
        <time>2012-09-15T07:07:26Z</time>
      </trkpt>
      <trkpt lat="47.31236" lon="4.95544">
        <ele>474</ele>
        <time>2012-09-15T07:07:29Z</time>
      </trkpt>
      <trkpt lat="47.31236" lon="4.95533">
        <ele>475</ele>
        <time>2012-09-15T07:07:33Z</time>
      </trkpt>
      <trkpt lat="47.31238" lon="4.95526">
        <ele>475</ele>
        <time>2012-09-15T07:07:36Z</time>
      </trkpt>
      <trkpt lat="47.31238" lon="4.95518">
        <ele>474</ele>
        <time>2012-09-15T07:07:39Z</time>
      </trkpt>
      <trkpt lat="47.31238" lon="4.95511">
        <ele>476</ele>
        <time>2012-09-15T07:07:44Z</time>
      </trkpt>
      <trkpt lat="47.31239" lon="4.95504">
        <ele>476</ele>
        <time>2012-09-15T07:07:46Z</time>
      </trkpt>
      <trkpt lat="47.31242" lon="4.95498">
        <ele>471</ele>
        <time>2012-09-15T07:07:48Z</time>
      </trkpt>
      <trkpt lat="47.31246" lon="4.95491">
        <ele>468</ele>
        <time>2012-09-15T07:07:51Z</time>
      </trkpt>
      <trkpt lat="47.31249" lon="4.95485">
        <ele>463</ele>
        <time>2012-09-15T07:07:54Z</time>
      </trkpt>
      <trkpt lat="47.31251" lon="4.95478">
        <ele>463</ele>
        <time>2012-09-15T07:07:56Z</time>
      </trkpt>
      <trkpt lat="47.31255" lon="4.95472">
        <ele>462</ele>
        <time>2012-09-15T07:07:59Z</time>
      </trkpt>
      <trkpt lat="47.31257" lon="4.95465">
        <ele>464</ele>
        <time>2012-09-15T07:08:03Z</time>
      </trkpt>
      <trkpt lat="47.31259" lon="4.95459">
        <ele>466</ele>
        <time>2012-09-15T07:08:06Z</time>
      </trkpt>
      <trkpt lat="47.3126" lon="4.95452">
        <ele>466</ele>
        <time>2012-09-15T07:08:09Z</time>
      </trkpt>
      <trkpt lat="47.31264" lon="4.95445">
        <ele>468</ele>
        <time>2012-09-15T07:08:13Z</time>
      </trkpt>
      <trkpt lat="47.31266" lon="4.95438">
        <ele>470</ele>
        <time>2012-09-15T07:08:17Z</time>
      </trkpt>
      <trkpt lat="47.3127" lon="4.95431">
        <ele>469</ele>
        <time>2012-09-15T07:08:21Z</time>
      </trkpt>
      <trkpt lat="47.31273" lon="4.95425">
        <ele>471</ele>
        <time>2012-09-15T07:08:24Z</time>
      </trkpt>
      <trkpt lat="47.31276" lon="4.95418">
        <ele>473</ele>
        <time>2012-09-15T07:08:28Z</time>
      </trkpt>
      <trkpt lat="47.31279" lon="4.95412">
        <ele>474</ele>
        <time>2012-09-15T07:08:31Z</time>
      </trkpt>
      <trkpt lat="47.31282" lon="4.95406">
        <ele>475</ele>
        <time>2012-09-15T07:08:34Z</time>
      </trkpt>
      <trkpt lat="47.31286" lon="4.95403">
        <ele>475</ele>
        <time>2012-09-15T07:08:37Z</time>
      </trkpt>
      <trkpt lat="47.3129" lon="4.954">
        <ele>476</ele>
        <time>2012-09-15T07:08:40Z</time>
      </trkpt>
      <trkpt lat="47.31294" lon="4.95394">
        <ele>477</ele>
        <time>2012-09-15T07:08:45Z</time>
      </trkpt>
      <trkpt lat="47.31298" lon="4.95388">
        <ele>478</ele>
        <time>2012-09-15T07:08:49Z</time>
      </trkpt>
      <trkpt lat="47.31301" lon="4.95383">
        <ele>478</ele>
        <time>2012-09-15T07:08:53Z</time>
      </trkpt>
      <trkpt lat="47.31306" lon="4.95378">
        <ele>476</ele>
        <time>2012-09-15T07:08:58Z</time>
      </trkpt>
      <trkpt lat="47.3131" lon="4.9538">
        <ele>471</ele>
        <time>2012-09-15T07:09:03Z</time>
      </trkpt>
      <trkpt lat="47.31307" lon="4.95376">
        <ele>470</ele>
        <time>2012-09-15T07:10:13Z</time>
      </trkpt>
      <trkpt lat="47.31304" lon="4.9537">
        <ele>469</ele>
        <time>2012-09-15T07:10:17Z</time>
      </trkpt>
      <trkpt lat="47.31301" lon="4.95363">
        <ele>469</ele>
        <time>2012-09-15T07:10:20Z</time>
      </trkpt>
      <trkpt lat="47.31298" lon="4.95358">
        <ele>469</ele>
        <time>2012-09-15T07:10:24Z</time>
      </trkpt>
      <trkpt lat="47.31296" lon="4.95351">
        <ele>469</ele>
        <time>2012-09-15T07:10:27Z</time>
      </trkpt>
      <trkpt lat="47.31292" lon="4.95344">
        <ele>470</ele>
        <time>2012-09-15T07:10:31Z</time>
      </trkpt>
      <trkpt lat="47.31293" lon="4.95335">
        <ele>470</ele>
        <time>2012-09-15T07:10:34Z</time>
      </trkpt>
      <trkpt lat="47.31291" lon="4.95329">
        <ele>471</ele>
        <time>2012-09-15T07:10:36Z</time>
      </trkpt>
      <trkpt lat="47.31291" lon="4.95321">
        <ele>471</ele>
        <time>2012-09-15T07:10:38Z</time>
      </trkpt>
      <trkpt lat="47.3129" lon="4.95313">
        <ele>472</ele>
        <time>2012-09-15T07:10:42Z</time>
      </trkpt>
      <trkpt lat="47.31291" lon="4.95305">
        <ele>472</ele>
        <time>2012-09-15T07:10:45Z</time>
      </trkpt>
      <trkpt lat="47.3129" lon="4.95296">
        <ele>472</ele>
        <time>2012-09-15T07:10:47Z</time>
      </trkpt>
      <trkpt lat="47.31288" lon="4.95289">
        <ele>472</ele>
        <time>2012-09-15T07:10:50Z</time>
      </trkpt>
      <trkpt lat="47.31287" lon="4.95282">
        <ele>474</ele>
        <time>2012-09-15T07:10:53Z</time>
      </trkpt>
      <trkpt lat="47.31286" lon="4.95273">
        <ele>474</ele>
        <time>2012-09-15T07:10:57Z</time>
      </trkpt>
      <trkpt lat="47.31285" lon="4.95266">
        <ele>474</ele>
        <time>2012-09-15T07:11:00Z</time>
      </trkpt>
      <trkpt lat="47.31286" lon="4.95258">
        <ele>475</ele>
        <time>2012-09-15T07:11:03Z</time>
      </trkpt>
      <trkpt lat="47.31286" lon="4.9525">
        <ele>474</ele>
        <time>2012-09-15T07:11:07Z</time>
      </trkpt>
      <trkpt lat="47.31284" lon="4.95244">
        <ele>474</ele>
        <time>2012-09-15T07:11:11Z</time>
      </trkpt>
      <trkpt lat="47.31283" lon="4.95234">
        <ele>473</ele>
        <time>2012-09-15T07:11:15Z</time>
      </trkpt>
      <trkpt lat="47.31282" lon="4.95226">
        <ele>472</ele>
        <time>2012-09-15T07:11:18Z</time>
      </trkpt>
      <trkpt lat="47.31282" lon="4.95219">
        <ele>472</ele>
        <time>2012-09-15T07:11:21Z</time>
      </trkpt>
      <trkpt lat="47.31282" lon="4.95211">
        <ele>471</ele>
        <time>2012-09-15T07:11:24Z</time>
      </trkpt>
      <trkpt lat="47.31279" lon="4.95204">
        <ele>472</ele>
        <time>2012-09-15T07:11:27Z</time>
      </trkpt>
      <trkpt lat="47.31275" lon="4.95199">
        <ele>471</ele>
        <time>2012-09-15T07:11:31Z</time>
      </trkpt>
      <trkpt lat="47.31274" lon="4.95189">
        <ele>472</ele>
        <time>2012-09-15T07:11:35Z</time>
      </trkpt>
      <trkpt lat="47.31273" lon="4.95181">
        <ele>472</ele>
        <time>2012-09-15T07:11:37Z</time>
      </trkpt>
      <trkpt lat="47.31274" lon="4.95172">
        <ele>472</ele>
        <time>2012-09-15T07:11:39Z</time>
      </trkpt>
      <trkpt lat="47.31272" lon="4.95162">
        <ele>472</ele>
        <time>2012-09-15T07:11:43Z</time>
      </trkpt>
      <trkpt lat="47.31271" lon="4.95155">
        <ele>472</ele>
        <time>2012-09-15T07:11:48Z</time>
      </trkpt>
      <trkpt lat="47.31269" lon="4.95147">
        <ele>474</ele>
        <time>2012-09-15T07:11:51Z</time>
      </trkpt>
      <trkpt lat="47.31268" lon="4.9514">
        <ele>474</ele>
        <time>2012-09-15T07:11:54Z</time>
      </trkpt>
      <trkpt lat="47.31266" lon="4.95131">
        <ele>474</ele>
        <time>2012-09-15T07:11:58Z</time>
      </trkpt>
      <trkpt lat="47.31264" lon="4.95123">
        <ele>473</ele>
        <time>2012-09-15T07:12:02Z</time>
      </trkpt>
      <trkpt lat="47.31263" lon="4.95115">
        <ele>472</ele>
        <time>2012-09-15T07:12:05Z</time>
      </trkpt>
      <trkpt lat="47.31261" lon="4.95109">
        <ele>472</ele>
        <time>2012-09-15T07:12:08Z</time>
      </trkpt>
      <trkpt lat="47.31259" lon="4.95103">
        <ele>471</ele>
        <time>2012-09-15T07:12:11Z</time>
      </trkpt>
      <trkpt lat="47.31256" lon="4.95098">
        <ele>470</ele>
        <time>2012-09-15T07:12:15Z</time>
      </trkpt>
      <trkpt lat="47.31252" lon="4.95093">
        <ele>470</ele>
        <time>2012-09-15T07:12:18Z</time>
      </trkpt>
      <trkpt lat="47.3125" lon="4.95088">
        <ele>469</ele>
        <time>2012-09-15T07:12:21Z</time>
      </trkpt>
      <trkpt lat="47.31247" lon="4.95079">
        <ele>469</ele>
        <time>2012-09-15T07:12:25Z</time>
      </trkpt>
      <trkpt lat="47.31245" lon="4.95073">
        <ele>470</ele>
        <time>2012-09-15T07:12:28Z</time>
      </trkpt>
      <trkpt lat="47.31244" lon="4.95066">
        <ele>470</ele>
        <time>2012-09-15T07:12:31Z</time>
      </trkpt>
      <trkpt lat="47.31242" lon="4.9506">
        <ele>469</ele>
        <time>2012-09-15T07:12:33Z</time>
      </trkpt>
      <trkpt lat="47.31239" lon="4.95055">
        <ele>469</ele>
        <time>2012-09-15T07:12:36Z</time>
      </trkpt>
      <trkpt lat="47.31238" lon="4.95047">
        <ele>470</ele>
        <time>2012-09-15T07:12:39Z</time>
      </trkpt>
      <trkpt lat="47.31236" lon="4.9504">
        <ele>470</ele>
        <time>2012-09-15T07:12:42Z</time>
      </trkpt>
      <trkpt lat="47.31234" lon="4.95033">
        <ele>470</ele>
        <time>2012-09-15T07:12:45Z</time>
      </trkpt>
      <trkpt lat="47.31232" lon="4.95027">
        <ele>470</ele>
        <time>2012-09-15T07:12:48Z</time>
      </trkpt>
      <trkpt lat="47.31229" lon="4.9502">
        <ele>471</ele>
        <time>2012-09-15T07:12:51Z</time>
      </trkpt>
      <trkpt lat="47.31227" lon="4.95013">
        <ele>471</ele>
        <time>2012-09-15T07:12:54Z</time>
      </trkpt>
      <trkpt lat="47.31225" lon="4.95008">
        <ele>471</ele>
        <time>2012-09-15T07:12:57Z</time>
      </trkpt>
      <trkpt lat="47.31222" lon="4.95002">
        <ele>472</ele>
        <time>2012-09-15T07:13:01Z</time>
      </trkpt>
      <trkpt lat="47.31221" lon="4.94994">
        <ele>472</ele>
        <time>2012-09-15T07:13:04Z</time>
      </trkpt>
      <trkpt lat="47.31219" lon="4.94988">
        <ele>473</ele>
        <time>2012-09-15T07:13:07Z</time>
      </trkpt>
      <trkpt lat="47.31218" lon="4.94981">
        <ele>474</ele>
        <time>2012-09-15T07:13:10Z</time>
      </trkpt>
      <trkpt lat="47.31216" lon="4.94974">
        <ele>474</ele>
        <time>2012-09-15T07:13:13Z</time>
      </trkpt>
      <trkpt lat="47.31214" lon="4.94968">
        <ele>474</ele>
        <time>2012-09-15T07:13:16Z</time>
      </trkpt>
      <trkpt lat="47.31211" lon="4.9496">
        <ele>476</ele>
        <time>2012-09-15T07:13:19Z</time>
      </trkpt>
      <trkpt lat="47.3121" lon="4.94952">
        <ele>476</ele>
        <time>2012-09-15T07:13:22Z</time>
      </trkpt>
      <trkpt lat="47.31208" lon="4.94946">
        <ele>478</ele>
        <time>2012-09-15T07:13:25Z</time>
      </trkpt>
      <trkpt lat="47.31206" lon="4.94939">
        <ele>479</ele>
        <time>2012-09-15T07:13:28Z</time>
      </trkpt>
      <trkpt lat="47.31204" lon="4.94932">
        <ele>479</ele>
        <time>2012-09-15T07:13:31Z</time>
      </trkpt>
      <trkpt lat="47.31205" lon="4.94923">
        <ele>479</ele>
        <time>2012-09-15T07:13:34Z</time>
      </trkpt>
      <trkpt lat="47.31205" lon="4.94914">
        <ele>479</ele>
        <time>2012-09-15T07:13:37Z</time>
      </trkpt>
      <trkpt lat="47.31204" lon="4.94907">
        <ele>479</ele>
        <time>2012-09-15T07:13:40Z</time>
      </trkpt>
      <trkpt lat="47.31202" lon="4.949">
        <ele>480</ele>
        <time>2012-09-15T07:13:43Z</time>
      </trkpt>
      <trkpt lat="47.31201" lon="4.94891">
        <ele>480</ele>
        <time>2012-09-15T07:13:47Z</time>
      </trkpt>
      <trkpt lat="47.312" lon="4.94882">
        <ele>480</ele>
        <time>2012-09-15T07:13:51Z</time>
      </trkpt>
      <trkpt lat="47.312" lon="4.94873">
        <ele>480</ele>
        <time>2012-09-15T07:13:54Z</time>
      </trkpt>
      <trkpt lat="47.312" lon="4.94863">
        <ele>480</ele>
        <time>2012-09-15T07:13:58Z</time>
      </trkpt>
      <trkpt lat="47.312" lon="4.94856">
        <ele>480</ele>
        <time>2012-09-15T07:14:01Z</time>
      </trkpt>
      <trkpt lat="47.312" lon="4.94848">
        <ele>478</ele>
        <time>2012-09-15T07:14:05Z</time>
      </trkpt>
      <trkpt lat="47.31199" lon="4.9484">
        <ele>479</ele>
        <time>2012-09-15T07:14:08Z</time>
      </trkpt>
      <trkpt lat="47.31198" lon="4.94832">
        <ele>479</ele>
        <time>2012-09-15T07:14:12Z</time>
      </trkpt>
      <trkpt lat="47.31197" lon="4.94825">
        <ele>479</ele>
        <time>2012-09-15T07:14:15Z</time>
      </trkpt>
      <trkpt lat="47.31195" lon="4.94817">
        <ele>479</ele>
        <time>2012-09-15T07:14:19Z</time>
      </trkpt>
      <trkpt lat="47.31195" lon="4.9481">
        <ele>479</ele>
        <time>2012-09-15T07:14:22Z</time>
      </trkpt>
      <trkpt lat="47.31194" lon="4.94802">
        <ele>478</ele>
        <time>2012-09-15T07:14:25Z</time>
      </trkpt>
      <trkpt lat="47.31192" lon="4.94795">
        <ele>478</ele>
        <time>2012-09-15T07:14:28Z</time>
      </trkpt>
      <trkpt lat="47.31191" lon="4.94788">
        <ele>478</ele>
        <time>2012-09-15T07:14:31Z</time>
      </trkpt>
      <trkpt lat="47.31189" lon="4.9478">
        <ele>478</ele>
        <time>2012-09-15T07:14:34Z</time>
      </trkpt>
      <trkpt lat="47.31187" lon="4.94774">
        <ele>478</ele>
        <time>2012-09-15T07:14:37Z</time>
      </trkpt>
      <trkpt lat="47.31186" lon="4.94764">
        <ele>478</ele>
        <time>2012-09-15T07:14:41Z</time>
      </trkpt>
      <trkpt lat="47.31185" lon="4.94757">
        <ele>478</ele>
        <time>2012-09-15T07:14:44Z</time>
      </trkpt>
      <trkpt lat="47.31183" lon="4.9475">
        <ele>478</ele>
        <time>2012-09-15T07:14:47Z</time>
      </trkpt>
      <trkpt lat="47.31182" lon="4.94743">
        <ele>479</ele>
        <time>2012-09-15T07:14:50Z</time>
      </trkpt>
      <trkpt lat="47.31182" lon="4.94736">
        <ele>479</ele>
        <time>2012-09-15T07:14:53Z</time>
      </trkpt>
      <trkpt lat="47.31181" lon="4.94728">
        <ele>479</ele>
        <time>2012-09-15T07:14:56Z</time>
      </trkpt>
      <trkpt lat="47.3118" lon="4.94721">
        <ele>479</ele>
        <time>2012-09-15T07:14:59Z</time>
      </trkpt>
      <trkpt lat="47.31178" lon="4.94714">
        <ele>479</ele>
        <time>2012-09-15T07:15:02Z</time>
      </trkpt>
      <trkpt lat="47.31177" lon="4.94707">
        <ele>479</ele>
        <time>2012-09-15T07:15:05Z</time>
      </trkpt>
      <trkpt lat="47.31176" lon="4.94698">
        <ele>478</ele>
        <time>2012-09-15T07:15:09Z</time>
      </trkpt>
      <trkpt lat="47.31175" lon="4.9469">
        <ele>479</ele>
        <time>2012-09-15T07:15:12Z</time>
      </trkpt>
      <trkpt lat="47.31175" lon="4.94682">
        <ele>478</ele>
        <time>2012-09-15T07:15:15Z</time>
      </trkpt>
      <trkpt lat="47.31174" lon="4.94676">
        <ele>478</ele>
        <time>2012-09-15T07:15:18Z</time>
      </trkpt>
      <trkpt lat="47.31174" lon="4.94668">
        <ele>478</ele>
        <time>2012-09-15T07:15:21Z</time>
      </trkpt>
      <trkpt lat="47.31172" lon="4.94659">
        <ele>478</ele>
        <time>2012-09-15T07:15:25Z</time>
      </trkpt>
      <trkpt lat="47.31171" lon="4.9465">
        <ele>478</ele>
        <time>2012-09-15T07:15:29Z</time>
      </trkpt>
      <trkpt lat="47.3117" lon="4.94643">
        <ele>478</ele>
        <time>2012-09-15T07:15:32Z</time>
      </trkpt>
      <trkpt lat="47.31169" lon="4.94636">
        <ele>478</ele>
        <time>2012-09-15T07:15:35Z</time>
      </trkpt>
      <trkpt lat="47.31169" lon="4.94629">
        <ele>478</ele>
        <time>2012-09-15T07:15:38Z</time>
      </trkpt>
      <trkpt lat="47.31167" lon="4.94622">
        <ele>478</ele>
        <time>2012-09-15T07:15:41Z</time>
      </trkpt>
      <trkpt lat="47.31166" lon="4.94615">
        <ele>478</ele>
        <time>2012-09-15T07:15:44Z</time>
      </trkpt>
      <trkpt lat="47.31164" lon="4.94606">
        <ele>478</ele>
        <time>2012-09-15T07:15:48Z</time>
      </trkpt>
      <trkpt lat="47.31163" lon="4.94599">
        <ele>477</ele>
        <time>2012-09-15T07:15:51Z</time>
      </trkpt>
      <trkpt lat="47.31161" lon="4.94593">
        <ele>477</ele>
        <time>2012-09-15T07:15:54Z</time>
      </trkpt>
      <trkpt lat="47.31159" lon="4.94586">
        <ele>477</ele>
        <time>2012-09-15T07:15:57Z</time>
      </trkpt>
      <trkpt lat="47.31156" lon="4.9458">
        <ele>477</ele>
        <time>2012-09-15T07:16:00Z</time>
      </trkpt>
      <trkpt lat="47.31154" lon="4.94574">
        <ele>477</ele>
        <time>2012-09-15T07:16:03Z</time>
      </trkpt>
      <trkpt lat="47.31152" lon="4.94568">
        <ele>477</ele>
        <time>2012-09-15T07:16:06Z</time>
      </trkpt>
      <trkpt lat="47.31149" lon="4.94561">
        <ele>477</ele>
        <time>2012-09-15T07:16:09Z</time>
      </trkpt>
      <trkpt lat="47.31146" lon="4.94555">
        <ele>477</ele>
        <time>2012-09-15T07:16:12Z</time>
      </trkpt>
      <trkpt lat="47.31144" lon="4.94548">
        <ele>477</ele>
        <time>2012-09-15T07:16:15Z</time>
      </trkpt>
      <trkpt lat="47.31141" lon="4.94542">
        <ele>477</ele>
        <time>2012-09-15T07:16:18Z</time>
      </trkpt>
      <trkpt lat="47.31138" lon="4.94536">
        <ele>477</ele>
        <time>2012-09-15T07:16:21Z</time>
      </trkpt>
      <trkpt lat="47.31135" lon="4.9453">
        <ele>476</ele>
        <time>2012-09-15T07:16:24Z</time>
      </trkpt>
      <trkpt lat="47.31132" lon="4.94524">
        <ele>476</ele>
        <time>2012-09-15T07:16:27Z</time>
      </trkpt>
      <trkpt lat="47.31129" lon="4.94518">
        <ele>475</ele>
        <time>2012-09-15T07:16:30Z</time>
      </trkpt>
      <trkpt lat="47.31126" lon="4.94512">
        <ele>474</ele>
        <time>2012-09-15T07:16:33Z</time>
      </trkpt>
      <trkpt lat="47.31123" lon="4.94505">
        <ele>474</ele>
        <time>2012-09-15T07:16:36Z</time>
      </trkpt>
      <trkpt lat="47.3112" lon="4.945">
        <ele>473</ele>
        <time>2012-09-15T07:16:39Z</time>
      </trkpt>
      <trkpt lat="47.31116" lon="4.94495">
        <ele>474</ele>
        <time>2012-09-15T07:16:42Z</time>
      </trkpt>
      <trkpt lat="47.31114" lon="4.94489">
        <ele>474</ele>
        <time>2012-09-15T07:16:45Z</time>
      </trkpt>
      <trkpt lat="47.31111" lon="4.94483">
        <ele>474</ele>
        <time>2012-09-15T07:16:48Z</time>
      </trkpt>
      <trkpt lat="47.31108" lon="4.94476">
        <ele>475</ele>
        <time>2012-09-15T07:16:52Z</time>
      </trkpt>
      <trkpt lat="47.31104" lon="4.9447">
        <ele>475</ele>
        <time>2012-09-15T07:16:56Z</time>
      </trkpt>
      <trkpt lat="47.31101" lon="4.94464">
        <ele>475</ele>
        <time>2012-09-15T07:17:00Z</time>
      </trkpt>
      <trkpt lat="47.31098" lon="4.94456">
        <ele>475</ele>
        <time>2012-09-15T07:17:04Z</time>
      </trkpt>
      <trkpt lat="47.31095" lon="4.9445">
        <ele>474</ele>
        <time>2012-09-15T07:17:07Z</time>
      </trkpt>
      <trkpt lat="47.31092" lon="4.94445">
        <ele>474</ele>
        <time>2012-09-15T07:17:10Z</time>
      </trkpt>
      <trkpt lat="47.3109" lon="4.94438">
        <ele>473</ele>
        <time>2012-09-15T07:17:13Z</time>
      </trkpt>
      <trkpt lat="47.31088" lon="4.94431">
        <ele>473</ele>
        <time>2012-09-15T07:17:16Z</time>
      </trkpt>
      <trkpt lat="47.31085" lon="4.94426">
        <ele>473</ele>
        <time>2012-09-15T07:17:19Z</time>
      </trkpt>
      <trkpt lat="47.31082" lon="4.9442">
        <ele>473</ele>
        <time>2012-09-15T07:17:22Z</time>
      </trkpt>
      <trkpt lat="47.31079" lon="4.94412">
        <ele>473</ele>
        <time>2012-09-15T07:17:26Z</time>
      </trkpt>
      <trkpt lat="47.31076" lon="4.94405">
        <ele>473</ele>
        <time>2012-09-15T07:17:30Z</time>
      </trkpt>
      <trkpt lat="47.31072" lon="4.94398">
        <ele>473</ele>
        <time>2012-09-15T07:17:34Z</time>
      </trkpt>
      <trkpt lat="47.31069" lon="4.94392">
        <ele>473</ele>
        <time>2012-09-15T07:17:37Z</time>
      </trkpt>
      <trkpt lat="47.31066" lon="4.94384">
        <ele>473</ele>
        <time>2012-09-15T07:17:41Z</time>
      </trkpt>
      <trkpt lat="47.31064" lon="4.94378">
        <ele>474</ele>
        <time>2012-09-15T07:17:44Z</time>
      </trkpt>
      <trkpt lat="47.31061" lon="4.94373">
        <ele>473</ele>
        <time>2012-09-15T07:17:47Z</time>
      </trkpt>
      <trkpt lat="47.31058" lon="4.94365">
        <ele>474</ele>
        <time>2012-09-15T07:17:51Z</time>
      </trkpt>
      <trkpt lat="47.31055" lon="4.94358">
        <ele>473</ele>
        <time>2012-09-15T07:17:55Z</time>
      </trkpt>
      <trkpt lat="47.31052" lon="4.94352">
        <ele>474</ele>
        <time>2012-09-15T07:17:58Z</time>
      </trkpt>
      <trkpt lat="47.31049" lon="4.94346">
        <ele>474</ele>
        <time>2012-09-15T07:18:01Z</time>
      </trkpt>
      <trkpt lat="47.31046" lon="4.94339">
        <ele>474</ele>
        <time>2012-09-15T07:18:04Z</time>
      </trkpt>
      <trkpt lat="47.31044" lon="4.94332">
        <ele>474</ele>
        <time>2012-09-15T07:18:07Z</time>
      </trkpt>
      <trkpt lat="47.31041" lon="4.94325">
        <ele>474</ele>
        <time>2012-09-15T07:18:11Z</time>
      </trkpt>
      <trkpt lat="47.31038" lon="4.94319">
        <ele>474</ele>
        <time>2012-09-15T07:18:14Z</time>
      </trkpt>
      <trkpt lat="47.31036" lon="4.94313">
        <ele>474</ele>
        <time>2012-09-15T07:18:17Z</time>
      </trkpt>
      <trkpt lat="47.31033" lon="4.94307">
        <ele>475</ele>
        <time>2012-09-15T07:18:20Z</time>
      </trkpt>
      <trkpt lat="47.3103" lon="4.943">
        <ele>475</ele>
        <time>2012-09-15T07:18:23Z</time>
      </trkpt>
      <trkpt lat="47.31028" lon="4.94294">
        <ele>475</ele>
        <time>2012-09-15T07:18:26Z</time>
      </trkpt>
      <trkpt lat="47.31024" lon="4.94286">
        <ele>475</ele>
        <time>2012-09-15T07:18:30Z</time>
      </trkpt>
      <trkpt lat="47.31022" lon="4.9428">
        <ele>475</ele>
        <time>2012-09-15T07:18:33Z</time>
      </trkpt>
      <trkpt lat="47.3102" lon="4.94273">
        <ele>475</ele>
        <time>2012-09-15T07:18:37Z</time>
      </trkpt>
      <trkpt lat="47.31018" lon="4.94266">
        <ele>476</ele>
        <time>2012-09-15T07:18:40Z</time>
      </trkpt>
      <trkpt lat="47.31016" lon="4.94258">
        <ele>475</ele>
        <time>2012-09-15T07:18:44Z</time>
      </trkpt>
      <trkpt lat="47.31014" lon="4.94251">
        <ele>474</ele>
        <time>2012-09-15T07:18:47Z</time>
      </trkpt>
      <trkpt lat="47.31012" lon="4.94243">
        <ele>475</ele>
        <time>2012-09-15T07:18:51Z</time>
      </trkpt>
      <trkpt lat="47.31009" lon="4.94236">
        <ele>476</ele>
        <time>2012-09-15T07:18:54Z</time>
      </trkpt>
      <trkpt lat="47.31008" lon="4.94229">
        <ele>475</ele>
        <time>2012-09-15T07:18:57Z</time>
      </trkpt>
      <trkpt lat="47.31008" lon="4.94221">
        <ele>476</ele>
        <time>2012-09-15T07:19:00Z</time>
      </trkpt>
      <trkpt lat="47.31009" lon="4.94214">
        <ele>476</ele>
        <time>2012-09-15T07:19:02Z</time>
      </trkpt>
      <trkpt lat="47.31008" lon="4.94207">
        <ele>476</ele>
        <time>2012-09-15T07:19:05Z</time>
      </trkpt>
      <trkpt lat="47.31006" lon="4.94201">
        <ele>476</ele>
        <time>2012-09-15T07:19:08Z</time>
      </trkpt>
      <trkpt lat="47.31002" lon="4.94194">
        <ele>477</ele>
        <time>2012-09-15T07:19:12Z</time>
      </trkpt>
      <trkpt lat="47.30999" lon="4.94188">
        <ele>477</ele>
        <time>2012-09-15T07:19:16Z</time>
      </trkpt>
      <trkpt lat="47.30994" lon="4.94186">
        <ele>477</ele>
        <time>2012-09-15T07:19:20Z</time>
      </trkpt>
      <trkpt lat="47.30989" lon="4.94185">
        <ele>477</ele>
        <time>2012-09-15T07:19:24Z</time>
      </trkpt>
      <trkpt lat="47.30984" lon="4.94186">
        <ele>478</ele>
        <time>2012-09-15T07:19:28Z</time>
      </trkpt>
      <trkpt lat="47.3098" lon="4.94188">
        <ele>478</ele>
        <time>2012-09-15T07:19:31Z</time>
      </trkpt>
      <trkpt lat="47.30976" lon="4.94194">
        <ele>478</ele>
        <time>2012-09-15T07:19:35Z</time>
      </trkpt>
      <trkpt lat="47.30972" lon="4.94202">
        <ele>477</ele>
        <time>2012-09-15T07:19:39Z</time>
      </trkpt>
      <trkpt lat="47.30971" lon="4.94208">
        <ele>477</ele>
        <time>2012-09-15T07:19:42Z</time>
      </trkpt>
      <trkpt lat="47.30969" lon="4.94215">
        <ele>477</ele>
        <time>2012-09-15T07:19:45Z</time>
      </trkpt>
      <trkpt lat="47.30967" lon="4.94221">
        <ele>477</ele>
        <time>2012-09-15T07:19:48Z</time>
      </trkpt>
      <trkpt lat="47.30965" lon="4.94228">
        <ele>477</ele>
        <time>2012-09-15T07:19:51Z</time>
      </trkpt>
      <trkpt lat="47.30963" lon="4.94235">
        <ele>477</ele>
        <time>2012-09-15T07:19:54Z</time>
      </trkpt>
      <trkpt lat="47.30961" lon="4.94242">
        <ele>476</ele>
        <time>2012-09-15T07:19:57Z</time>
      </trkpt>
      <trkpt lat="47.30958" lon="4.94248">
        <ele>476</ele>
        <time>2012-09-15T07:20:00Z</time>
      </trkpt>
      <trkpt lat="47.30955" lon="4.94253">
        <ele>476</ele>
        <time>2012-09-15T07:20:03Z</time>
      </trkpt>
      <trkpt lat="47.30952" lon="4.94259">
        <ele>476</ele>
        <time>2012-09-15T07:20:06Z</time>
      </trkpt>
      <trkpt lat="47.30947" lon="4.94264">
        <ele>476</ele>
        <time>2012-09-15T07:20:09Z</time>
      </trkpt>
      <trkpt lat="47.30943" lon="4.94268">
        <ele>476</ele>
        <time>2012-09-15T07:20:12Z</time>
      </trkpt>
      <trkpt lat="47.30938" lon="4.94272">
        <ele>475</ele>
        <time>2012-09-15T07:20:15Z</time>
      </trkpt>
      <trkpt lat="47.30934" lon="4.94275">
        <ele>475</ele>
        <time>2012-09-15T07:20:18Z</time>
      </trkpt>
      <trkpt lat="47.30928" lon="4.94278">
        <ele>475</ele>
        <time>2012-09-15T07:20:21Z</time>
      </trkpt>
      <trkpt lat="47.30924" lon="4.9428">
        <ele>475</ele>
        <time>2012-09-15T07:20:24Z</time>
      </trkpt>
      <trkpt lat="47.30919" lon="4.94283">
        <ele>475</ele>
        <time>2012-09-15T07:20:27Z</time>
      </trkpt>
      <trkpt lat="47.30914" lon="4.94285">
        <ele>475</ele>
        <time>2012-09-15T07:20:30Z</time>
      </trkpt>
      <trkpt lat="47.30909" lon="4.94287">
        <ele>476</ele>
        <time>2012-09-15T07:20:33Z</time>
      </trkpt>
      <trkpt lat="47.30904" lon="4.94289">
        <ele>476</ele>
        <time>2012-09-15T07:20:36Z</time>
      </trkpt>
      <trkpt lat="47.30899" lon="4.94291">
        <ele>476</ele>
        <time>2012-09-15T07:20:39Z</time>
      </trkpt>
      <trkpt lat="47.30894" lon="4.94293">
        <ele>476</ele>
        <time>2012-09-15T07:20:42Z</time>
      </trkpt>
      <trkpt lat="47.30889" lon="4.94295">
        <ele>477</ele>
        <time>2012-09-15T07:20:45Z</time>
      </trkpt>
      <trkpt lat="47.30883" lon="4.94297">
        <ele>477</ele>
        <time>2012-09-15T07:20:48Z</time>
      </trkpt>
      <trkpt lat="47.30879" lon="4.94298">
        <ele>477</ele>
        <time>2012-09-15T07:20:51Z</time>
      </trkpt>
      <trkpt lat="47.30873" lon="4.94299">
        <ele>477</ele>
        <time>2012-09-15T07:20:54Z</time>
      </trkpt>
      <trkpt lat="47.30868" lon="4.943">
        <ele>478</ele>
        <time>2012-09-15T07:20:57Z</time>
      </trkpt>
      <trkpt lat="47.30863" lon="4.943">
        <ele>478</ele>
        <time>2012-09-15T07:21:00Z</time>
      </trkpt>
      <trkpt lat="47.30858" lon="4.94301">
        <ele>478</ele>
        <time>2012-09-15T07:21:03Z</time>
      </trkpt>
      <trkpt lat="47.30853" lon="4.94301">
        <ele>478</ele>
        <time>2012-09-15T07:21:06Z</time>
      </trkpt>
      <trkpt lat="47.30848" lon="4.943">
        <ele>479</ele>
        <time>2012-09-15T07:21:09Z</time>
      </trkpt>
      <trkpt lat="47.30843" lon="4.943">
        <ele>479</ele>
        <time>2012-09-15T07:21:12Z</time>
      </trkpt>
      <trkpt lat="47.30838" lon="4.943">
        <ele>479</ele>
        <time>2012-09-15T07:21:15Z</time>
      </trkpt>
      <trkpt lat="47.30833" lon="4.943">
        <ele>480</ele>
        <time>2012-09-15T07:21:18Z</time>
      </trkpt>
      <trkpt lat="47.30828" lon="4.94299">
        <ele>480</ele>
        <time>2012-09-15T07:21:21Z</time>
      </trkpt>
      <trkpt lat="47.30823" lon="4.94299">
        <ele>480</ele>
        <time>2012-09-15T07:21:24Z</time>
      </trkpt>
      <trkpt lat="47.30818" lon="4.94299">
        <ele>481</ele>
        <time>2012-09-15T07:21:27Z</time>
      </trkpt>
      <trkpt lat="47.30813" lon="4.94299">
        <ele>481</ele>
        <time>2012-09-15T07:21:30Z</time>
      </trkpt>
      <trkpt lat="47.30808" lon="4.943">
        <ele>481</ele>
        <time>2012-09-15T07:21:33Z</time>
      </trkpt>
      <trkpt lat="47.30803" lon="4.943">
        <ele>481</ele>
        <time>2012-09-15T07:21:36Z</time>
      </trkpt>
      <trkpt lat="47.30798" lon="4.94302">
        <ele>481</ele>
        <time>2012-09-15T07:21:39Z</time>
      </trkpt>
      <trkpt lat="47.30793" lon="4.94303">
        <ele>481</ele>
        <time>2012-09-15T07:21:42Z</time>
      </trkpt>
      <trkpt lat="47.30788" lon="4.94304">
        <ele>481</ele>
        <time>2012-09-15T07:21:45Z</time>
      </trkpt>
      <trkpt lat="47.30784" lon="4.94306">
        <ele>481</ele>
        <time>2012-09-15T07:21:48Z</time>
      </trkpt>
      <trkpt lat="47.30779" lon="4.94308">
        <ele>481</ele>
        <time>2012-09-15T07:21:51Z</time>
      </trkpt>
      <trkpt lat="47.30774" lon="4.9431">
        <ele>481</ele>
        <time>2012-09-15T07:21:54Z</time>
      </trkpt>
      <trkpt lat="47.3077" lon="4.94312">
        <ele>481</ele>
        <time>2012-09-15T07:21:57Z</time>
      </trkpt>
      <trkpt lat="47.30765" lon="4.94315">
        <ele>481</ele>
        <time>2012-09-15T07:22:00Z</time>
      </trkpt>
      <trkpt lat="47.30761" lon="4.94318">
        <ele>480</ele>
        <time>2012-09-15T07:22:03Z</time>
      </trkpt>
      <trkpt lat="47.30757" lon="4.94322">
        <ele>480</ele>
        <time>2012-09-15T07:22:06Z</time>
      </trkpt>
      <trkpt lat="47.30754" lon="4.94327">
        <ele>480</ele>
        <time>2012-09-15T07:22:09Z</time>
      </trkpt>
      <trkpt lat="47.30749" lon="4.94332">
        <ele>479</ele>
        <time>2012-09-15T07:22:12Z</time>
      </trkpt>
      <trkpt lat="47.30747" lon="4.94338">
        <ele>479</ele>
        <time>2012-09-15T07:22:15Z</time>
      </trkpt>
      <trkpt lat="47.30745" lon="4.94343">
        <ele>479</ele>
        <time>2012-09-15T07:22:18Z</time>
      </trkpt>
      <trkpt lat="47.30743" lon="4.9435">
        <ele>480</ele>
        <time>2012-09-15T07:22:21Z</time>
      </trkpt>
      <trkpt lat="47.30741" lon="4.94356">
        <ele>480</ele>
        <time>2012-09-15T07:22:24Z</time>
      </trkpt>
      <trkpt lat="47.30741" lon="4.94364">
        <ele>484</ele>
        <time>2012-09-15T07:22:28Z</time>
      </trkpt>
      <trkpt lat="47.30738" lon="4.9437">
        <ele>484</ele>
        <time>2012-09-15T07:22:31Z</time>
      </trkpt>
      <trkpt lat="47.30735" lon="4.94376">
        <ele>484</ele>
        <time>2012-09-15T07:22:34Z</time>
      </trkpt>
      <trkpt lat="47.30732" lon="4.94382">
        <ele>483</ele>
        <time>2012-09-15T07:22:37Z</time>
      </trkpt>
      <trkpt lat="47.3073" lon="4.94387">
        <ele>483</ele>
        <time>2012-09-15T07:22:40Z</time>
      </trkpt>
      <trkpt lat="47.30727" lon="4.94393">
        <ele>485</ele>
        <time>2012-09-15T07:22:43Z</time>
      </trkpt>
      <trkpt lat="47.30724" lon="4.94401">
        <ele>485</ele>
        <time>2012-09-15T07:22:47Z</time>
      </trkpt>
      <trkpt lat="47.30722" lon="4.94407">
        <ele>486</ele>
        <time>2012-09-15T07:22:50Z</time>
      </trkpt>
      <trkpt lat="47.30719" lon="4.94413">
        <ele>486</ele>
        <time>2012-09-15T07:22:53Z</time>
      </trkpt>
      <trkpt lat="47.30716" lon="4.94418">
        <ele>486</ele>
        <time>2012-09-15T07:22:56Z</time>
      </trkpt>
      <trkpt lat="47.30713" lon="4.94425">
        <ele>488</ele>
        <time>2012-09-15T07:23:00Z</time>
      </trkpt>
      <trkpt lat="47.3071" lon="4.94431">
        <ele>489</ele>
        <time>2012-09-15T07:23:03Z</time>
      </trkpt>
      <trkpt lat="47.30708" lon="4.94437">
        <ele>489</ele>
        <time>2012-09-15T07:23:06Z</time>
      </trkpt>
      <trkpt lat="47.30704" lon="4.94442">
        <ele>490</ele>
        <time>2012-09-15T07:23:10Z</time>
      </trkpt>
      <trkpt lat="47.30701" lon="4.9445">
        <ele>491</ele>
        <time>2012-09-15T07:23:13Z</time>
      </trkpt>
      <trkpt lat="47.30699" lon="4.94456">
        <ele>490</ele>
        <time>2012-09-15T07:23:16Z</time>
      </trkpt>
      <trkpt lat="47.30696" lon="4.94461">
        <ele>489</ele>
        <time>2012-09-15T07:23:19Z</time>
      </trkpt>
      <trkpt lat="47.30694" lon="4.94468">
        <ele>490</ele>
        <time>2012-09-15T07:23:22Z</time>
      </trkpt>
      <trkpt lat="47.30691" lon="4.94474">
        <ele>489</ele>
        <time>2012-09-15T07:23:25Z</time>
      </trkpt>
      <trkpt lat="47.30688" lon="4.9448">
        <ele>489</ele>
        <time>2012-09-15T07:23:29Z</time>
      </trkpt>
      <trkpt lat="47.30684" lon="4.94485">
        <ele>490</ele>
        <time>2012-09-15T07:23:34Z</time>
      </trkpt>
      <trkpt lat="47.30681" lon="4.94492">
        <ele>490</ele>
        <time>2012-09-15T07:23:48Z</time>
      </trkpt>
      <trkpt lat="47.30678" lon="4.94498">
        <ele>490</ele>
        <time>2012-09-15T07:23:52Z</time>
      </trkpt>
      <trkpt lat="47.30674" lon="4.94505">
        <ele>490</ele>
        <time>2012-09-15T07:23:56Z</time>
      </trkpt>
      <trkpt lat="47.30671" lon="4.9451">
        <ele>489</ele>
        <time>2012-09-15T07:23:59Z</time>
      </trkpt>
      <trkpt lat="47.30667" lon="4.94516">
        <ele>488</ele>
        <time>2012-09-15T07:24:02Z</time>
      </trkpt>
      <trkpt lat="47.30664" lon="4.94521">
        <ele>488</ele>
        <time>2012-09-15T07:24:05Z</time>
      </trkpt>
      <trkpt lat="47.3066" lon="4.94526">
        <ele>488</ele>
        <time>2012-09-15T07:24:08Z</time>
      </trkpt>
      <trkpt lat="47.30655" lon="4.94531">
        <ele>487</ele>
        <time>2012-09-15T07:24:11Z</time>
      </trkpt>
      <trkpt lat="47.30652" lon="4.94536">
        <ele>487</ele>
        <time>2012-09-15T07:24:14Z</time>
      </trkpt>
      <trkpt lat="47.30648" lon="4.94541">
        <ele>487</ele>
        <time>2012-09-15T07:24:17Z</time>
      </trkpt>
      <trkpt lat="47.30643" lon="4.94547">
        <ele>487</ele>
        <time>2012-09-15T07:24:21Z</time>
      </trkpt>
      <trkpt lat="47.3064" lon="4.94552">
        <ele>487</ele>
        <time>2012-09-15T07:24:24Z</time>
      </trkpt>
      <trkpt lat="47.30636" lon="4.94556">
        <ele>486</ele>
        <time>2012-09-15T07:24:27Z</time>
      </trkpt>
      <trkpt lat="47.30632" lon="4.94561">
        <ele>486</ele>
        <time>2012-09-15T07:24:30Z</time>
      </trkpt>
      <trkpt lat="47.30628" lon="4.94565">
        <ele>486</ele>
        <time>2012-09-15T07:24:33Z</time>
      </trkpt>
      <trkpt lat="47.30624" lon="4.94569">
        <ele>486</ele>
        <time>2012-09-15T07:24:36Z</time>
      </trkpt>
      <trkpt lat="47.30621" lon="4.94574">
        <ele>486</ele>
        <time>2012-09-15T07:24:39Z</time>
      </trkpt>
      <trkpt lat="47.30617" lon="4.94577">
        <ele>486</ele>
        <time>2012-09-15T07:24:42Z</time>
      </trkpt>
      <trkpt lat="47.30613" lon="4.94582">
        <ele>485</ele>
        <time>2012-09-15T07:24:45Z</time>
      </trkpt>
      <trkpt lat="47.30609" lon="4.94586">
        <ele>486</ele>
        <time>2012-09-15T07:24:48Z</time>
      </trkpt>
      <trkpt lat="47.30605" lon="4.94591">
        <ele>486</ele>
        <time>2012-09-15T07:24:51Z</time>
      </trkpt>
      <trkpt lat="47.30601" lon="4.94595">
        <ele>486</ele>
        <time>2012-09-15T07:24:54Z</time>
      </trkpt>
      <trkpt lat="47.30597" lon="4.94599">
        <ele>486</ele>
        <time>2012-09-15T07:24:57Z</time>
      </trkpt>
      <trkpt lat="47.30593" lon="4.94604">
        <ele>487</ele>
        <time>2012-09-15T07:25:00Z</time>
      </trkpt>
      <trkpt lat="47.3059" lon="4.94608">
        <ele>487</ele>
        <time>2012-09-15T07:25:03Z</time>
      </trkpt>
      <trkpt lat="47.30586" lon="4.94612">
        <ele>487</ele>
        <time>2012-09-15T07:25:06Z</time>
      </trkpt>
      <trkpt lat="47.30582" lon="4.94616">
        <ele>487</ele>
        <time>2012-09-15T07:25:09Z</time>
      </trkpt>
      <trkpt lat="47.30578" lon="4.9462">
        <ele>487</ele>
        <time>2012-09-15T07:25:12Z</time>
      </trkpt>
      <trkpt lat="47.30573" lon="4.94624">
        <ele>487</ele>
        <time>2012-09-15T07:25:15Z</time>
      </trkpt>
      <trkpt lat="47.30569" lon="4.94627">
        <ele>487</ele>
        <time>2012-09-15T07:25:18Z</time>
      </trkpt>
      <trkpt lat="47.30564" lon="4.94631">
        <ele>487</ele>
        <time>2012-09-15T07:25:21Z</time>
      </trkpt>
      <trkpt lat="47.3056" lon="4.94634">
        <ele>487</ele>
        <time>2012-09-15T07:25:24Z</time>
      </trkpt>
      <trkpt lat="47.30556" lon="4.94637">
        <ele>487</ele>
        <time>2012-09-15T07:25:27Z</time>
      </trkpt>
      <trkpt lat="47.30551" lon="4.94641">
        <ele>487</ele>
        <time>2012-09-15T07:25:30Z</time>
      </trkpt>
      <trkpt lat="47.30546" lon="4.94643">
        <ele>487</ele>
        <time>2012-09-15T07:25:33Z</time>
      </trkpt>
      <trkpt lat="47.30542" lon="4.94646">
        <ele>487</ele>
        <time>2012-09-15T07:25:36Z</time>
      </trkpt>
      <trkpt lat="47.30538" lon="4.94649">
        <ele>488</ele>
        <time>2012-09-15T07:25:39Z</time>
      </trkpt>
      <trkpt lat="47.30533" lon="4.94651">
        <ele>487</ele>
        <time>2012-09-15T07:25:42Z</time>
      </trkpt>
      <trkpt lat="47.30528" lon="4.94654">
        <ele>488</ele>
        <time>2012-09-15T07:25:45Z</time>
      </trkpt>
      <trkpt lat="47.30524" lon="4.94658">
        <ele>488</ele>
        <time>2012-09-15T07:25:48Z</time>
      </trkpt>
      <trkpt lat="47.3052" lon="4.9466">
        <ele>488</ele>
        <time>2012-09-15T07:25:51Z</time>
      </trkpt>
      <trkpt lat="47.30515" lon="4.94663">
        <ele>488</ele>
        <time>2012-09-15T07:25:54Z</time>
      </trkpt>
      <trkpt lat="47.30511" lon="4.94665">
        <ele>488</ele>
        <time>2012-09-15T07:25:57Z</time>
      </trkpt>
      <trkpt lat="47.30506" lon="4.94668">
        <ele>488</ele>
        <time>2012-09-15T07:26:00Z</time>
      </trkpt>
      <trkpt lat="47.305" lon="4.94672">
        <ele>488</ele>
        <time>2012-09-15T07:26:04Z</time>
      </trkpt>
      <trkpt lat="47.30494" lon="4.94674">
        <ele>488</ele>
        <time>2012-09-15T07:26:08Z</time>
      </trkpt>
      <trkpt lat="47.3049" lon="4.94676">
        <ele>487</ele>
        <time>2012-09-15T07:26:11Z</time>
      </trkpt>
      <trkpt lat="47.30484" lon="4.94679">
        <ele>487</ele>
        <time>2012-09-15T07:26:15Z</time>
      </trkpt>
      <trkpt lat="47.30479" lon="4.94681">
        <ele>487</ele>
        <time>2012-09-15T07:26:18Z</time>
      </trkpt>
      <trkpt lat="47.30475" lon="4.94684">
        <ele>487</ele>
        <time>2012-09-15T07:26:21Z</time>
      </trkpt>
      <trkpt lat="47.3047" lon="4.94686">
        <ele>487</ele>
        <time>2012-09-15T07:26:24Z</time>
      </trkpt>
      <trkpt lat="47.30465" lon="4.94687">
        <ele>487</ele>
        <time>2012-09-15T07:26:27Z</time>
      </trkpt>
      <trkpt lat="47.3046" lon="4.94689">
        <ele>487</ele>
        <time>2012-09-15T07:26:30Z</time>
      </trkpt>
      <trkpt lat="47.30456" lon="4.94691">
        <ele>487</ele>
        <time>2012-09-15T07:26:33Z</time>
      </trkpt>
      <trkpt lat="47.30451" lon="4.94693">
        <ele>486</ele>
        <time>2012-09-15T07:26:36Z</time>
      </trkpt>
      <trkpt lat="47.30446" lon="4.94695">
        <ele>486</ele>
        <time>2012-09-15T07:26:39Z</time>
      </trkpt>
      <trkpt lat="47.30441" lon="4.94698">
        <ele>486</ele>
        <time>2012-09-15T07:26:42Z</time>
      </trkpt>
      <trkpt lat="47.30437" lon="4.947">
        <ele>486</ele>
        <time>2012-09-15T07:26:45Z</time>
      </trkpt>
      <trkpt lat="47.30432" lon="4.94702">
        <ele>486</ele>
        <time>2012-09-15T07:26:48Z</time>
      </trkpt>
      <trkpt lat="47.30428" lon="4.94704">
        <ele>486</ele>
        <time>2012-09-15T07:26:51Z</time>
      </trkpt>
      <trkpt lat="47.30423" lon="4.94707">
        <ele>485</ele>
        <time>2012-09-15T07:26:54Z</time>
      </trkpt>
      <trkpt lat="47.30419" lon="4.9471">
        <ele>485</ele>
        <time>2012-09-15T07:26:57Z</time>
      </trkpt>
      <trkpt lat="47.30414" lon="4.94712">
        <ele>485</ele>
        <time>2012-09-15T07:27:00Z</time>
      </trkpt>
      <trkpt lat="47.3041" lon="4.94715">
        <ele>485</ele>
        <time>2012-09-15T07:27:03Z</time>
      </trkpt>
      <trkpt lat="47.30405" lon="4.94718">
        <ele>485</ele>
        <time>2012-09-15T07:27:06Z</time>
      </trkpt>
      <trkpt lat="47.30401" lon="4.94722">
        <ele>485</ele>
        <time>2012-09-15T07:27:09Z</time>
      </trkpt>
      <trkpt lat="47.30396" lon="4.94724">
        <ele>485</ele>
        <time>2012-09-15T07:27:12Z</time>
      </trkpt>
      <trkpt lat="47.30392" lon="4.94727">
        <ele>484</ele>
        <time>2012-09-15T07:27:15Z</time>
      </trkpt>
      <trkpt lat="47.30387" lon="4.9473">
        <ele>484</ele>
        <time>2012-09-15T07:27:18Z</time>
      </trkpt>
      <trkpt lat="47.30382" lon="4.94733">
        <ele>484</ele>
        <time>2012-09-15T07:27:21Z</time>
      </trkpt>
      <trkpt lat="47.30376" lon="4.94736">
        <ele>484</ele>
        <time>2012-09-15T07:27:25Z</time>
      </trkpt>
      <trkpt lat="47.30372" lon="4.94739">
        <ele>484</ele>
        <time>2012-09-15T07:27:28Z</time>
      </trkpt>
      <trkpt lat="47.30367" lon="4.94741">
        <ele>484</ele>
        <time>2012-09-15T07:27:31Z</time>
      </trkpt>
      <trkpt lat="47.30362" lon="4.94744">
        <ele>484</ele>
        <time>2012-09-15T07:27:34Z</time>
      </trkpt>
      <trkpt lat="47.30358" lon="4.94747">
        <ele>484</ele>
        <time>2012-09-15T07:27:37Z</time>
      </trkpt>
      <trkpt lat="47.30354" lon="4.94749">
        <ele>484</ele>
        <time>2012-09-15T07:27:40Z</time>
      </trkpt>
      <trkpt lat="47.30349" lon="4.94751">
        <ele>483</ele>
        <time>2012-09-15T07:27:43Z</time>
      </trkpt>
      <trkpt lat="47.30345" lon="4.94754">
        <ele>483</ele>
        <time>2012-09-15T07:27:46Z</time>
      </trkpt>
      <trkpt lat="47.30339" lon="4.94756">
        <ele>483</ele>
        <time>2012-09-15T07:27:50Z</time>
      </trkpt>
      <trkpt lat="47.30335" lon="4.94759">
        <ele>483</ele>
        <time>2012-09-15T07:27:53Z</time>
      </trkpt>
      <trkpt lat="47.3033" lon="4.94761">
        <ele>483</ele>
        <time>2012-09-15T07:27:56Z</time>
      </trkpt>
      <trkpt lat="47.30325" lon="4.94763">
        <ele>483</ele>
        <time>2012-09-15T07:27:59Z</time>
      </trkpt>
      <trkpt lat="47.30319" lon="4.94765">
        <ele>483</ele>
        <time>2012-09-15T07:28:03Z</time>
      </trkpt>
      <trkpt lat="47.30314" lon="4.94767">
        <ele>483</ele>
        <time>2012-09-15T07:28:06Z</time>
      </trkpt>
      <trkpt lat="47.30308" lon="4.94769">
        <ele>483</ele>
        <time>2012-09-15T07:28:10Z</time>
      </trkpt>
      <trkpt lat="47.30304" lon="4.9477">
        <ele>483</ele>
        <time>2012-09-15T07:28:13Z</time>
      </trkpt>
      <trkpt lat="47.30299" lon="4.94772">
        <ele>483</ele>
        <time>2012-09-15T07:28:16Z</time>
      </trkpt>
      <trkpt lat="47.30294" lon="4.94774">
        <ele>483</ele>
        <time>2012-09-15T07:28:20Z</time>
      </trkpt>
      <trkpt lat="47.30289" lon="4.94777">
        <ele>485</ele>
        <time>2012-09-15T07:28:47Z</time>
      </trkpt>
      <trkpt lat="47.30284" lon="4.94778">
        <ele>485</ele>
        <time>2012-09-15T07:28:51Z</time>
      </trkpt>
      <trkpt lat="47.30278" lon="4.94778">
        <ele>485</ele>
        <time>2012-09-15T07:28:55Z</time>
      </trkpt>
      <trkpt lat="47.30272" lon="4.94778">
        <ele>484</ele>
        <time>2012-09-15T07:28:58Z</time>
      </trkpt>
      <trkpt lat="47.30266" lon="4.94778">
        <ele>483</ele>
        <time>2012-09-15T07:29:01Z</time>
      </trkpt>
      <trkpt lat="47.30261" lon="4.94778">
        <ele>483</ele>
        <time>2012-09-15T07:29:04Z</time>
      </trkpt>
      <trkpt lat="47.30255" lon="4.94777">
        <ele>483</ele>
        <time>2012-09-15T07:29:07Z</time>
      </trkpt>
      <trkpt lat="47.30249" lon="4.94776">
        <ele>482</ele>
        <time>2012-09-15T07:29:10Z</time>
      </trkpt>
      <trkpt lat="47.30244" lon="4.94776">
        <ele>482</ele>
        <time>2012-09-15T07:29:13Z</time>
      </trkpt>
      <trkpt lat="47.30239" lon="4.94777">
        <ele>482</ele>
        <time>2012-09-15T07:29:16Z</time>
      </trkpt>
      <trkpt lat="47.30234" lon="4.94778">
        <ele>482</ele>
        <time>2012-09-15T07:29:19Z</time>
      </trkpt>
      <trkpt lat="47.30228" lon="4.94778">
        <ele>482</ele>
        <time>2012-09-15T07:29:22Z</time>
      </trkpt>
      <trkpt lat="47.30222" lon="4.94781">
        <ele>483</ele>
        <time>2012-09-15T07:29:25Z</time>
      </trkpt>
      <trkpt lat="47.30217" lon="4.94782">
        <ele>483</ele>
        <time>2012-09-15T07:29:29Z</time>
      </trkpt>
      <trkpt lat="47.30211" lon="4.94783">
        <ele>482</ele>
        <time>2012-09-15T07:29:32Z</time>
      </trkpt>
      <trkpt lat="47.30206" lon="4.94785">
        <ele>482</ele>
        <time>2012-09-15T07:29:35Z</time>
      </trkpt>
      <trkpt lat="47.302" lon="4.9479">
        <ele>481</ele>
        <time>2012-09-15T07:29:38Z</time>
      </trkpt>
      <trkpt lat="47.30196" lon="4.9479">
        <ele>481</ele>
        <time>2012-09-15T07:29:41Z</time>
      </trkpt>
      <trkpt lat="47.30191" lon="4.94791">
        <ele>480</ele>
        <time>2012-09-15T07:29:43Z</time>
      </trkpt>
      <trkpt lat="47.30186" lon="4.94794">
        <ele>480</ele>
        <time>2012-09-15T07:29:46Z</time>
      </trkpt>
      <trkpt lat="47.30178" lon="4.94796">
        <ele>479</ele>
        <time>2012-09-15T07:29:50Z</time>
      </trkpt>
      <trkpt lat="47.30173" lon="4.94798">
        <ele>478</ele>
        <time>2012-09-15T07:29:53Z</time>
      </trkpt>
      <trkpt lat="47.30169" lon="4.948">
        <ele>477</ele>
        <time>2012-09-15T07:29:55Z</time>
      </trkpt>
      <trkpt lat="47.30164" lon="4.94802">
        <ele>476</ele>
        <time>2012-09-15T07:29:57Z</time>
      </trkpt>
      <trkpt lat="47.30157" lon="4.94805">
        <ele>474</ele>
        <time>2012-09-15T07:30:01Z</time>
      </trkpt>
      <trkpt lat="47.30153" lon="4.9481">
        <ele>474</ele>
        <time>2012-09-15T07:30:04Z</time>
      </trkpt>
      <trkpt lat="47.30148" lon="4.94814">
        <ele>474</ele>
        <time>2012-09-15T07:30:07Z</time>
      </trkpt>
      <trkpt lat="47.30142" lon="4.94814">
        <ele>470</ele>
        <time>2012-09-15T07:30:10Z</time>
      </trkpt>
      <trkpt lat="47.30136" lon="4.94816">
        <ele>468</ele>
        <time>2012-09-15T07:30:12Z</time>
      </trkpt>
      <trkpt lat="47.30131" lon="4.94817">
        <ele>468</ele>
        <time>2012-09-15T07:30:14Z</time>
      </trkpt>
      <trkpt lat="47.30125" lon="4.9482">
        <ele>467</ele>
        <time>2012-09-15T07:30:17Z</time>
      </trkpt>
      <trkpt lat="47.30121" lon="4.94824">
        <ele>465</ele>
        <time>2012-09-15T07:30:21Z</time>
      </trkpt>
      <trkpt lat="47.30115" lon="4.94825">
        <ele>464</ele>
        <time>2012-09-15T07:30:23Z</time>
      </trkpt>
      <trkpt lat="47.3011" lon="4.94827">
        <ele>462</ele>
        <time>2012-09-15T07:30:26Z</time>
      </trkpt>
      <trkpt lat="47.30104" lon="4.94831">
        <ele>463</ele>
        <time>2012-09-15T07:30:29Z</time>
      </trkpt>
      <trkpt lat="47.301" lon="4.94835">
        <ele>463</ele>
        <time>2012-09-15T07:30:32Z</time>
      </trkpt>
      <trkpt lat="47.30095" lon="4.94835">
        <ele>464</ele>
        <time>2012-09-15T07:30:33Z</time>
      </trkpt>
      <trkpt lat="47.30088" lon="4.94838">
        <ele>464</ele>
        <time>2012-09-15T07:30:35Z</time>
      </trkpt>
      <trkpt lat="47.30081" lon="4.94841">
        <ele>465</ele>
        <time>2012-09-15T07:30:38Z</time>
      </trkpt>
      <trkpt lat="47.30078" lon="4.94847">
        <ele>465</ele>
        <time>2012-09-15T07:30:41Z</time>
      </trkpt>
      <trkpt lat="47.30074" lon="4.94854">
        <ele>466</ele>
        <time>2012-09-15T07:30:45Z</time>
      </trkpt>
      <trkpt lat="47.30074" lon="4.94863">
        <ele>467</ele>
        <time>2012-09-15T07:30:49Z</time>
      </trkpt>
      <trkpt lat="47.30076" lon="4.9487">
        <ele>466</ele>
        <time>2012-09-15T07:30:51Z</time>
      </trkpt>
      <trkpt lat="47.30076" lon="4.94879">
        <ele>466</ele>
        <time>2012-09-15T07:30:54Z</time>
      </trkpt>
      <trkpt lat="47.30074" lon="4.94889">
        <ele>464</ele>
        <time>2012-09-15T07:30:57Z</time>
      </trkpt>
      <trkpt lat="47.30077" lon="4.94895">
        <ele>464</ele>
        <time>2012-09-15T07:31:00Z</time>
      </trkpt>
      <trkpt lat="47.30079" lon="4.94901">
        <ele>463</ele>
        <time>2012-09-15T07:31:03Z</time>
      </trkpt>
      <trkpt lat="47.30082" lon="4.94907">
        <ele>463</ele>
        <time>2012-09-15T07:31:06Z</time>
      </trkpt>
      <trkpt lat="47.30086" lon="4.94915">
        <ele>462</ele>
        <time>2012-09-15T07:31:09Z</time>
      </trkpt>
      <trkpt lat="47.30088" lon="4.94921">
        <ele>461</ele>
        <time>2012-09-15T07:31:12Z</time>
      </trkpt>
      <trkpt lat="47.30092" lon="4.94925">
        <ele>460</ele>
        <time>2012-09-15T07:31:15Z</time>
      </trkpt>
      <trkpt lat="47.30096" lon="4.94931">
        <ele>460</ele>
        <time>2012-09-15T07:31:18Z</time>
      </trkpt>
      <trkpt lat="47.30101" lon="4.94936">
        <ele>459</ele>
        <time>2012-09-15T07:31:21Z</time>
      </trkpt>
      <trkpt lat="47.30106" lon="4.9494">
        <ele>458</ele>
        <time>2012-09-15T07:31:23Z</time>
      </trkpt>
      <trkpt lat="47.30109" lon="4.94944">
        <ele>458</ele>
        <time>2012-09-15T07:31:25Z</time>
      </trkpt>
      <trkpt lat="47.30113" lon="4.94949">
        <ele>458</ele>
        <time>2012-09-15T07:31:27Z</time>
      </trkpt>
      <trkpt lat="47.3012" lon="4.94954">
        <ele>458</ele>
        <time>2012-09-15T07:31:30Z</time>
      </trkpt>
      <trkpt lat="47.30124" lon="4.94958">
        <ele>458</ele>
        <time>2012-09-15T07:31:33Z</time>
      </trkpt>
      <trkpt lat="47.30129" lon="4.9496">
        <ele>460</ele>
        <time>2012-09-15T07:31:36Z</time>
      </trkpt>
      <trkpt lat="47.30136" lon="4.94965">
        <ele>460</ele>
        <time>2012-09-15T07:31:39Z</time>
      </trkpt>
      <trkpt lat="47.30141" lon="4.94967">
        <ele>460</ele>
        <time>2012-09-15T07:31:41Z</time>
      </trkpt>
      <trkpt lat="47.30145" lon="4.9497">
        <ele>460</ele>
        <time>2012-09-15T07:31:44Z</time>
      </trkpt>
      <trkpt lat="47.3015" lon="4.94974">
        <ele>462</ele>
        <time>2012-09-15T07:31:47Z</time>
      </trkpt>
      <trkpt lat="47.30154" lon="4.94979">
        <ele>463</ele>
        <time>2012-09-15T07:31:51Z</time>
      </trkpt>
      <trkpt lat="47.30158" lon="4.94982">
        <ele>465</ele>
        <time>2012-09-15T07:31:54Z</time>
      </trkpt>
      <trkpt lat="47.30162" lon="4.94987">
        <ele>466</ele>
        <time>2012-09-15T07:31:57Z</time>
      </trkpt>
      <trkpt lat="47.30165" lon="4.94995">
        <ele>466</ele>
        <time>2012-09-15T07:32:03Z</time>
      </trkpt>
      <trkpt lat="47.30169" lon="4.95001">
        <ele>466</ele>
        <time>2012-09-15T07:32:05Z</time>
      </trkpt>
      <trkpt lat="47.30174" lon="4.95007">
        <ele>467</ele>
        <time>2012-09-15T07:32:07Z</time>
      </trkpt>
      <trkpt lat="47.30176" lon="4.95015">
        <ele>466</ele>
        <time>2012-09-15T07:32:10Z</time>
      </trkpt>
      <trkpt lat="47.30178" lon="4.95021">
        <ele>464</ele>
        <time>2012-09-15T07:32:12Z</time>
      </trkpt>
      <trkpt lat="47.30182" lon="4.95027">
        <ele>464</ele>
        <time>2012-09-15T07:32:14Z</time>
      </trkpt>
      <trkpt lat="47.30187" lon="4.95034">
        <ele>466</ele>
        <time>2012-09-15T07:32:16Z</time>
      </trkpt>
      <trkpt lat="47.3019" lon="4.9504">
        <ele>466</ele>
        <time>2012-09-15T07:32:18Z</time>
      </trkpt>
      <trkpt lat="47.30192" lon="4.95047">
        <ele>467</ele>
        <time>2012-09-15T07:32:20Z</time>
      </trkpt>
      <trkpt lat="47.30194" lon="4.95054">
        <ele>467</ele>
        <time>2012-09-15T07:32:22Z</time>
      </trkpt>
      <trkpt lat="47.30196" lon="4.95061">
        <ele>466</ele>
        <time>2012-09-15T07:32:24Z</time>
      </trkpt>
      <trkpt lat="47.30197" lon="4.95068">
        <ele>466</ele>
        <time>2012-09-15T07:32:26Z</time>
      </trkpt>
      <trkpt lat="47.30197" lon="4.95076">
        <ele>465</ele>
        <time>2012-09-15T07:32:28Z</time>
      </trkpt>
      <trkpt lat="47.30197" lon="4.95085">
        <ele>464</ele>
        <time>2012-09-15T07:32:31Z</time>
      </trkpt>
      <trkpt lat="47.30198" lon="4.95096">
        <ele>464</ele>
        <time>2012-09-15T07:32:34Z</time>
      </trkpt>
      <trkpt lat="47.30203" lon="4.95099">
        <ele>464</ele>
        <time>2012-09-15T07:32:35Z</time>
      </trkpt>
      <trkpt lat="47.30205" lon="4.95107">
        <ele>465</ele>
        <time>2012-09-15T07:32:38Z</time>
      </trkpt>
      <trkpt lat="47.30208" lon="4.95115">
        <ele>464</ele>
        <time>2012-09-15T07:32:41Z</time>
      </trkpt>
      <trkpt lat="47.30209" lon="4.95122">
        <ele>463</ele>
        <time>2012-09-15T07:32:43Z</time>
      </trkpt>
      <trkpt lat="47.30209" lon="4.95129">
        <ele>460</ele>
        <time>2012-09-15T07:32:45Z</time>
      </trkpt>
      <trkpt lat="47.30208" lon="4.95136">
        <ele>458</ele>
        <time>2012-09-15T07:32:48Z</time>
      </trkpt>
      <trkpt lat="47.30211" lon="4.95143">
        <ele>459</ele>
        <time>2012-09-15T07:32:50Z</time>
      </trkpt>
      <trkpt lat="47.30212" lon="4.95152">
        <ele>459</ele>
        <time>2012-09-15T07:32:53Z</time>
      </trkpt>
      <trkpt lat="47.30211" lon="4.95161">
        <ele>458</ele>
        <time>2012-09-15T07:32:58Z</time>
      </trkpt>
      <trkpt lat="47.30213" lon="4.95168">
        <ele>457</ele>
        <time>2012-09-15T07:33:01Z</time>
      </trkpt>
      <trkpt lat="47.30215" lon="4.95176">
        <ele>458</ele>
        <time>2012-09-15T07:33:03Z</time>
      </trkpt>
      <trkpt lat="47.30217" lon="4.95184">
        <ele>458</ele>
        <time>2012-09-15T07:33:05Z</time>
      </trkpt>
      <trkpt lat="47.3022" lon="4.95191">
        <ele>459</ele>
        <time>2012-09-15T07:33:07Z</time>
      </trkpt>
      <trkpt lat="47.30222" lon="4.95198">
        <ele>460</ele>
        <time>2012-09-15T07:33:10Z</time>
      </trkpt>
      <trkpt lat="47.30225" lon="4.95205">
        <ele>460</ele>
        <time>2012-09-15T07:33:12Z</time>
      </trkpt>
      <trkpt lat="47.30227" lon="4.95212">
        <ele>460</ele>
        <time>2012-09-15T07:33:14Z</time>
      </trkpt>
      <trkpt lat="47.30228" lon="4.95219">
        <ele>460</ele>
        <time>2012-09-15T07:33:16Z</time>
      </trkpt>
      <trkpt lat="47.30228" lon="4.9523">
        <ele>459</ele>
        <time>2012-09-15T07:33:19Z</time>
      </trkpt>
      <trkpt lat="47.3023" lon="4.95237">
        <ele>458</ele>
        <time>2012-09-15T07:33:21Z</time>
      </trkpt>
      <trkpt lat="47.30231" lon="4.95245">
        <ele>457</ele>
        <time>2012-09-15T07:33:24Z</time>
      </trkpt>
      <trkpt lat="47.30233" lon="4.95252">
        <ele>456</ele>
        <time>2012-09-15T07:33:26Z</time>
      </trkpt>
      <trkpt lat="47.30236" lon="4.95259">
        <ele>456</ele>
        <time>2012-09-15T07:33:28Z</time>
      </trkpt>
      <trkpt lat="47.3024" lon="4.95269">
        <ele>455</ele>
        <time>2012-09-15T07:33:31Z</time>
      </trkpt>
      <trkpt lat="47.30243" lon="4.95276">
        <ele>455</ele>
        <time>2012-09-15T07:33:34Z</time>
      </trkpt>
      <trkpt lat="47.30245" lon="4.95282">
        <ele>455</ele>
        <time>2012-09-15T07:33:36Z</time>
      </trkpt>
      <trkpt lat="47.30246" lon="4.9529">
        <ele>455</ele>
        <time>2012-09-15T07:33:39Z</time>
      </trkpt>
      <trkpt lat="47.30248" lon="4.95296">
        <ele>456</ele>
        <time>2012-09-15T07:33:41Z</time>
      </trkpt>
      <trkpt lat="47.3025" lon="4.95303">
        <ele>455</ele>
        <time>2012-09-15T07:33:43Z</time>
      </trkpt>
      <trkpt lat="47.30253" lon="4.95308">
        <ele>454</ele>
        <time>2012-09-15T07:33:45Z</time>
      </trkpt>
      <trkpt lat="47.30257" lon="4.95316">
        <ele>451</ele>
        <time>2012-09-15T07:33:47Z</time>
      </trkpt>
      <trkpt lat="47.3026" lon="4.95325">
        <ele>449</ele>
        <time>2012-09-15T07:33:49Z</time>
      </trkpt>
      <trkpt lat="47.30261" lon="4.95333">
        <ele>448</ele>
        <time>2012-09-15T07:33:52Z</time>
      </trkpt>
      <trkpt lat="47.30261" lon="4.9534">
        <ele>447</ele>
        <time>2012-09-15T07:33:54Z</time>
      </trkpt>
      <trkpt lat="47.30262" lon="4.95347">
        <ele>447</ele>
        <time>2012-09-15T07:33:56Z</time>
      </trkpt>
      <trkpt lat="47.30265" lon="4.95354">
        <ele>446</ele>
        <time>2012-09-15T07:33:59Z</time>
      </trkpt>
      <trkpt lat="47.30269" lon="4.95359">
        <ele>445</ele>
        <time>2012-09-15T07:34:01Z</time>
      </trkpt>
      <trkpt lat="47.3027" lon="4.95366">
        <ele>446</ele>
        <time>2012-09-15T07:34:04Z</time>
      </trkpt>
      <trkpt lat="47.30271" lon="4.95373">
        <ele>446</ele>
        <time>2012-09-15T07:34:06Z</time>
      </trkpt>
      <trkpt lat="47.30275" lon="4.9538">
        <ele>445</ele>
        <time>2012-09-15T07:34:09Z</time>
      </trkpt>
      <trkpt lat="47.30277" lon="4.95385">
        <ele>444</ele>
        <time>2012-09-15T07:34:11Z</time>
      </trkpt>
      <trkpt lat="47.3028" lon="4.95392">
        <ele>443</ele>
        <time>2012-09-15T07:34:13Z</time>
      </trkpt>
      <trkpt lat="47.30282" lon="4.95398">
        <ele>443</ele>
        <time>2012-09-15T07:34:15Z</time>
      </trkpt>
      <trkpt lat="47.30286" lon="4.95404">
        <ele>442</ele>
        <time>2012-09-15T07:34:18Z</time>
      </trkpt>
      <trkpt lat="47.3029" lon="4.95411">
        <ele>441</ele>
        <time>2012-09-15T07:34:21Z</time>
      </trkpt>
      <trkpt lat="47.30295" lon="4.95413">
        <ele>441</ele>
        <time>2012-09-15T07:34:22Z</time>
      </trkpt>
      <trkpt lat="47.30299" lon="4.95419">
        <ele>441</ele>
        <time>2012-09-15T07:34:24Z</time>
      </trkpt>
      <trkpt lat="47.30301" lon="4.95425">
        <ele>444</ele>
        <time>2012-09-15T07:34:27Z</time>
      </trkpt>
      <trkpt lat="47.30305" lon="4.95434">
        <ele>444</ele>
        <time>2012-09-15T07:34:31Z</time>
      </trkpt>
      <trkpt lat="47.30308" lon="4.95439">
        <ele>442</ele>
        <time>2012-09-15T07:34:33Z</time>
      </trkpt>
      <trkpt lat="47.3031" lon="4.95445">
        <ele>443</ele>
        <time>2012-09-15T07:34:37Z</time>
      </trkpt>
      <trkpt lat="47.30314" lon="4.95452">
        <ele>443</ele>
        <time>2012-09-15T07:34:39Z</time>
      </trkpt>
      <trkpt lat="47.30318" lon="4.95458">
        <ele>443</ele>
        <time>2012-09-15T07:34:41Z</time>
      </trkpt>
      <trkpt lat="47.30321" lon="4.95465">
        <ele>442</ele>
        <time>2012-09-15T07:34:44Z</time>
      </trkpt>
      <trkpt lat="47.30324" lon="4.95473">
        <ele>439</ele>
        <time>2012-09-15T07:34:46Z</time>
      </trkpt>
      <trkpt lat="47.30326" lon="4.95481">
        <ele>439</ele>
        <time>2012-09-15T07:34:49Z</time>
      </trkpt>
      <trkpt lat="47.30329" lon="4.95487">
        <ele>440</ele>
        <time>2012-09-15T07:34:51Z</time>
      </trkpt>
      <trkpt lat="47.30333" lon="4.95495">
        <ele>440</ele>
        <time>2012-09-15T07:34:54Z</time>
      </trkpt>
      <trkpt lat="47.30338" lon="4.95502">
        <ele>439</ele>
        <time>2012-09-15T07:34:56Z</time>
      </trkpt>
      <trkpt lat="47.30341" lon="4.95508">
        <ele>439</ele>
        <time>2012-09-15T07:34:58Z</time>
      </trkpt>
      <trkpt lat="47.30342" lon="4.95516">
        <ele>440</ele>
        <time>2012-09-15T07:35:01Z</time>
      </trkpt>
      <trkpt lat="47.30343" lon="4.95526">
        <ele>439</ele>
        <time>2012-09-15T07:35:04Z</time>
      </trkpt>
      <trkpt lat="47.30345" lon="4.95532">
        <ele>440</ele>
        <time>2012-09-15T07:35:06Z</time>
      </trkpt>
      <trkpt lat="47.30349" lon="4.95541">
        <ele>440</ele>
        <time>2012-09-15T07:35:08Z</time>
      </trkpt>
      <trkpt lat="47.30352" lon="4.95546">
        <ele>440</ele>
        <time>2012-09-15T07:35:10Z</time>
      </trkpt>
      <trkpt lat="47.30355" lon="4.95554">
        <ele>438</ele>
        <time>2012-09-15T07:35:13Z</time>
      </trkpt>
      <trkpt lat="47.30358" lon="4.95562">
        <ele>435</ele>
        <time>2012-09-15T07:35:16Z</time>
      </trkpt>
      <trkpt lat="47.3036" lon="4.9557">
        <ele>435</ele>
        <time>2012-09-15T07:35:19Z</time>
      </trkpt>
      <trkpt lat="47.30364" lon="4.95578">
        <ele>433</ele>
        <time>2012-09-15T07:35:22Z</time>
      </trkpt>
      <trkpt lat="47.30368" lon="4.95587">
        <ele>434</ele>
        <time>2012-09-15T07:35:25Z</time>
      </trkpt>
      <trkpt lat="47.30372" lon="4.95596">
        <ele>433</ele>
        <time>2012-09-15T07:35:28Z</time>
      </trkpt>
      <trkpt lat="47.30374" lon="4.95602">
        <ele>432</ele>
        <time>2012-09-15T07:35:31Z</time>
      </trkpt>
      <trkpt lat="47.30379" lon="4.95609">
        <ele>433</ele>
        <time>2012-09-15T07:35:34Z</time>
      </trkpt>
      <trkpt lat="47.30382" lon="4.95614">
        <ele>434</ele>
        <time>2012-09-15T07:35:37Z</time>
      </trkpt>
      <trkpt lat="47.30384" lon="4.9562">
        <ele>434</ele>
        <time>2012-09-15T07:35:39Z</time>
      </trkpt>
      <trkpt lat="47.30387" lon="4.95626">
        <ele>434</ele>
        <time>2012-09-15T07:35:41Z</time>
      </trkpt>
      <trkpt lat="47.30389" lon="4.95634">
        <ele>434</ele>
        <time>2012-09-15T07:35:44Z</time>
      </trkpt>
      <trkpt lat="47.30394" lon="4.9564">
        <ele>434</ele>
        <time>2012-09-15T07:35:47Z</time>
      </trkpt>
      <trkpt lat="47.30396" lon="4.95646">
        <ele>434</ele>
        <time>2012-09-15T07:35:50Z</time>
      </trkpt>
      <trkpt lat="47.30401" lon="4.95653">
        <ele>434</ele>
        <time>2012-09-15T07:35:53Z</time>
      </trkpt>
      <trkpt lat="47.30406" lon="4.95657">
        <ele>436</ele>
        <time>2012-09-15T07:35:55Z</time>
      </trkpt>
      <trkpt lat="47.3041" lon="4.95662">
        <ele>437</ele>
        <time>2012-09-15T07:35:58Z</time>
      </trkpt>
      <trkpt lat="47.30414" lon="4.95667">
        <ele>437</ele>
        <time>2012-09-15T07:36:01Z</time>
      </trkpt>
      <trkpt lat="47.30418" lon="4.95673">
        <ele>437</ele>
        <time>2012-09-15T07:36:03Z</time>
      </trkpt>
      <trkpt lat="47.30422" lon="4.95678">
        <ele>437</ele>
        <time>2012-09-15T07:36:06Z</time>
      </trkpt>
      <trkpt lat="47.30426" lon="4.95682">
        <ele>437</ele>
        <time>2012-09-15T07:36:08Z</time>
      </trkpt>
      <trkpt lat="47.30429" lon="4.95687">
        <ele>437</ele>
        <time>2012-09-15T07:36:10Z</time>
      </trkpt>
      <trkpt lat="47.30431" lon="4.95694">
        <ele>436</ele>
        <time>2012-09-15T07:36:12Z</time>
      </trkpt>
      <trkpt lat="47.30436" lon="4.95701">
        <ele>435</ele>
        <time>2012-09-15T07:36:15Z</time>
      </trkpt>
      <trkpt lat="47.3044" lon="4.95706">
        <ele>434</ele>
        <time>2012-09-15T07:36:18Z</time>
      </trkpt>
      <trkpt lat="47.30445" lon="4.95712">
        <ele>434</ele>
        <time>2012-09-15T07:36:20Z</time>
      </trkpt>
      <trkpt lat="47.30449" lon="4.95716">
        <ele>433</ele>
        <time>2012-09-15T07:36:22Z</time>
      </trkpt>
      <trkpt lat="47.30454" lon="4.95718">
        <ele>432</ele>
        <time>2012-09-15T07:36:25Z</time>
      </trkpt>
      <trkpt lat="47.3046" lon="4.95722">
        <ele>431</ele>
        <time>2012-09-15T07:36:28Z</time>
      </trkpt>
      <trkpt lat="47.30464" lon="4.95727">
        <ele>430</ele>
        <time>2012-09-15T07:36:31Z</time>
      </trkpt>
      <trkpt lat="47.3047" lon="4.95729">
        <ele>433</ele>
        <time>2012-09-15T07:36:33Z</time>
      </trkpt>
      <trkpt lat="47.30475" lon="4.95734">
        <ele>433</ele>
        <time>2012-09-15T07:36:35Z</time>
      </trkpt>
      <trkpt lat="47.30482" lon="4.95736">
        <ele>433</ele>
        <time>2012-09-15T07:36:38Z</time>
      </trkpt>
      <trkpt lat="47.30486" lon="4.95738">
        <ele>433</ele>
        <time>2012-09-15T07:36:40Z</time>
      </trkpt>
      <trkpt lat="47.30492" lon="4.95741">
        <ele>433</ele>
        <time>2012-09-15T07:36:42Z</time>
      </trkpt>
      <trkpt lat="47.30496" lon="4.95742">
        <ele>433</ele>
        <time>2012-09-15T07:36:44Z</time>
      </trkpt>
      <trkpt lat="47.30501" lon="4.95746">
        <ele>433</ele>
        <time>2012-09-15T07:36:46Z</time>
      </trkpt>
      <trkpt lat="47.30505" lon="4.9575">
        <ele>432</ele>
        <time>2012-09-15T07:36:48Z</time>
      </trkpt>
      <trkpt lat="47.30511" lon="4.95754">
        <ele>430</ele>
        <time>2012-09-15T07:36:51Z</time>
      </trkpt>
      <trkpt lat="47.30515" lon="4.95758">
        <ele>429</ele>
        <time>2012-09-15T07:36:54Z</time>
      </trkpt>
      <trkpt lat="47.3052" lon="4.95761">
        <ele>430</ele>
        <time>2012-09-15T07:36:57Z</time>
      </trkpt>
      <trkpt lat="47.30525" lon="4.95764">
        <ele>429</ele>
        <time>2012-09-15T07:37:00Z</time>
      </trkpt>
      <trkpt lat="47.30529" lon="4.95768">
        <ele>428</ele>
        <time>2012-09-15T07:37:02Z</time>
      </trkpt>
      <trkpt lat="47.30535" lon="4.95771">
        <ele>427</ele>
        <time>2012-09-15T07:37:05Z</time>
      </trkpt>
      <trkpt lat="47.3054" lon="4.95775">
        <ele>428</ele>
        <time>2012-09-15T07:37:08Z</time>
      </trkpt>
      <trkpt lat="47.30544" lon="4.95778">
        <ele>429</ele>
        <time>2012-09-15T07:37:10Z</time>
      </trkpt>
      <trkpt lat="47.30549" lon="4.95784">
        <ele>429</ele>
        <time>2012-09-15T07:37:13Z</time>
      </trkpt>
      <trkpt lat="47.30554" lon="4.95791">
        <ele>428</ele>
        <time>2012-09-15T07:37:16Z</time>
      </trkpt>
      <trkpt lat="47.30559" lon="4.95792">
        <ele>427</ele>
        <time>2012-09-15T07:37:18Z</time>
      </trkpt>
      <trkpt lat="47.30563" lon="4.95797">
        <ele>426</ele>
        <time>2012-09-15T07:37:21Z</time>
      </trkpt>
      <trkpt lat="47.30568" lon="4.95798">
        <ele>425</ele>
        <time>2012-09-15T07:37:23Z</time>
      </trkpt>
      <trkpt lat="47.30574" lon="4.95805">
        <ele>424</ele>
        <time>2012-09-15T07:37:26Z</time>
      </trkpt>
      <trkpt lat="47.30579" lon="4.95808">
        <ele>424</ele>
        <time>2012-09-15T07:37:28Z</time>
      </trkpt>
      <trkpt lat="47.30582" lon="4.95813">
        <ele>424</ele>
        <time>2012-09-15T07:37:30Z</time>
      </trkpt>
      <trkpt lat="47.30587" lon="4.95817">
        <ele>425</ele>
        <time>2012-09-15T07:37:33Z</time>
      </trkpt>
      <trkpt lat="47.30592" lon="4.95821">
        <ele>424</ele>
        <time>2012-09-15T07:37:36Z</time>
      </trkpt>
      <trkpt lat="47.30596" lon="4.95826">
        <ele>424</ele>
        <time>2012-09-15T07:37:38Z</time>
      </trkpt>
      <trkpt lat="47.30602" lon="4.95831">
        <ele>423</ele>
        <time>2012-09-15T07:37:40Z</time>
      </trkpt>
      <trkpt lat="47.30605" lon="4.95836">
        <ele>423</ele>
        <time>2012-09-15T07:37:42Z</time>
      </trkpt>
      <trkpt lat="47.3061" lon="4.95842">
        <ele>423</ele>
        <time>2012-09-15T07:37:45Z</time>
      </trkpt>
      <trkpt lat="47.30615" lon="4.95849">
        <ele>422</ele>
        <time>2012-09-15T07:37:48Z</time>
      </trkpt>
      <trkpt lat="47.30621" lon="4.95855">
        <ele>421</ele>
        <time>2012-09-15T07:37:51Z</time>
      </trkpt>
      <trkpt lat="47.30625" lon="4.95859">
        <ele>422</ele>
        <time>2012-09-15T07:37:53Z</time>
      </trkpt>
      <trkpt lat="47.30629" lon="4.95865">
        <ele>421</ele>
        <time>2012-09-15T07:37:56Z</time>
      </trkpt>
      <trkpt lat="47.30633" lon="4.9587">
        <ele>420</ele>
        <time>2012-09-15T07:37:58Z</time>
      </trkpt>
      <trkpt lat="47.30636" lon="4.95876">
        <ele>420</ele>
        <time>2012-09-15T07:38:00Z</time>
      </trkpt>
      <trkpt lat="47.30638" lon="4.95885">
        <ele>419</ele>
        <time>2012-09-15T07:38:04Z</time>
      </trkpt>
      <trkpt lat="47.30642" lon="4.9589">
        <ele>417</ele>
        <time>2012-09-15T07:38:06Z</time>
      </trkpt>
      <trkpt lat="47.30646" lon="4.95895">
        <ele>416</ele>
        <time>2012-09-15T07:38:08Z</time>
      </trkpt>
      <trkpt lat="47.30652" lon="4.95901">
        <ele>414</ele>
        <time>2012-09-15T07:38:10Z</time>
      </trkpt>
      <trkpt lat="47.30655" lon="4.95908">
        <ele>413</ele>
        <time>2012-09-15T07:38:12Z</time>
      </trkpt>
      <trkpt lat="47.30656" lon="4.95915">
        <ele>414</ele>
        <time>2012-09-15T07:38:14Z</time>
      </trkpt>
      <trkpt lat="47.30661" lon="4.9592">
        <ele>414</ele>
        <time>2012-09-15T07:38:16Z</time>
      </trkpt>
      <trkpt lat="47.30665" lon="4.95924">
        <ele>413</ele>
        <time>2012-09-15T07:38:18Z</time>
      </trkpt>
      <trkpt lat="47.30667" lon="4.95931">
        <ele>413</ele>
        <time>2012-09-15T07:38:21Z</time>
      </trkpt>
      <trkpt lat="47.30669" lon="4.95937">
        <ele>414</ele>
        <time>2012-09-15T07:38:25Z</time>
      </trkpt>
      <trkpt lat="47.30669" lon="4.95945">
        <ele>414</ele>
        <time>2012-09-15T07:38:28Z</time>
      </trkpt>
      <trkpt lat="47.30674" lon="4.95951">
        <ele>415</ele>
        <time>2012-09-15T07:38:30Z</time>
      </trkpt>
      <trkpt lat="47.30678" lon="4.95956">
        <ele>415</ele>
        <time>2012-09-15T07:38:33Z</time>
      </trkpt>
      <trkpt lat="47.30683" lon="4.95959">
        <ele>416</ele>
        <time>2012-09-15T07:38:35Z</time>
      </trkpt>
      <trkpt lat="47.30687" lon="4.95964">
        <ele>416</ele>
        <time>2012-09-15T07:38:38Z</time>
      </trkpt>
      <trkpt lat="47.30692" lon="4.95967">
        <ele>414</ele>
        <time>2012-09-15T07:38:41Z</time>
      </trkpt>
      <trkpt lat="47.30698" lon="4.9597">
        <ele>414</ele>
        <time>2012-09-15T07:38:43Z</time>
      </trkpt>
      <trkpt lat="47.30702" lon="4.95973">
        <ele>413</ele>
        <time>2012-09-15T07:38:45Z</time>
      </trkpt>
      <trkpt lat="47.30708" lon="4.95976">
        <ele>412</ele>
        <time>2012-09-15T07:38:47Z</time>
      </trkpt>
      <trkpt lat="47.30712" lon="4.9598">
        <ele>410</ele>
        <time>2012-09-15T07:38:50Z</time>
      </trkpt>
      <trkpt lat="47.30717" lon="4.95982">
        <ele>408</ele>
        <time>2012-09-15T07:38:53Z</time>
      </trkpt>
      <trkpt lat="47.30721" lon="4.95984">
        <ele>408</ele>
        <time>2012-09-15T07:38:55Z</time>
      </trkpt>
      <trkpt lat="47.30727" lon="4.95987">
        <ele>408</ele>
        <time>2012-09-15T07:38:57Z</time>
      </trkpt>
      <trkpt lat="47.30733" lon="4.95989">
        <ele>408</ele>
        <time>2012-09-15T07:39:00Z</time>
      </trkpt>
      <trkpt lat="47.30737" lon="4.95992">
        <ele>407</ele>
        <time>2012-09-15T07:39:02Z</time>
      </trkpt>
      <trkpt lat="47.30742" lon="4.95993">
        <ele>408</ele>
        <time>2012-09-15T07:39:05Z</time>
      </trkpt>
      <trkpt lat="47.30747" lon="4.95994">
        <ele>408</ele>
        <time>2012-09-15T07:39:08Z</time>
      </trkpt>
      <trkpt lat="47.30752" lon="4.95994">
        <ele>408</ele>
        <time>2012-09-15T07:39:10Z</time>
      </trkpt>
      <trkpt lat="47.30757" lon="4.95993">
        <ele>407</ele>
        <time>2012-09-15T07:39:13Z</time>
      </trkpt>
      <trkpt lat="47.30763" lon="4.95993">
        <ele>407</ele>
        <time>2012-09-15T07:39:16Z</time>
      </trkpt>
      <trkpt lat="47.30769" lon="4.95995">
        <ele>405</ele>
        <time>2012-09-15T07:39:18Z</time>
      </trkpt>
      <trkpt lat="47.30773" lon="4.95997">
        <ele>404</ele>
        <time>2012-09-15T07:39:20Z</time>
      </trkpt>
      <trkpt lat="47.30779" lon="4.96">
        <ele>402</ele>
        <time>2012-09-15T07:39:23Z</time>
      </trkpt>
      <trkpt lat="47.30783" lon="4.96002">
        <ele>402</ele>
        <time>2012-09-15T07:39:25Z</time>
      </trkpt>
      <trkpt lat="47.30789" lon="4.96003">
        <ele>403</ele>
        <time>2012-09-15T07:39:28Z</time>
      </trkpt>
      <trkpt lat="47.30794" lon="4.96006">
        <ele>403</ele>
        <time>2012-09-15T07:39:31Z</time>
      </trkpt>
      <trkpt lat="47.30799" lon="4.9601">
        <ele>402</ele>
        <time>2012-09-15T07:39:34Z</time>
      </trkpt>
      <trkpt lat="47.30807" lon="4.96013">
        <ele>401</ele>
        <time>2012-09-15T07:39:37Z</time>
      </trkpt>
      <trkpt lat="47.30812" lon="4.96014">
        <ele>400</ele>
        <time>2012-09-15T07:39:39Z</time>
      </trkpt>
      <trkpt lat="47.30817" lon="4.96016">
        <ele>400</ele>
        <time>2012-09-15T07:39:41Z</time>
      </trkpt>
      <trkpt lat="47.30823" lon="4.96018">
        <ele>400</ele>
        <time>2012-09-15T07:39:44Z</time>
      </trkpt>
      <trkpt lat="47.30828" lon="4.9602">
        <ele>399</ele>
        <time>2012-09-15T07:39:47Z</time>
      </trkpt>
      <trkpt lat="47.30832" lon="4.96023">
        <ele>399</ele>
        <time>2012-09-15T07:39:49Z</time>
      </trkpt>
      <trkpt lat="47.30838" lon="4.96026">
        <ele>399</ele>
        <time>2012-09-15T07:39:51Z</time>
      </trkpt>
      <trkpt lat="47.30842" lon="4.96028">
        <ele>398</ele>
        <time>2012-09-15T07:39:53Z</time>
      </trkpt>
      <trkpt lat="47.30876" lon="4.96048">
        <ele>397</ele>
        <time>2012-09-15T07:40:08Z</time>
      </trkpt>
      <trkpt lat="47.30881" lon="4.96051">
        <ele>394</ele>
        <time>2012-09-15T07:40:12Z</time>
      </trkpt>
      <trkpt lat="47.30886" lon="4.96054">
        <ele>396</ele>
        <time>2012-09-15T07:40:13Z</time>
      </trkpt>
      <trkpt lat="47.30892" lon="4.96054">
        <ele>398</ele>
        <time>2012-09-15T07:40:18Z</time>
      </trkpt>
      <trkpt lat="47.30898" lon="4.96058">
        <ele>398</ele>
        <time>2012-09-15T07:40:21Z</time>
      </trkpt>
      <trkpt lat="47.30903" lon="4.96062">
        <ele>399</ele>
        <time>2012-09-15T07:40:24Z</time>
      </trkpt>
      <trkpt lat="47.30909" lon="4.96064">
        <ele>398</ele>
        <time>2012-09-15T07:40:27Z</time>
      </trkpt>
      <trkpt lat="47.30912" lon="4.96069">
        <ele>397</ele>
        <time>2012-09-15T07:40:29Z</time>
      </trkpt>
      <trkpt lat="47.30917" lon="4.96073">
        <ele>396</ele>
        <time>2012-09-15T07:40:31Z</time>
      </trkpt>
      <trkpt lat="47.30922" lon="4.96079">
        <ele>395</ele>
        <time>2012-09-15T07:40:34Z</time>
      </trkpt>
      <trkpt lat="47.30926" lon="4.96083">
        <ele>396</ele>
        <time>2012-09-15T07:40:36Z</time>
      </trkpt>
      <trkpt lat="47.30932" lon="4.96087">
        <ele>395</ele>
        <time>2012-09-15T07:40:39Z</time>
      </trkpt>
      <trkpt lat="47.30938" lon="4.96091">
        <ele>395</ele>
        <time>2012-09-15T07:40:42Z</time>
      </trkpt>
      <trkpt lat="47.30942" lon="4.96095">
        <ele>394</ele>
        <time>2012-09-15T07:40:44Z</time>
      </trkpt>
      <trkpt lat="47.30947" lon="4.96099">
        <ele>394</ele>
        <time>2012-09-15T07:40:47Z</time>
      </trkpt>
      <trkpt lat="47.30953" lon="4.96102">
        <ele>394</ele>
        <time>2012-09-15T07:40:50Z</time>
      </trkpt>
      <trkpt lat="47.3096" lon="4.96107">
        <ele>394</ele>
        <time>2012-09-15T07:40:53Z</time>
      </trkpt>
      <trkpt lat="47.30966" lon="4.96112">
        <ele>394</ele>
        <time>2012-09-15T07:40:56Z</time>
      </trkpt>
      <trkpt lat="47.30969" lon="4.96116">
        <ele>393</ele>
        <time>2012-09-15T07:40:58Z</time>
      </trkpt>
      <trkpt lat="47.30975" lon="4.9612">
        <ele>392</ele>
        <time>2012-09-15T07:41:01Z</time>
      </trkpt>
      <trkpt lat="47.3098" lon="4.96125">
        <ele>390</ele>
        <time>2012-09-15T07:41:03Z</time>
      </trkpt>
      <trkpt lat="47.30985" lon="4.96131">
        <ele>390</ele>
        <time>2012-09-15T07:41:06Z</time>
      </trkpt>
      <trkpt lat="47.3099" lon="4.96135">
        <ele>389</ele>
        <time>2012-09-15T07:41:09Z</time>
      </trkpt>
      <trkpt lat="47.30994" lon="4.96141">
        <ele>388</ele>
        <time>2012-09-15T07:41:12Z</time>
      </trkpt>
      <trkpt lat="47.30998" lon="4.96145">
        <ele>389</ele>
        <time>2012-09-15T07:41:14Z</time>
      </trkpt>
      <trkpt lat="47.31004" lon="4.96149">
        <ele>388</ele>
        <time>2012-09-15T07:41:17Z</time>
      </trkpt>
      <trkpt lat="47.31009" lon="4.96156">
        <ele>388</ele>
        <time>2012-09-15T07:41:20Z</time>
      </trkpt>
      <trkpt lat="47.31015" lon="4.96162">
        <ele>387</ele>
        <time>2012-09-15T07:41:23Z</time>
      </trkpt>
      <trkpt lat="47.31019" lon="4.96167">
        <ele>387</ele>
        <time>2012-09-15T07:41:26Z</time>
      </trkpt>
      <trkpt lat="47.31024" lon="4.9617">
        <ele>388</ele>
        <time>2012-09-15T07:41:29Z</time>
      </trkpt>
      <trkpt lat="47.3103" lon="4.96174">
        <ele>389</ele>
        <time>2012-09-15T07:41:32Z</time>
      </trkpt>
      <trkpt lat="47.31033" lon="4.96179">
        <ele>389</ele>
        <time>2012-09-15T07:41:35Z</time>
      </trkpt>
      <trkpt lat="47.31038" lon="4.96185">
        <ele>389</ele>
        <time>2012-09-15T07:41:38Z</time>
      </trkpt>
      <trkpt lat="47.31043" lon="4.9619">
        <ele>389</ele>
        <time>2012-09-15T07:41:41Z</time>
      </trkpt>
      <trkpt lat="47.31048" lon="4.96195">
        <ele>389</ele>
        <time>2012-09-15T07:41:44Z</time>
      </trkpt>
      <trkpt lat="47.31052" lon="4.962">
        <ele>391</ele>
        <time>2012-09-15T07:41:47Z</time>
      </trkpt>
      <trkpt lat="47.31056" lon="4.96203">
        <ele>392</ele>
        <time>2012-09-15T07:41:49Z</time>
      </trkpt>
      <trkpt lat="47.31059" lon="4.96211">
        <ele>393</ele>
        <time>2012-09-15T07:41:52Z</time>
      </trkpt>
      <trkpt lat="47.31063" lon="4.96216">
        <ele>393</ele>
        <time>2012-09-15T07:41:54Z</time>
      </trkpt>
      <trkpt lat="47.31065" lon="4.96223">
        <ele>393</ele>
        <time>2012-09-15T07:41:57Z</time>
      </trkpt>
      <trkpt lat="47.31067" lon="4.96231">
        <ele>393</ele>
        <time>2012-09-15T07:42:00Z</time>
      </trkpt>
      <trkpt lat="47.31068" lon="4.96238">
        <ele>394</ele>
        <time>2012-09-15T07:42:04Z</time>
      </trkpt>
      <trkpt lat="47.31071" lon="4.96244">
        <ele>395</ele>
        <time>2012-09-15T07:42:06Z</time>
      </trkpt>
      <trkpt lat="47.31075" lon="4.96252">
        <ele>396</ele>
        <time>2012-09-15T07:42:09Z</time>
      </trkpt>
      <trkpt lat="47.3108" lon="4.9626">
        <ele>397</ele>
        <time>2012-09-15T07:42:12Z</time>
      </trkpt>
      <trkpt lat="47.31083" lon="4.96265">
        <ele>398</ele>
        <time>2012-09-15T07:42:14Z</time>
      </trkpt>
      <trkpt lat="47.31086" lon="4.96272">
        <ele>396</ele>
        <time>2012-09-15T07:42:16Z</time>
      </trkpt>
      <trkpt lat="47.31088" lon="4.9628">
        <ele>397</ele>
        <time>2012-09-15T07:42:19Z</time>
      </trkpt>
      <trkpt lat="47.31088" lon="4.96288">
        <ele>395</ele>
        <time>2012-09-15T07:42:22Z</time>
      </trkpt>
      <trkpt lat="47.31092" lon="4.96294">
        <ele>397</ele>
        <time>2012-09-15T07:42:24Z</time>
      </trkpt>
      <trkpt lat="47.31093" lon="4.96303">
        <ele>395</ele>
        <time>2012-09-15T07:42:27Z</time>
      </trkpt>
      <trkpt lat="47.31096" lon="4.96311">
        <ele>394</ele>
        <time>2012-09-15T07:42:29Z</time>
      </trkpt>
      <trkpt lat="47.31098" lon="4.96317">
        <ele>393</ele>
        <time>2012-09-15T07:42:31Z</time>
      </trkpt>
      <trkpt lat="47.31102" lon="4.96323">
        <ele>393</ele>
        <time>2012-09-15T07:42:33Z</time>
      </trkpt>
      <trkpt lat="47.31105" lon="4.96329">
        <ele>394</ele>
        <time>2012-09-15T07:42:36Z</time>
      </trkpt>
      <trkpt lat="47.31109" lon="4.96334">
        <ele>395</ele>
        <time>2012-09-15T07:42:39Z</time>
      </trkpt>
      <trkpt lat="47.31113" lon="4.96341">
        <ele>395</ele>
        <time>2012-09-15T07:42:42Z</time>
      </trkpt>
      <trkpt lat="47.31116" lon="4.96346">
        <ele>395</ele>
        <time>2012-09-15T07:42:44Z</time>
      </trkpt>
      <trkpt lat="47.31119" lon="4.96352">
        <ele>395</ele>
        <time>2012-09-15T07:42:46Z</time>
      </trkpt>
      <trkpt lat="47.31122" lon="4.96358">
        <ele>395</ele>
        <time>2012-09-15T07:42:48Z</time>
      </trkpt>
      <trkpt lat="47.31126" lon="4.96364">
        <ele>396</ele>
        <time>2012-09-15T07:42:50Z</time>
      </trkpt>
      <trkpt lat="47.31129" lon="4.96368">
        <ele>397</ele>
        <time>2012-09-15T07:42:52Z</time>
      </trkpt>
      <trkpt lat="47.31132" lon="4.96374">
        <ele>397</ele>
        <time>2012-09-15T07:42:54Z</time>
      </trkpt>
      <trkpt lat="47.31134" lon="4.9638">
        <ele>396</ele>
        <time>2012-09-15T07:42:56Z</time>
      </trkpt>
      <trkpt lat="47.31138" lon="4.96386">
        <ele>396</ele>
        <time>2012-09-15T07:42:59Z</time>
      </trkpt>
      <trkpt lat="47.3114" lon="4.96393">
        <ele>398</ele>
        <time>2012-09-15T07:43:02Z</time>
      </trkpt>
      <trkpt lat="47.31144" lon="4.96401">
        <ele>399</ele>
        <time>2012-09-15T07:43:05Z</time>
      </trkpt>
      <trkpt lat="47.31147" lon="4.96409">
        <ele>399</ele>
        <time>2012-09-15T07:43:08Z</time>
      </trkpt>
      <trkpt lat="47.31151" lon="4.96415">
        <ele>399</ele>
        <time>2012-09-15T07:43:10Z</time>
      </trkpt>
      <trkpt lat="47.31154" lon="4.96422">
        <ele>398</ele>
        <time>2012-09-15T07:43:12Z</time>
      </trkpt>
      <trkpt lat="47.31156" lon="4.9643">
        <ele>398</ele>
        <time>2012-09-15T07:43:15Z</time>
      </trkpt>
      <trkpt lat="47.31159" lon="4.96436">
        <ele>400</ele>
        <time>2012-09-15T07:43:18Z</time>
      </trkpt>
      <trkpt lat="47.31161" lon="4.96443">
        <ele>400</ele>
        <time>2012-09-15T07:43:22Z</time>
      </trkpt>
      <trkpt lat="47.31163" lon="4.96451">
        <ele>400</ele>
        <time>2012-09-15T07:43:25Z</time>
      </trkpt>
      <trkpt lat="47.31165" lon="4.96457">
        <ele>400</ele>
        <time>2012-09-15T07:43:27Z</time>
      </trkpt>
      <trkpt lat="47.31167" lon="4.96466">
        <ele>399</ele>
        <time>2012-09-15T07:43:30Z</time>
      </trkpt>
      <trkpt lat="47.31168" lon="4.96474">
        <ele>400</ele>
        <time>2012-09-15T07:43:33Z</time>
      </trkpt>
      <trkpt lat="47.31172" lon="4.96481">
        <ele>400</ele>
        <time>2012-09-15T07:43:35Z</time>
      </trkpt>
      <trkpt lat="47.31174" lon="4.96488">
        <ele>400</ele>
        <time>2012-09-15T07:43:37Z</time>
      </trkpt>
      <trkpt lat="47.31176" lon="4.96494">
        <ele>400</ele>
        <time>2012-09-15T07:43:39Z</time>
      </trkpt>
      <trkpt lat="47.31176" lon="4.96503">
        <ele>401</ele>
        <time>2012-09-15T07:43:42Z</time>
      </trkpt>
      <trkpt lat="47.31176" lon="4.96511">
        <ele>400</ele>
        <time>2012-09-15T07:43:44Z</time>
      </trkpt>
      <trkpt lat="47.31171" lon="4.96513">
        <ele>398</ele>
        <time>2012-09-15T07:43:46Z</time>
      </trkpt>
      <trkpt lat="47.3117" lon="4.96521">
        <ele>397</ele>
        <time>2012-09-15T07:43:49Z</time>
      </trkpt>
      <trkpt lat="47.31172" lon="4.96529">
        <ele>397</ele>
        <time>2012-09-15T07:43:51Z</time>
      </trkpt>
      <trkpt lat="47.31173" lon="4.96538">
        <ele>395</ele>
        <time>2012-09-15T07:43:53Z</time>
      </trkpt>
      <trkpt lat="47.31174" lon="4.96547">
        <ele>395</ele>
        <time>2012-09-15T07:43:56Z</time>
      </trkpt>
      <trkpt lat="47.31175" lon="4.96555">
        <ele>396</ele>
        <time>2012-09-15T07:43:59Z</time>
      </trkpt>
      <trkpt lat="47.31176" lon="4.96561">
        <ele>395</ele>
        <time>2012-09-15T07:44:01Z</time>
      </trkpt>
      <trkpt lat="47.31177" lon="4.9657">
        <ele>397</ele>
        <time>2012-09-15T07:44:04Z</time>
      </trkpt>
      <trkpt lat="47.31177" lon="4.96578">
        <ele>398</ele>
        <time>2012-09-15T07:44:07Z</time>
      </trkpt>
      <trkpt lat="47.31176" lon="4.96587">
        <ele>398</ele>
        <time>2012-09-15T07:44:10Z</time>
      </trkpt>
      <trkpt lat="47.31174" lon="4.96594">
        <ele>398</ele>
        <time>2012-09-15T07:44:12Z</time>
      </trkpt>
      <trkpt lat="47.31171" lon="4.96602">
        <ele>398</ele>
        <time>2012-09-15T07:44:15Z</time>
      </trkpt>
      <trkpt lat="47.3117" lon="4.96609">
        <ele>398</ele>
        <time>2012-09-15T07:44:17Z</time>
      </trkpt>
      <trkpt lat="47.3117" lon="4.96617">
        <ele>397</ele>
        <time>2012-09-15T07:44:19Z</time>
      </trkpt>
      <trkpt lat="47.31177" lon="4.96626">
        <ele>394</ele>
        <time>2012-09-15T07:44:20Z</time>
      </trkpt>
      <trkpt lat="47.31178" lon="4.96635">
        <ele>392</ele>
        <time>2012-09-15T07:44:22Z</time>
      </trkpt>
      <trkpt lat="47.31182" lon="4.96645">
        <ele>390</ele>
        <time>2012-09-15T07:44:24Z</time>
      </trkpt>
      <trkpt lat="47.31183" lon="4.96653">
        <ele>387</ele>
        <time>2012-09-15T07:44:27Z</time>
      </trkpt>
      <trkpt lat="47.31181" lon="4.9666">
        <ele>385</ele>
        <time>2012-09-15T07:44:30Z</time>
      </trkpt>
      <trkpt lat="47.3118" lon="4.96668">
        <ele>386</ele>
        <time>2012-09-15T07:44:33Z</time>
      </trkpt>
      <trkpt lat="47.31179" lon="4.96676">
        <ele>385</ele>
        <time>2012-09-15T07:44:35Z</time>
      </trkpt>
      <trkpt lat="47.31179" lon="4.96684">
        <ele>386</ele>
        <time>2012-09-15T07:44:38Z</time>
      </trkpt>
      <trkpt lat="47.31179" lon="4.96693">
        <ele>386</ele>
        <time>2012-09-15T07:44:41Z</time>
      </trkpt>
      <trkpt lat="47.31181" lon="4.967">
        <ele>385</ele>
        <time>2012-09-15T07:44:43Z</time>
      </trkpt>
      <trkpt lat="47.31183" lon="4.96708">
        <ele>384</ele>
        <time>2012-09-15T07:44:46Z</time>
      </trkpt>
      <trkpt lat="47.31183" lon="4.96715">
        <ele>384</ele>
        <time>2012-09-15T07:44:48Z</time>
      </trkpt>
      <trkpt lat="47.31186" lon="4.96724">
        <ele>382</ele>
        <time>2012-09-15T07:44:51Z</time>
      </trkpt>
      <trkpt lat="47.31188" lon="4.96732">
        <ele>383</ele>
        <time>2012-09-15T07:44:54Z</time>
      </trkpt>
      <trkpt lat="47.31189" lon="4.96739">
        <ele>384</ele>
        <time>2012-09-15T07:44:57Z</time>
      </trkpt>
      <trkpt lat="47.31191" lon="4.96746">
        <ele>385</ele>
        <time>2012-09-15T07:45:00Z</time>
      </trkpt>
      <trkpt lat="47.31195" lon="4.96754">
        <ele>384</ele>
        <time>2012-09-15T07:45:02Z</time>
      </trkpt>
      <trkpt lat="47.31198" lon="4.9676">
        <ele>383</ele>
        <time>2012-09-15T07:45:04Z</time>
      </trkpt>
      <trkpt lat="47.31201" lon="4.96766">
        <ele>382</ele>
        <time>2012-09-15T07:45:06Z</time>
      </trkpt>
      <trkpt lat="47.31203" lon="4.96773">
        <ele>382</ele>
        <time>2012-09-15T07:45:08Z</time>
      </trkpt>
      <trkpt lat="47.31205" lon="4.96782">
        <ele>381</ele>
        <time>2012-09-15T07:45:11Z</time>
      </trkpt>
      <trkpt lat="47.31206" lon="4.96789">
        <ele>381</ele>
        <time>2012-09-15T07:45:14Z</time>
      </trkpt>
      <trkpt lat="47.31208" lon="4.96794">
        <ele>379</ele>
        <time>2012-09-15T07:45:17Z</time>
      </trkpt>
      <trkpt lat="47.31214" lon="4.96799">
        <ele>379</ele>
        <time>2012-09-15T07:45:20Z</time>
      </trkpt>
      <trkpt lat="47.31219" lon="4.96805">
        <ele>378</ele>
        <time>2012-09-15T07:45:23Z</time>
      </trkpt>
      <trkpt lat="47.31225" lon="4.96809">
        <ele>377</ele>
        <time>2012-09-15T07:45:26Z</time>
      </trkpt>
      <trkpt lat="47.3123" lon="4.96814">
        <ele>377</ele>
        <time>2012-09-15T07:45:29Z</time>
      </trkpt>
      <trkpt lat="47.31234" lon="4.96819">
        <ele>376</ele>
        <time>2012-09-15T07:45:31Z</time>
      </trkpt>
      <trkpt lat="47.31238" lon="4.96822">
        <ele>375</ele>
        <time>2012-09-15T07:45:33Z</time>
      </trkpt>
      <trkpt lat="47.31242" lon="4.96826">
        <ele>375</ele>
        <time>2012-09-15T07:45:35Z</time>
      </trkpt>
      <trkpt lat="47.31246" lon="4.9683">
        <ele>374</ele>
        <time>2012-09-15T07:45:37Z</time>
      </trkpt>
      <trkpt lat="47.31249" lon="4.96835">
        <ele>373</ele>
        <time>2012-09-15T07:45:39Z</time>
      </trkpt>
      <trkpt lat="47.31254" lon="4.9684">
        <ele>373</ele>
        <time>2012-09-15T07:45:42Z</time>
      </trkpt>
      <trkpt lat="47.31259" lon="4.96845">
        <ele>373</ele>
        <time>2012-09-15T07:45:45Z</time>
      </trkpt>
      <trkpt lat="47.31264" lon="4.9685">
        <ele>373</ele>
        <time>2012-09-15T07:45:48Z</time>
      </trkpt>
      <trkpt lat="47.31269" lon="4.96855">
        <ele>374</ele>
        <time>2012-09-15T07:45:51Z</time>
      </trkpt>
      <trkpt lat="47.31272" lon="4.96859">
        <ele>374</ele>
        <time>2012-09-15T07:45:53Z</time>
      </trkpt>
      <trkpt lat="47.31277" lon="4.96865">
        <ele>374</ele>
        <time>2012-09-15T07:45:56Z</time>
      </trkpt>
      <trkpt lat="47.31282" lon="4.9687">
        <ele>374</ele>
        <time>2012-09-15T07:45:59Z</time>
      </trkpt>
      <trkpt lat="47.31288" lon="4.96874">
        <ele>374</ele>
        <time>2012-09-15T07:46:02Z</time>
      </trkpt>
      <trkpt lat="47.31293" lon="4.96879">
        <ele>374</ele>
        <time>2012-09-15T07:46:05Z</time>
      </trkpt>
      <trkpt lat="47.31298" lon="4.96884">
        <ele>375</ele>
        <time>2012-09-15T07:46:08Z</time>
      </trkpt>
      <trkpt lat="47.31302" lon="4.96889">
        <ele>375</ele>
        <time>2012-09-15T07:46:11Z</time>
      </trkpt>
      <trkpt lat="47.31308" lon="4.96893">
        <ele>375</ele>
        <time>2012-09-15T07:46:14Z</time>
      </trkpt>
      <trkpt lat="47.31313" lon="4.969">
        <ele>375</ele>
        <time>2012-09-15T07:46:17Z</time>
      </trkpt>
      <trkpt lat="47.31318" lon="4.96905">
        <ele>374</ele>
        <time>2012-09-15T07:46:20Z</time>
      </trkpt>
      <trkpt lat="47.31324" lon="4.9691">
        <ele>375</ele>
        <time>2012-09-15T07:46:23Z</time>
      </trkpt>
      <trkpt lat="47.31328" lon="4.96914">
        <ele>375</ele>
        <time>2012-09-15T07:46:25Z</time>
      </trkpt>
      <trkpt lat="47.31332" lon="4.96918">
        <ele>374</ele>
        <time>2012-09-15T07:46:27Z</time>
      </trkpt>
      <trkpt lat="47.31338" lon="4.96923">
        <ele>374</ele>
        <time>2012-09-15T07:46:30Z</time>
      </trkpt>
      <trkpt lat="47.31342" lon="4.96929">
        <ele>373</ele>
        <time>2012-09-15T07:46:33Z</time>
      </trkpt>
      <trkpt lat="47.31347" lon="4.96936">
        <ele>373</ele>
        <time>2012-09-15T07:46:36Z</time>
      </trkpt>
      <trkpt lat="47.3135" lon="4.96945">
        <ele>373</ele>
        <time>2012-09-15T07:46:39Z</time>
      </trkpt>
      <trkpt lat="47.31355" lon="4.96951">
        <ele>373</ele>
        <time>2012-09-15T07:46:42Z</time>
      </trkpt>
      <trkpt lat="47.31359" lon="4.96956">
        <ele>373</ele>
        <time>2012-09-15T07:46:45Z</time>
      </trkpt>
      <trkpt lat="47.31364" lon="4.96961">
        <ele>371</ele>
        <time>2012-09-15T07:46:47Z</time>
      </trkpt>
      <trkpt lat="47.31366" lon="4.96968">
        <ele>369</ele>
        <time>2012-09-15T07:46:50Z</time>
      </trkpt>
      <trkpt lat="47.3137" lon="4.96975">
        <ele>369</ele>
        <time>2012-09-15T07:46:52Z</time>
      </trkpt>
      <trkpt lat="47.31374" lon="4.96982">
        <ele>370</ele>
        <time>2012-09-15T07:46:55Z</time>
      </trkpt>
      <trkpt lat="47.31377" lon="4.96988">
        <ele>369</ele>
        <time>2012-09-15T07:46:57Z</time>
      </trkpt>
      <trkpt lat="47.31381" lon="4.96995">
        <ele>370</ele>
        <time>2012-09-15T07:47:00Z</time>
      </trkpt>
      <trkpt lat="47.31383" lon="4.97001">
        <ele>370</ele>
        <time>2012-09-15T07:47:02Z</time>
      </trkpt>
      <trkpt lat="47.31387" lon="4.97005">
        <ele>369</ele>
        <time>2012-09-15T07:47:04Z</time>
      </trkpt>
      <trkpt lat="47.31391" lon="4.9701">
        <ele>370</ele>
        <time>2012-09-15T07:47:07Z</time>
      </trkpt>
      <trkpt lat="47.31396" lon="4.97016">
        <ele>370</ele>
        <time>2012-09-15T07:47:10Z</time>
      </trkpt>
      <trkpt lat="47.31399" lon="4.97021">
        <ele>370</ele>
        <time>2012-09-15T07:47:12Z</time>
      </trkpt>
      <trkpt lat="47.31402" lon="4.97026">
        <ele>371</ele>
        <time>2012-09-15T07:47:14Z</time>
      </trkpt>
      <trkpt lat="47.31405" lon="4.97032">
        <ele>371</ele>
        <time>2012-09-15T07:47:16Z</time>
      </trkpt>
      <trkpt lat="47.3141" lon="4.97037">
        <ele>372</ele>
        <time>2012-09-15T07:47:19Z</time>
      </trkpt>
      <trkpt lat="47.31413" lon="4.97044">
        <ele>372</ele>
        <time>2012-09-15T07:47:22Z</time>
      </trkpt>
      <trkpt lat="47.31417" lon="4.9705">
        <ele>372</ele>
        <time>2012-09-15T07:47:24Z</time>
      </trkpt>
      <trkpt lat="47.31421" lon="4.97056">
        <ele>372</ele>
        <time>2012-09-15T07:47:27Z</time>
      </trkpt>
      <trkpt lat="47.31426" lon="4.97062">
        <ele>372</ele>
        <time>2012-09-15T07:47:30Z</time>
      </trkpt>
      <trkpt lat="47.31431" lon="4.97067">
        <ele>372</ele>
        <time>2012-09-15T07:47:33Z</time>
      </trkpt>
      <trkpt lat="47.31435" lon="4.97071">
        <ele>374</ele>
        <time>2012-09-15T07:47:36Z</time>
      </trkpt>
      <trkpt lat="47.31439" lon="4.97077">
        <ele>374</ele>
        <time>2012-09-15T07:47:40Z</time>
      </trkpt>
      <trkpt lat="47.31444" lon="4.97082">
        <ele>376</ele>
        <time>2012-09-15T07:47:43Z</time>
      </trkpt>
      <trkpt lat="47.31448" lon="4.97086">
        <ele>378</ele>
        <time>2012-09-15T07:47:46Z</time>
      </trkpt>
      <trkpt lat="47.31454" lon="4.9709">
        <ele>380</ele>
        <time>2012-09-15T07:47:49Z</time>
      </trkpt>
      <trkpt lat="47.31459" lon="4.97095">
        <ele>381</ele>
        <time>2012-09-15T07:47:52Z</time>
      </trkpt>
      <trkpt lat="47.31463" lon="4.97099">
        <ele>381</ele>
        <time>2012-09-15T07:47:55Z</time>
      </trkpt>
      <trkpt lat="47.31467" lon="4.97102">
        <ele>381</ele>
        <time>2012-09-15T07:47:58Z</time>
      </trkpt>
      <trkpt lat="47.31471" lon="4.97107">
        <ele>382</ele>
        <time>2012-09-15T07:48:00Z</time>
      </trkpt>
      <trkpt lat="47.31476" lon="4.9711">
        <ele>384</ele>
        <time>2012-09-15T07:48:03Z</time>
      </trkpt>
      <trkpt lat="47.3148" lon="4.97114">
        <ele>385</ele>
        <time>2012-09-15T07:48:05Z</time>
      </trkpt>
      <trkpt lat="47.31486" lon="4.97118">
        <ele>388</ele>
        <time>2012-09-15T07:48:08Z</time>
      </trkpt>
      <trkpt lat="47.3149" lon="4.97123">
        <ele>389</ele>
        <time>2012-09-15T07:48:11Z</time>
      </trkpt>
      <trkpt lat="47.31494" lon="4.97127">
        <ele>391</ele>
        <time>2012-09-15T07:48:14Z</time>
      </trkpt>
      <trkpt lat="47.31498" lon="4.97131">
        <ele>392</ele>
        <time>2012-09-15T07:48:16Z</time>
      </trkpt>
      <trkpt lat="47.31505" lon="4.97134">
        <ele>395</ele>
        <time>2012-09-15T07:48:20Z</time>
      </trkpt>
      <trkpt lat="47.3151" lon="4.9714">
        <ele>395</ele>
        <time>2012-09-15T07:48:23Z</time>
      </trkpt>
      <trkpt lat="47.31515" lon="4.97144">
        <ele>396</ele>
        <time>2012-09-15T07:48:26Z</time>
      </trkpt>
      <trkpt lat="47.3152" lon="4.9715">
        <ele>396</ele>
        <time>2012-09-15T07:48:29Z</time>
      </trkpt>
      <trkpt lat="47.31526" lon="4.97153">
        <ele>397</ele>
        <time>2012-09-15T07:48:32Z</time>
      </trkpt>
      <trkpt lat="47.31529" lon="4.97158">
        <ele>396</ele>
        <time>2012-09-15T07:48:34Z</time>
      </trkpt>
      <trkpt lat="47.31535" lon="4.97161">
        <ele>397</ele>
        <time>2012-09-15T07:48:37Z</time>
      </trkpt>
      <trkpt lat="47.31538" lon="4.97166">
        <ele>396</ele>
        <time>2012-09-15T07:48:40Z</time>
      </trkpt>
      <trkpt lat="47.31544" lon="4.97169">
        <ele>396</ele>
        <time>2012-09-15T07:48:43Z</time>
      </trkpt>
      <trkpt lat="47.3155" lon="4.97174">
        <ele>395</ele>
        <time>2012-09-15T07:48:45Z</time>
      </trkpt>
      <trkpt lat="47.31554" lon="4.97176">
        <ele>395</ele>
        <time>2012-09-15T07:48:47Z</time>
      </trkpt>
      <trkpt lat="47.31558" lon="4.97178">
        <ele>395</ele>
        <time>2012-09-15T07:48:49Z</time>
      </trkpt>
      <trkpt lat="47.31565" lon="4.97181">
        <ele>396</ele>
        <time>2012-09-15T07:48:52Z</time>
      </trkpt>
      <trkpt lat="47.31571" lon="4.97185">
        <ele>396</ele>
        <time>2012-09-15T07:48:55Z</time>
      </trkpt>
      <trkpt lat="47.31575" lon="4.9719">
        <ele>393</ele>
        <time>2012-09-15T07:48:58Z</time>
      </trkpt>
      <trkpt lat="47.3158" lon="4.97194">
        <ele>392</ele>
        <time>2012-09-15T07:49:00Z</time>
      </trkpt>
      <trkpt lat="47.31585" lon="4.97199">
        <ele>390</ele>
        <time>2012-09-15T07:49:03Z</time>
      </trkpt>
      <trkpt lat="47.31591" lon="4.97203">
        <ele>388</ele>
        <time>2012-09-15T07:49:06Z</time>
      </trkpt>
      <trkpt lat="47.31596" lon="4.97207">
        <ele>388</ele>
        <time>2012-09-15T07:49:09Z</time>
      </trkpt>
      <trkpt lat="47.31602" lon="4.9721">
        <ele>387</ele>
        <time>2012-09-15T07:49:12Z</time>
      </trkpt>
      <trkpt lat="47.31608" lon="4.97212">
        <ele>387</ele>
        <time>2012-09-15T07:49:15Z</time>
      </trkpt>
      <trkpt lat="47.31614" lon="4.97217">
        <ele>384</ele>
        <time>2012-09-15T07:49:18Z</time>
      </trkpt>
      <trkpt lat="47.31618" lon="4.9722">
        <ele>383</ele>
        <time>2012-09-15T07:49:21Z</time>
      </trkpt>
      <trkpt lat="47.31623" lon="4.97223">
        <ele>382</ele>
        <time>2012-09-15T07:49:24Z</time>
      </trkpt>
      <trkpt lat="47.31628" lon="4.97228">
        <ele>380</ele>
        <time>2012-09-15T07:49:27Z</time>
      </trkpt>
      <trkpt lat="47.31632" lon="4.9723">
        <ele>380</ele>
        <time>2012-09-15T07:49:29Z</time>
      </trkpt>
      <trkpt lat="47.31638" lon="4.97232">
        <ele>379</ele>
        <time>2012-09-15T07:49:32Z</time>
      </trkpt>
      <trkpt lat="47.31644" lon="4.97233">
        <ele>378</ele>
        <time>2012-09-15T07:49:35Z</time>
      </trkpt>
      <trkpt lat="47.31649" lon="4.97233">
        <ele>379</ele>
        <time>2012-09-15T07:49:37Z</time>
      </trkpt>
      <trkpt lat="47.31654" lon="4.97234">
        <ele>380</ele>
        <time>2012-09-15T07:49:39Z</time>
      </trkpt>
      <trkpt lat="47.3166" lon="4.97237">
        <ele>379</ele>
        <time>2012-09-15T07:49:42Z</time>
      </trkpt>
      <trkpt lat="47.31665" lon="4.97239">
        <ele>379</ele>
        <time>2012-09-15T07:49:45Z</time>
      </trkpt>
      <trkpt lat="47.3167" lon="4.97242">
        <ele>378</ele>
        <time>2012-09-15T07:49:48Z</time>
      </trkpt>
      <trkpt lat="47.31674" lon="4.97248">
        <ele>377</ele>
        <time>2012-09-15T07:49:51Z</time>
      </trkpt>
      <trkpt lat="47.31678" lon="4.97252">
        <ele>376</ele>
        <time>2012-09-15T07:49:53Z</time>
      </trkpt>
      <trkpt lat="47.31683" lon="4.97257">
        <ele>375</ele>
        <time>2012-09-15T07:49:55Z</time>
      </trkpt>
      <trkpt lat="47.31687" lon="4.9726">
        <ele>376</ele>
        <time>2012-09-15T07:49:57Z</time>
      </trkpt>
      <trkpt lat="47.31692" lon="4.97266">
        <ele>374</ele>
        <time>2012-09-15T07:50:00Z</time>
      </trkpt>
      <trkpt lat="47.31698" lon="4.97271">
        <ele>374</ele>
        <time>2012-09-15T07:50:03Z</time>
      </trkpt>
      <trkpt lat="47.31704" lon="4.97276">
        <ele>374</ele>
        <time>2012-09-15T07:50:06Z</time>
      </trkpt>
      <trkpt lat="47.3171" lon="4.9728">
        <ele>373</ele>
        <time>2012-09-15T07:50:09Z</time>
      </trkpt>
      <trkpt lat="47.31713" lon="4.97286">
        <ele>373</ele>
        <time>2012-09-15T07:50:13Z</time>
      </trkpt>
      <trkpt lat="47.31718" lon="4.97291">
        <ele>373</ele>
        <time>2012-09-15T07:50:15Z</time>
      </trkpt>
      <trkpt lat="47.31723" lon="4.97296">
        <ele>374</ele>
        <time>2012-09-15T07:50:18Z</time>
      </trkpt>
      <trkpt lat="47.31728" lon="4.973">
        <ele>373</ele>
        <time>2012-09-15T07:50:21Z</time>
      </trkpt>
      <trkpt lat="47.31733" lon="4.97302">
        <ele>372</ele>
        <time>2012-09-15T07:50:23Z</time>
      </trkpt>
      <trkpt lat="47.31737" lon="4.97306">
        <ele>372</ele>
        <time>2012-09-15T07:50:26Z</time>
      </trkpt>
      <trkpt lat="47.31743" lon="4.9731">
        <ele>372</ele>
        <time>2012-09-15T07:50:29Z</time>
      </trkpt>
      <trkpt lat="47.31748" lon="4.97315">
        <ele>371</ele>
        <time>2012-09-15T07:50:32Z</time>
      </trkpt>
      <trkpt lat="47.31752" lon="4.97318">
        <ele>372</ele>
        <time>2012-09-15T07:50:35Z</time>
      </trkpt>
      <trkpt lat="47.31757" lon="4.97321">
        <ele>370</ele>
        <time>2012-09-15T07:50:37Z</time>
      </trkpt>
      <trkpt lat="47.31763" lon="4.97322">
        <ele>370</ele>
        <time>2012-09-15T07:50:40Z</time>
      </trkpt>
      <trkpt lat="47.3177" lon="4.97325">
        <ele>370</ele>
        <time>2012-09-15T07:50:43Z</time>
      </trkpt>
      <trkpt lat="47.31776" lon="4.97328">
        <ele>371</ele>
        <time>2012-09-15T07:50:46Z</time>
      </trkpt>
      <trkpt lat="47.3178" lon="4.97332">
        <ele>370</ele>
        <time>2012-09-15T07:50:49Z</time>
      </trkpt>
      <trkpt lat="47.31786" lon="4.97336">
        <ele>369</ele>
        <time>2012-09-15T07:50:52Z</time>
      </trkpt>
      <trkpt lat="47.31792" lon="4.97339">
        <ele>368</ele>
        <time>2012-09-15T07:50:55Z</time>
      </trkpt>
      <trkpt lat="47.31796" lon="4.97342">
        <ele>368</ele>
        <time>2012-09-15T07:50:57Z</time>
      </trkpt>
      <trkpt lat="47.318" lon="4.97346">
        <ele>368</ele>
        <time>2012-09-15T07:50:59Z</time>
      </trkpt>
      <trkpt lat="47.31804" lon="4.9735">
        <ele>369</ele>
        <time>2012-09-15T07:51:02Z</time>
      </trkpt>
      <trkpt lat="47.31808" lon="4.97355">
        <ele>368</ele>
        <time>2012-09-15T07:51:05Z</time>
      </trkpt>
      <trkpt lat="47.31812" lon="4.97359">
        <ele>367</ele>
        <time>2012-09-15T07:51:08Z</time>
      </trkpt>
      <trkpt lat="47.31816" lon="4.97364">
        <ele>368</ele>
        <time>2012-09-15T07:51:11Z</time>
      </trkpt>
      <trkpt lat="47.31822" lon="4.9737">
        <ele>367</ele>
        <time>2012-09-15T07:51:14Z</time>
      </trkpt>
      <trkpt lat="47.31825" lon="4.97375">
        <ele>366</ele>
        <time>2012-09-15T07:51:16Z</time>
      </trkpt>
      <trkpt lat="47.31829" lon="4.97382">
        <ele>364</ele>
        <time>2012-09-15T07:51:19Z</time>
      </trkpt>
      <trkpt lat="47.31831" lon="4.97388">
        <ele>365</ele>
        <time>2012-09-15T07:51:21Z</time>
      </trkpt>
      <trkpt lat="47.31834" lon="4.97394">
        <ele>364</ele>
        <time>2012-09-15T07:51:23Z</time>
      </trkpt>
      <trkpt lat="47.31839" lon="4.974">
        <ele>363</ele>
        <time>2012-09-15T07:51:25Z</time>
      </trkpt>
      <trkpt lat="47.31841" lon="4.97406">
        <ele>362</ele>
        <time>2012-09-15T07:51:27Z</time>
      </trkpt>
      <trkpt lat="47.31844" lon="4.97415">
        <ele>360</ele>
        <time>2012-09-15T07:51:30Z</time>
      </trkpt>
      <trkpt lat="47.31846" lon="4.97424">
        <ele>360</ele>
        <time>2012-09-15T07:51:33Z</time>
      </trkpt>
      <trkpt lat="47.31848" lon="4.97432">
        <ele>359</ele>
        <time>2012-09-15T07:51:36Z</time>
      </trkpt>
      <trkpt lat="47.31852" lon="4.97438">
        <ele>359</ele>
        <time>2012-09-15T07:51:38Z</time>
      </trkpt>
      <trkpt lat="47.31855" lon="4.97445">
        <ele>356</ele>
        <time>2012-09-15T07:51:40Z</time>
      </trkpt>
      <trkpt lat="47.31856" lon="4.97451">
        <ele>356</ele>
        <time>2012-09-15T07:51:43Z</time>
      </trkpt>
      <trkpt lat="47.31858" lon="4.97458">
        <ele>357</ele>
        <time>2012-09-15T07:51:46Z</time>
      </trkpt>
      <trkpt lat="47.31863" lon="4.97466">
        <ele>358</ele>
        <time>2012-09-15T07:51:49Z</time>
      </trkpt>
      <trkpt lat="47.31866" lon="4.97471">
        <ele>359</ele>
        <time>2012-09-15T07:51:51Z</time>
      </trkpt>
      <trkpt lat="47.31868" lon="4.97479">
        <ele>359</ele>
        <time>2012-09-15T07:51:55Z</time>
      </trkpt>
      <trkpt lat="47.31873" lon="4.97487">
        <ele>360</ele>
        <time>2012-09-15T07:51:58Z</time>
      </trkpt>
      <trkpt lat="47.31874" lon="4.97493">
        <ele>360</ele>
        <time>2012-09-15T07:52:01Z</time>
      </trkpt>
      <trkpt lat="47.31877" lon="4.97502">
        <ele>358</ele>
        <time>2012-09-15T07:52:05Z</time>
      </trkpt>
      <trkpt lat="47.31881" lon="4.97508">
        <ele>358</ele>
        <time>2012-09-15T07:52:08Z</time>
      </trkpt>
      <trkpt lat="47.31885" lon="4.97515">
        <ele>358</ele>
        <time>2012-09-15T07:52:11Z</time>
      </trkpt>
      <trkpt lat="47.31889" lon="4.97519">
        <ele>359</ele>
        <time>2012-09-15T07:52:14Z</time>
      </trkpt>
      <trkpt lat="47.31892" lon="4.97526">
        <ele>359</ele>
        <time>2012-09-15T07:52:18Z</time>
      </trkpt>
      <trkpt lat="47.31897" lon="4.9753">
        <ele>360</ele>
        <time>2012-09-15T07:52:20Z</time>
      </trkpt>
      <trkpt lat="47.31903" lon="4.97535">
        <ele>361</ele>
        <time>2012-09-15T07:52:23Z</time>
      </trkpt>
      <trkpt lat="47.31907" lon="4.97539">
        <ele>361</ele>
        <time>2012-09-15T07:52:25Z</time>
      </trkpt>
      <trkpt lat="47.31911" lon="4.97545">
        <ele>360</ele>
        <time>2012-09-15T07:52:28Z</time>
      </trkpt>
      <trkpt lat="47.31916" lon="4.9755">
        <ele>359</ele>
        <time>2012-09-15T07:52:31Z</time>
      </trkpt>
      <trkpt lat="47.31919" lon="4.97554">
        <ele>359</ele>
        <time>2012-09-15T07:52:33Z</time>
      </trkpt>
      <trkpt lat="47.31924" lon="4.97559">
        <ele>360</ele>
        <time>2012-09-15T07:52:36Z</time>
      </trkpt>
      <trkpt lat="47.31928" lon="4.97563">
        <ele>361</ele>
        <time>2012-09-15T07:52:39Z</time>
      </trkpt>
      <trkpt lat="47.31933" lon="4.97569">
        <ele>361</ele>
        <time>2012-09-15T07:52:42Z</time>
      </trkpt>
      <trkpt lat="47.31936" lon="4.97575">
        <ele>361</ele>
        <time>2012-09-15T07:52:45Z</time>
      </trkpt>
      <trkpt lat="47.31938" lon="4.97582">
        <ele>360</ele>
        <time>2012-09-15T07:52:48Z</time>
      </trkpt>
      <trkpt lat="47.31939" lon="4.97591">
        <ele>363</ele>
        <time>2012-09-15T07:52:51Z</time>
      </trkpt>
      <trkpt lat="47.3194" lon="4.97598">
        <ele>361</ele>
        <time>2012-09-15T07:52:54Z</time>
      </trkpt>
      <trkpt lat="47.31941" lon="4.97607">
        <ele>361</ele>
        <time>2012-09-15T07:52:57Z</time>
      </trkpt>
      <trkpt lat="47.31943" lon="4.97613">
        <ele>361</ele>
        <time>2012-09-15T07:52:59Z</time>
      </trkpt>
      <trkpt lat="47.31945" lon="4.97619">
        <ele>360</ele>
        <time>2012-09-15T07:53:01Z</time>
      </trkpt>
      <trkpt lat="47.31948" lon="4.97626">
        <ele>359</ele>
        <time>2012-09-15T07:53:04Z</time>
      </trkpt>
      <trkpt lat="47.3195" lon="4.97634">
        <ele>357</ele>
        <time>2012-09-15T07:53:07Z</time>
      </trkpt>
      <trkpt lat="47.31954" lon="4.97642">
        <ele>355</ele>
        <time>2012-09-15T07:53:09Z</time>
      </trkpt>
      <trkpt lat="47.31957" lon="4.97647">
        <ele>354</ele>
        <time>2012-09-15T07:53:12Z</time>
      </trkpt>
      <trkpt lat="47.31961" lon="4.97652">
        <ele>354</ele>
        <time>2012-09-15T07:53:14Z</time>
      </trkpt>
      <trkpt lat="47.31965" lon="4.97658">
        <ele>355</ele>
        <time>2012-09-15T07:53:16Z</time>
      </trkpt>
      <trkpt lat="47.31968" lon="4.97664">
        <ele>356</ele>
        <time>2012-09-15T07:53:18Z</time>
      </trkpt>
      <trkpt lat="47.3197" lon="4.97672">
        <ele>357</ele>
        <time>2012-09-15T07:53:20Z</time>
      </trkpt>
      <trkpt lat="47.3197" lon="4.9768">
        <ele>357</ele>
        <time>2012-09-15T07:53:22Z</time>
      </trkpt>
      <trkpt lat="47.31973" lon="4.97686">
        <ele>356</ele>
        <time>2012-09-15T07:53:24Z</time>
      </trkpt>
      <trkpt lat="47.31973" lon="4.97696">
        <ele>356</ele>
        <time>2012-09-15T07:53:27Z</time>
      </trkpt>
      <trkpt lat="47.31973" lon="4.97704">
        <ele>355</ele>
        <time>2012-09-15T07:53:30Z</time>
      </trkpt>
      <trkpt lat="47.31972" lon="4.97713">
        <ele>354</ele>
        <time>2012-09-15T07:53:33Z</time>
      </trkpt>
      <trkpt lat="47.31972" lon="4.97721">
        <ele>354</ele>
        <time>2012-09-15T07:53:36Z</time>
      </trkpt>
      <trkpt lat="47.31974" lon="4.97729">
        <ele>355</ele>
        <time>2012-09-15T07:53:39Z</time>
      </trkpt>
      <trkpt lat="47.31972" lon="4.97737">
        <ele>354</ele>
        <time>2012-09-15T07:53:42Z</time>
      </trkpt>
      <trkpt lat="47.31976" lon="4.97744">
        <ele>354</ele>
        <time>2012-09-15T07:53:44Z</time>
      </trkpt>
      <trkpt lat="47.31976" lon="4.97752">
        <ele>354</ele>
        <time>2012-09-15T07:53:47Z</time>
      </trkpt>
      <trkpt lat="47.31976" lon="4.97762">
        <ele>354</ele>
        <time>2012-09-15T07:53:50Z</time>
      </trkpt>
      <trkpt lat="47.31977" lon="4.9777">
        <ele>353</ele>
        <time>2012-09-15T07:53:52Z</time>
      </trkpt>
      <trkpt lat="47.31979" lon="4.97776">
        <ele>352</ele>
        <time>2012-09-15T07:53:54Z</time>
      </trkpt>
      <trkpt lat="47.31979" lon="4.97783">
        <ele>351</ele>
        <time>2012-09-15T07:53:57Z</time>
      </trkpt>
      <trkpt lat="47.31981" lon="4.9779">
        <ele>350</ele>
        <time>2012-09-15T07:53:59Z</time>
      </trkpt>
      <trkpt lat="47.31984" lon="4.97798">
        <ele>347</ele>
        <time>2012-09-15T07:54:01Z</time>
      </trkpt>
      <trkpt lat="47.31986" lon="4.97806">
        <ele>346</ele>
        <time>2012-09-15T07:54:03Z</time>
      </trkpt>
      <trkpt lat="47.31988" lon="4.97813">
        <ele>345</ele>
        <time>2012-09-15T07:54:05Z</time>
      </trkpt>
      <trkpt lat="47.3199" lon="4.97821">
        <ele>345</ele>
        <time>2012-09-15T07:54:08Z</time>
      </trkpt>
      <trkpt lat="47.31987" lon="4.9783">
        <ele>343</ele>
        <time>2012-09-15T07:54:10Z</time>
      </trkpt>
      <trkpt lat="47.31983" lon="4.97824">
        <ele>344</ele>
        <time>2012-09-15T07:54:20Z</time>
      </trkpt>
      <trkpt lat="47.31978" lon="4.97822">
        <ele>346</ele>
        <time>2012-09-15T07:54:25Z</time>
      </trkpt>
      <trkpt lat="47.31975" lon="4.97816">
        <ele>347</ele>
        <time>2012-09-15T07:54:29Z</time>
      </trkpt>
      <trkpt lat="47.31973" lon="4.97809">
        <ele>348</ele>
        <time>2012-09-15T07:54:34Z</time>
      </trkpt>
      <trkpt lat="47.3197" lon="4.97804">
        <ele>350</ele>
        <time>2012-09-15T07:54:40Z</time>
      </trkpt>
      <trkpt lat="47.31965" lon="4.97801">
        <ele>351</ele>
        <time>2012-09-15T07:54:43Z</time>
      </trkpt>
      <trkpt lat="47.31962" lon="4.97794">
        <ele>352</ele>
        <time>2012-09-15T07:54:50Z</time>
      </trkpt>
      <trkpt lat="47.3196" lon="4.97786">
        <ele>350</ele>
        <time>2012-09-15T07:54:53Z</time>
      </trkpt>
      <trkpt lat="47.3196" lon="4.97779">
        <ele>349</ele>
        <time>2012-09-15T07:54:57Z</time>
      </trkpt>
      <trkpt lat="47.3196" lon="4.9777">
        <ele>348</ele>
        <time>2012-09-15T07:55:00Z</time>
      </trkpt>
      <trkpt lat="47.31958" lon="4.97763">
        <ele>347</ele>
        <time>2012-09-15T07:55:03Z</time>
      </trkpt>
      <trkpt lat="47.3196" lon="4.97755">
        <ele>348</ele>
        <time>2012-09-15T07:55:09Z</time>
      </trkpt>
      <trkpt lat="47.31962" lon="4.97748">
        <ele>348</ele>
        <time>2012-09-15T07:55:12Z</time>
      </trkpt>
      <trkpt lat="47.31962" lon="4.97739">
        <ele>348</ele>
        <time>2012-09-15T07:55:15Z</time>
      </trkpt>
      <trkpt lat="47.3196" lon="4.9773">
        <ele>346</ele>
        <time>2012-09-15T07:55:19Z</time>
      </trkpt>
      <trkpt lat="47.31957" lon="4.97725">
        <ele>351</ele>
        <time>2012-09-15T07:55:29Z</time>
      </trkpt>
      <trkpt lat="47.31952" lon="4.97722">
        <ele>351</ele>
        <time>2012-09-15T07:55:37Z</time>
      </trkpt>
      <trkpt lat="47.31949" lon="4.97712">
        <ele>350</ele>
        <time>2012-09-15T07:55:43Z</time>
      </trkpt>
      <trkpt lat="47.31948" lon="4.97704">
        <ele>350</ele>
        <time>2012-09-15T07:55:47Z</time>
      </trkpt>
      <trkpt lat="47.31946" lon="4.97698">
        <ele>352</ele>
        <time>2012-09-15T07:55:57Z</time>
      </trkpt>
      <trkpt lat="47.31944" lon="4.97691">
        <ele>352</ele>
        <time>2012-09-15T07:56:00Z</time>
      </trkpt>
      <trkpt lat="47.31944" lon="4.97681">
        <ele>351</ele>
        <time>2012-09-15T07:56:03Z</time>
      </trkpt>
      <trkpt lat="47.31948" lon="4.97676">
        <ele>351</ele>
        <time>2012-09-15T07:56:06Z</time>
      </trkpt>
      <trkpt lat="47.31948" lon="4.97669">
        <ele>352</ele>
        <time>2012-09-15T07:56:10Z</time>
      </trkpt>
      <trkpt lat="47.31946" lon="4.97663">
        <ele>353</ele>
        <time>2012-09-15T07:56:15Z</time>
      </trkpt>
      <trkpt lat="47.31944" lon="4.97653">
        <ele>353</ele>
        <time>2012-09-15T07:56:19Z</time>
      </trkpt>
      <trkpt lat="47.31943" lon="4.97645">
        <ele>353</ele>
        <time>2012-09-15T07:56:23Z</time>
      </trkpt>
      <trkpt lat="47.31941" lon="4.97637">
        <ele>355</ele>
        <time>2012-09-15T07:56:26Z</time>
      </trkpt>
      <trkpt lat="47.31937" lon="4.9763">
        <ele>355</ele>
        <time>2012-09-15T07:56:29Z</time>
      </trkpt>
      <trkpt lat="47.31939" lon="4.97623">
        <ele>356</ele>
        <time>2012-09-15T07:56:33Z</time>
      </trkpt>
      <trkpt lat="47.31937" lon="4.97616">
        <ele>354</ele>
        <time>2012-09-15T07:56:37Z</time>
      </trkpt>
      <trkpt lat="47.31936" lon="4.97606">
        <ele>352</ele>
        <time>2012-09-15T07:56:40Z</time>
      </trkpt>
      <trkpt lat="47.31932" lon="4.97603">
        <ele>351</ele>
        <time>2012-09-15T07:56:51Z</time>
      </trkpt>
      <trkpt lat="47.31927" lon="4.97603">
        <ele>351</ele>
        <time>2012-09-15T07:56:57Z</time>
      </trkpt>
      <trkpt lat="47.3192" lon="4.976">
        <ele>352</ele>
        <time>2012-09-15T07:57:02Z</time>
      </trkpt>
      <trkpt lat="47.31916" lon="4.97598">
        <ele>353</ele>
        <time>2012-09-15T07:57:05Z</time>
      </trkpt>
      <trkpt lat="47.31911" lon="4.976">
        <ele>355</ele>
        <time>2012-09-15T07:57:10Z</time>
      </trkpt>
      <trkpt lat="47.31907" lon="4.97604">
        <ele>356</ele>
        <time>2012-09-15T07:57:15Z</time>
      </trkpt>
      <trkpt lat="47.31902" lon="4.97608">
        <ele>356</ele>
        <time>2012-09-15T07:57:20Z</time>
      </trkpt>
      <trkpt lat="47.31899" lon="4.97614">
        <ele>355</ele>
        <time>2012-09-15T07:57:25Z</time>
      </trkpt>
      <trkpt lat="47.31896" lon="4.97619">
        <ele>355</ele>
        <time>2012-09-15T07:57:28Z</time>
      </trkpt>
      <trkpt lat="47.31892" lon="4.97624">
        <ele>356</ele>
        <time>2012-09-15T07:57:32Z</time>
      </trkpt>
      <trkpt lat="47.31887" lon="4.97626">
        <ele>358</ele>
        <time>2012-09-15T07:57:38Z</time>
      </trkpt>
      <trkpt lat="47.31882" lon="4.97624">
        <ele>358</ele>
        <time>2012-09-15T07:57:41Z</time>
      </trkpt>
      <trkpt lat="47.31878" lon="4.9762">
        <ele>359</ele>
        <time>2012-09-15T07:57:45Z</time>
      </trkpt>
      <trkpt lat="47.31878" lon="4.97612">
        <ele>361</ele>
        <time>2012-09-15T07:57:53Z</time>
      </trkpt>
      <trkpt lat="47.31875" lon="4.97604">
        <ele>359</ele>
        <time>2012-09-15T07:57:55Z</time>
      </trkpt>
      <trkpt lat="47.31875" lon="4.97596">
        <ele>357</ele>
        <time>2012-09-15T07:58:00Z</time>
      </trkpt>
      <trkpt lat="47.31872" lon="4.9759">
        <ele>358</ele>
        <time>2012-09-15T07:58:02Z</time>
      </trkpt>
      <trkpt lat="47.3187" lon="4.97584">
        <ele>361</ele>
        <time>2012-09-15T07:58:08Z</time>
      </trkpt>
      <trkpt lat="47.31873" lon="4.97579">
        <ele>361</ele>
        <time>2012-09-15T07:58:13Z</time>
      </trkpt>
      <trkpt lat="47.31879" lon="4.97577">
        <ele>362</ele>
        <time>2012-09-15T07:58:17Z</time>
      </trkpt>
      <trkpt lat="47.31883" lon="4.97572">
        <ele>359</ele>
        <time>2012-09-15T07:58:22Z</time>
      </trkpt>
      <trkpt lat="47.31888" lon="4.97572">
        <ele>359</ele>
        <time>2012-09-15T07:58:26Z</time>
      </trkpt>
      <trkpt lat="47.31893" lon="4.97572">
        <ele>362</ele>
        <time>2012-09-15T07:58:33Z</time>
      </trkpt>
      <trkpt lat="47.31893" lon="4.97572">
        <ele>362</ele>
        <time>2012-09-15T07:58:33Z</time>
      </trkpt>
      <trkpt lat="47.31893" lon="4.97572">
        <ele>362</ele>
        <time>2012-09-15T07:58:34Z</time>
      </trkpt>
      <trkpt lat="47.319" lon="4.97575">
        <ele>360</ele>
        <time>2012-09-15T07:58:45Z</time>
      </trkpt>
      <trkpt lat="47.31905" lon="4.97575">
        <ele>359</ele>
        <time>2012-09-15T07:58:48Z</time>
      </trkpt>
      <trkpt lat="47.31911" lon="4.97576">
        <ele>359</ele>
        <time>2012-09-15T07:58:52Z</time>
      </trkpt>
      <trkpt lat="47.31916" lon="4.97578">
        <ele>360</ele>
        <time>2012-09-15T07:58:56Z</time>
      </trkpt>
      <trkpt lat="47.3192" lon="4.97577">
        <ele>360</ele>
        <time>2012-09-15T07:58:59Z</time>
      </trkpt>
      <trkpt lat="47.31925" lon="4.97575">
        <ele>360</ele>
        <time>2012-09-15T07:59:03Z</time>
      </trkpt>
      <trkpt lat="47.3193" lon="4.97576">
        <ele>357</ele>
        <time>2012-09-15T07:59:09Z</time>
      </trkpt>
      <trkpt lat="47.31932" lon="4.97582">
        <ele>359</ele>
        <time>2012-09-15T07:59:14Z</time>
      </trkpt>
      <trkpt lat="47.31935" lon="4.97588">
        <ele>359</ele>
        <time>2012-09-15T07:59:19Z</time>
      </trkpt>
      <trkpt lat="47.31939" lon="4.97595">
        <ele>361</ele>
        <time>2012-09-15T07:59:22Z</time>
      </trkpt>
      <trkpt lat="47.31941" lon="4.976">
        <ele>361</ele>
        <time>2012-09-15T07:59:24Z</time>
      </trkpt>
      <trkpt lat="47.31944" lon="4.97606">
        <ele>361</ele>
        <time>2012-09-15T07:59:26Z</time>
      </trkpt>
      <trkpt lat="47.31947" lon="4.97611">
        <ele>360</ele>
        <time>2012-09-15T07:59:28Z</time>
      </trkpt>
      <trkpt lat="47.3195" lon="4.97618">
        <ele>359</ele>
        <time>2012-09-15T07:59:31Z</time>
      </trkpt>
      <trkpt lat="47.31953" lon="4.97624">
        <ele>359</ele>
        <time>2012-09-15T07:59:34Z</time>
      </trkpt>
      <trkpt lat="47.31955" lon="4.9763">
        <ele>360</ele>
        <time>2012-09-15T07:59:37Z</time>
      </trkpt>
      <trkpt lat="47.31957" lon="4.97636">
        <ele>360</ele>
        <time>2012-09-15T07:59:39Z</time>
      </trkpt>
      <trkpt lat="47.3196" lon="4.97644">
        <ele>357</ele>
        <time>2012-09-15T07:59:42Z</time>
      </trkpt>
      <trkpt lat="47.31963" lon="4.9765">
        <ele>356</ele>
        <time>2012-09-15T07:59:46Z</time>
      </trkpt>
      <trkpt lat="47.31967" lon="4.97654">
        <ele>356</ele>
        <time>2012-09-15T07:59:50Z</time>
      </trkpt>
      <trkpt lat="47.3197" lon="4.9766">
        <ele>355</ele>
        <time>2012-09-15T07:59:53Z</time>
      </trkpt>
      <trkpt lat="47.31971" lon="4.97668">
        <ele>355</ele>
        <time>2012-09-15T07:59:56Z</time>
      </trkpt>
      <trkpt lat="47.31974" lon="4.97675">
        <ele>353</ele>
        <time>2012-09-15T07:59:58Z</time>
      </trkpt>
      <trkpt lat="47.31976" lon="4.97682">
        <ele>351</ele>
        <time>2012-09-15T08:00:00Z</time>
      </trkpt>
      <trkpt lat="47.31978" lon="4.9769">
        <ele>350</ele>
        <time>2012-09-15T08:00:03Z</time>
      </trkpt>
      <trkpt lat="47.31977" lon="4.97699">
        <ele>349</ele>
        <time>2012-09-15T08:00:07Z</time>
      </trkpt>
      <trkpt lat="47.31976" lon="4.97708">
        <ele>349</ele>
        <time>2012-09-15T08:00:10Z</time>
      </trkpt>
      <trkpt lat="47.31977" lon="4.97715">
        <ele>351</ele>
        <time>2012-09-15T08:00:12Z</time>
      </trkpt>
      <trkpt lat="47.31977" lon="4.97723">
        <ele>351</ele>
        <time>2012-09-15T08:00:15Z</time>
      </trkpt>
      <trkpt lat="47.31978" lon="4.97731">
        <ele>352</ele>
        <time>2012-09-15T08:00:18Z</time>
      </trkpt>
      <trkpt lat="47.3198" lon="4.9774">
        <ele>355</ele>
        <time>2012-09-15T08:00:21Z</time>
      </trkpt>
      <trkpt lat="47.31981" lon="4.97751">
        <ele>356</ele>
        <time>2012-09-15T08:00:24Z</time>
      </trkpt>
      <trkpt lat="47.31983" lon="4.97758">
        <ele>354</ele>
        <time>2012-09-15T08:00:26Z</time>
      </trkpt>
      <trkpt lat="47.31983" lon="4.97765">
        <ele>354</ele>
        <time>2012-09-15T08:00:28Z</time>
      </trkpt>
      <trkpt lat="47.31986" lon="4.97773">
        <ele>352</ele>
        <time>2012-09-15T08:00:30Z</time>
      </trkpt>
      <trkpt lat="47.31987" lon="4.9778">
        <ele>351</ele>
        <time>2012-09-15T08:00:32Z</time>
      </trkpt>
      <trkpt lat="47.31989" lon="4.97789">
        <ele>350</ele>
        <time>2012-09-15T08:00:35Z</time>
      </trkpt>
      <trkpt lat="47.31988" lon="4.97797">
        <ele>348</ele>
        <time>2012-09-15T08:00:38Z</time>
      </trkpt>
      <trkpt lat="47.31991" lon="4.97807">
        <ele>348</ele>
        <time>2012-09-15T08:00:41Z</time>
      </trkpt>
      <trkpt lat="47.31992" lon="4.97817">
        <ele>350</ele>
        <time>2012-09-15T08:00:45Z</time>
      </trkpt>
      <trkpt lat="47.31993" lon="4.97825">
        <ele>350</ele>
        <time>2012-09-15T08:00:48Z</time>
      </trkpt>
      <trkpt lat="47.31996" lon="4.97833">
        <ele>350</ele>
        <time>2012-09-15T08:00:51Z</time>
      </trkpt>
      <trkpt lat="47.31997" lon="4.97842">
        <ele>350</ele>
        <time>2012-09-15T08:00:54Z</time>
      </trkpt>
      <trkpt lat="47.32" lon="4.97848">
        <ele>349</ele>
        <time>2012-09-15T08:00:56Z</time>
      </trkpt>
      <trkpt lat="47.32004" lon="4.97856">
        <ele>349</ele>
        <time>2012-09-15T08:00:59Z</time>
      </trkpt>
      <trkpt lat="47.32005" lon="4.97862">
        <ele>350</ele>
        <time>2012-09-15T08:01:02Z</time>
      </trkpt>
      <trkpt lat="47.32007" lon="4.9787">
        <ele>350</ele>
        <time>2012-09-15T08:01:05Z</time>
      </trkpt>
      <trkpt lat="47.32008" lon="4.97878">
        <ele>353</ele>
        <time>2012-09-15T08:01:09Z</time>
      </trkpt>
      <trkpt lat="47.32009" lon="4.97885">
        <ele>358</ele>
        <time>2012-09-15T08:01:13Z</time>
      </trkpt>
      <trkpt lat="47.32012" lon="4.97891">
        <ele>360</ele>
        <time>2012-09-15T08:01:16Z</time>
      </trkpt>
      <trkpt lat="47.32015" lon="4.97902">
        <ele>359</ele>
        <time>2012-09-15T08:01:19Z</time>
      </trkpt>
      <trkpt lat="47.32019" lon="4.97913">
        <ele>356</ele>
        <time>2012-09-15T08:01:21Z</time>
      </trkpt>
      <trkpt lat="47.32019" lon="4.97921">
        <ele>356</ele>
        <time>2012-09-15T08:01:24Z</time>
      </trkpt>
      <trkpt lat="47.32018" lon="4.97928">
        <ele>356</ele>
        <time>2012-09-15T08:01:27Z</time>
      </trkpt>
      <trkpt lat="47.3202" lon="4.97934">
        <ele>356</ele>
        <time>2012-09-15T08:01:30Z</time>
      </trkpt>
      <trkpt lat="47.32021" lon="4.97942">
        <ele>357</ele>
        <time>2012-09-15T08:01:33Z</time>
      </trkpt>
      <trkpt lat="47.32022" lon="4.9795">
        <ele>357</ele>
        <time>2012-09-15T08:01:36Z</time>
      </trkpt>
      <trkpt lat="47.32025" lon="4.97958">
        <ele>357</ele>
        <time>2012-09-15T08:01:39Z</time>
      </trkpt>
      <trkpt lat="47.32028" lon="4.97965">
        <ele>358</ele>
        <time>2012-09-15T08:01:42Z</time>
      </trkpt>
      <trkpt lat="47.3203" lon="4.97972">
        <ele>358</ele>
        <time>2012-09-15T08:01:45Z</time>
      </trkpt>
      <trkpt lat="47.32033" lon="4.97978">
        <ele>358</ele>
        <time>2012-09-15T08:01:48Z</time>
      </trkpt>
      <trkpt lat="47.32036" lon="4.97983">
        <ele>359</ele>
        <time>2012-09-15T08:01:50Z</time>
      </trkpt>
      <trkpt lat="47.3204" lon="4.97991">
        <ele>359</ele>
        <time>2012-09-15T08:01:53Z</time>
      </trkpt>
      <trkpt lat="47.32043" lon="4.97997">
        <ele>359</ele>
        <time>2012-09-15T08:01:56Z</time>
      </trkpt>
      <trkpt lat="47.32046" lon="4.98005">
        <ele>359</ele>
        <time>2012-09-15T08:01:59Z</time>
      </trkpt>
      <trkpt lat="47.32049" lon="4.98012">
        <ele>359</ele>
        <time>2012-09-15T08:02:02Z</time>
      </trkpt>
      <trkpt lat="47.32052" lon="4.98018">
        <ele>360</ele>
        <time>2012-09-15T08:02:05Z</time>
      </trkpt>
      <trkpt lat="47.32056" lon="4.98023">
        <ele>359</ele>
        <time>2012-09-15T08:02:08Z</time>
      </trkpt>
      <trkpt lat="47.32059" lon="4.98029">
        <ele>360</ele>
        <time>2012-09-15T08:02:11Z</time>
      </trkpt>
      <trkpt lat="47.32062" lon="4.98037">
        <ele>359</ele>
        <time>2012-09-15T08:02:14Z</time>
      </trkpt>
      <trkpt lat="47.32066" lon="4.98043">
        <ele>358</ele>
        <time>2012-09-15T08:02:17Z</time>
      </trkpt>
      <trkpt lat="47.32069" lon="4.98049">
        <ele>357</ele>
        <time>2012-09-15T08:02:20Z</time>
      </trkpt>
      <trkpt lat="47.32072" lon="4.98054">
        <ele>358</ele>
        <time>2012-09-15T08:02:23Z</time>
      </trkpt>
      <trkpt lat="47.32075" lon="4.9806">
        <ele>359</ele>
        <time>2012-09-15T08:02:26Z</time>
      </trkpt>
      <trkpt lat="47.32079" lon="4.98067">
        <ele>361</ele>
        <time>2012-09-15T08:02:30Z</time>
      </trkpt>
      <trkpt lat="47.32082" lon="4.98074">
        <ele>361</ele>
        <time>2012-09-15T08:02:34Z</time>
      </trkpt>
      <trkpt lat="47.32085" lon="4.98079">
        <ele>361</ele>
        <time>2012-09-15T08:02:38Z</time>
      </trkpt>
      <trkpt lat="47.32088" lon="4.98085">
        <ele>361</ele>
        <time>2012-09-15T08:02:41Z</time>
      </trkpt>
      <trkpt lat="47.32093" lon="4.98093">
        <ele>357</ele>
        <time>2012-09-15T08:02:45Z</time>
      </trkpt>
      <trkpt lat="47.32096" lon="4.98101">
        <ele>354</ele>
        <time>2012-09-15T08:02:47Z</time>
      </trkpt>
      <trkpt lat="47.32101" lon="4.98107">
        <ele>350</ele>
        <time>2012-09-15T08:02:48Z</time>
      </trkpt>
      <trkpt lat="47.32102" lon="4.98115">
        <ele>346</ele>
        <time>2012-09-15T08:02:55Z</time>
      </trkpt>
      <trkpt lat="47.32105" lon="4.98123">
        <ele>342</ele>
        <time>2012-09-15T08:03:03Z</time>
      </trkpt>
      <trkpt lat="47.32108" lon="4.9813">
        <ele>339</ele>
        <time>2012-09-15T08:03:09Z</time>
      </trkpt>
      <trkpt lat="47.32103" lon="4.98133">
        <ele>335</ele>
        <time>2012-09-15T08:03:16Z</time>
      </trkpt>
      <trkpt lat="47.32103" lon="4.98133">
        <ele>335</ele>
        <time>2012-09-15T08:03:16Z</time>
      </trkpt>
      <trkpt lat="47.32103" lon="4.98133">
        <ele>335</ele>
        <time>2012-09-15T08:03:18Z</time>
      </trkpt>
      <trkpt lat="47.32098" lon="4.98133">
        <ele>330</ele>
        <time>2012-09-15T08:04:27Z</time>
      </trkpt>
    </trkseg>
  </trk>
</gpx>